[[{"header":{"parameterUnit":"m.s-1","parameterCategory":1,"la1":31.0,"la2":29.5877,"lo1":-88.7671,"lo2":-86.6584,"dy":0.0162,"dx":0.0185,"nx":115,"ny":88,"refTime":"2023-08-27T12:00:00:Z","depth":0,"parameterNumber":2,"parameterNumberName":"U-component_of_WINDS"},"data":[0.0,0.0,0.0,0.0,0.0,0.0,0.0,0.0,0.0,0.0,0.0,0.0,0.0,0.0,0.0,0.0,0.0,0.0,0.0,0.0,0.0,0.0,0.0,0.0,0.0,0.0,0.0,0.0,0.0,0.0,0.0,0.0,0.0,0.0,0.0,0.0,0.0,0.0,0.0,0.0,0.0,0.0,0.0,0.0,0.0,0.0,0.0,0.0,0.0,0.0,0.0,0.0,0.0,0.0,0.0,0.0,0.0,0.0,0.0,0.0,0.0,0.0,0.0,0.0,0.0,0.0,0.0,0.0,0.0,0.0,0.0,0.0,0.0,0.0,0.0,0.0,0.0,0.0,0.0,0.0,0.0,0.0,0.0,0.0,0.0,0.0,0.0,0.0,0.0,0.0,0.0,0.0,0.0,0.0,0.0,0.0,0.0,0.0,0.0,0.0,0.0,0.0,0.0,0.0,0.0,0.0,0.0,0.0,0.0,0.0,0.0,0.0,0.0,0.0,0.0,0.0,0.0,0.0,0.0,0.0,0.0,0.0,0.0,0.0,0.0,0.0,0.0,0.0,0.0,0.0,0.0,0.0,0.0,0.0,0.0,0.0,0.0,0.0,0.0,0.0,0.0,0.0,0.0,0.0,0.0,0.0,0.0,0.0,0.0,0.0,0.0,0.0,0.0,0.0,0.0,0.0,0.0,0.0,0.0,0.0,0.0,0.0,0.0,0.0,0.0,0.0,0.0,0.0,0.0,0.0,0.0,0.0,0.0,0.0,0.0,0.0,0.0,0.0,0.0,0.0,0.0,0.0,0.0,0.0,0.0,0.0,0.0,0.0,0.0,0.0,0.0,0.0,0.0,0.0,0.0,0.0,0.0,0.0,0.0,0.0,0.0,0.0,0.0,0.0,0.0,0.0,0.0,0.0,0.0,0.0,0.0,0.0,0.0,0.0,0.0,0.0,0.0,0.0,0.0,0.0,0.0,0.0,0.0,0.0,0.0,0.0,0.0,0.0,0.0,0.0,0.0,0.0,0.0,0.0,0.0,0.0,0.0,0.0,0.0,0.0,0.0,0.0,0.0,0.0,0.0,0.0,0.0,0.0,0.0,0.0,0.0,0.0,0.0,0.0,0.0,0.0,0.0,0.0,0.0,0.0,0.0,0.0,0.0,0.0,0.0,0.0,0.0,0.0,0.0,0.0,0.0,0.0,0.0,0.0,0.0,0.0,0.0,0.0,0.0,0.0,0.0,0.0,0.0,0.0,0.0,0.0,0.0,0.0,0.0,0.0,0.0,0.0,0.0,0.0,0.0,0.0,0.0,0.0,0.0,0.0,0.0,0.0,0.0,0.0,0.0,0.0,0.0,0.0,0.0,0.0,0.0,0.0,0.0,0.0,0.0,0.0,0.0,0.0,0.0,0.0,0.0,0.0,0.0,0.0,0.0,0.0,0.0,0.0,0.0,0.0,0.0,0.0,0.0,0.0,0.0,0.0,0.0,0.0,0.0,0.0,0.0,0.0,0.0,0.0,0.0,0.0,0.0,0.0,0.0,0.0,0.0,0.0,0.0,0.0,0.0,0.0,0.0,0.0,0.0,0.0,0.0,0.0,0.0,0.0,0.0,0.0,0.0,0.0,0.0,0.0,0.0,0.0,0.0,0.0,0.0,0.0,0.0,0.0,0.0,0.0,0.0,0.0,0.0,0.0,0.0,0.0,0.0,0.0,0.0,0.0,0.0,0.0,0.0,0.0,0.0,0.0,0.0,0.0,0.0,0.0,0.0,0.0,0.0,0.0,0.0,0.0,0.0,0.0,0.0,0.0,0.0,0.0,0.0,0.0,0.0,0.0,0.0,0.0,0.0,0.0,0.0,0.0,0.0,0.0,0.0,0.0,0.0,0.0,0.0,0.0,0.0,0.0,0.0,0.0,0.0,0.0,0.0,0.0,0.0,0.0,0.0,0.0,0.0,0.0,0.0,0.0,0.0,0.0,0.0,0.0,0.0,0.0,0.0,0.0,0.0,0.0,0.0,0.0,0.0,0.0,0.0,0.0,0.0,0.0,0.0,0.0,0.0,0.0,0.0,0.0,0.0,0.0,0.0,0.0,0.0,0.0,0.0,0.0,0.0,0.0,0.0,0.0,0.0,0.0,0.0,0.0,0.0,0.0,0.0,0.0,0.0,0.0,0.0,0.0,0.0,0.0,0.0,0.0,0.0,0.0,0.0,0.0,0.0,0.0,0.0,0.0,0.0,0.0,0.0,0.0,0.0,0.0,0.0,0.0,0.0,0.0,0.0,0.0,0.0,0.0,0.0,0.0,0.0,0.0,0.0,0.0,0.0,0.0,0.0,0.0,0.0,0.0,0.0,0.0,0.0,0.0,0.0,0.0,0.0,0.0,0.0,0.0,0.0,0.0,0.0,0.0,0.0,0.0,0.0,0.0,0.0,0.0,0.0,0.0,0.0,0.0,0.0,0.0,0.0,0.0,0.0,0.0,0.0,0.0,0.0,0.0,0.0,0.0,0.0,0.0,0.0,0.0,0.0,0.0,0.0,0.0,0.0,0.0,0.0,0.0,0.0,0.0,0.0,0.0,0.0,0.0,0.0,0.0,0.0,0.0,0.0,0.0,0.0,0.0,0.0,0.0,0.0,0.0,0.0,0.0,0.0,0.0,0.0,0.0,0.0,0.0,0.0,0.0,0.0,0.0,0.0,0.0,0.0,0.0,0.0,0.0,0.0,0.0,0.0,0.0,0.0,0.0,0.0,0.0,0.0,0.0,0.0,0.0,0.0,0.0,0.0,0.0,0.0,0.0,0.0,0.0,0.0,0.0,0.0,0.0,0.0,0.0,0.0,0.0,0.0,0.0,0.0,0.0,0.0,0.0,0.0,0.0,0.0,0.0,0.0,0.0,0.0,0.0,0.0,0.0,0.0,0.0,0.0,0.0,0.0,0.0,0.0,0.0,0.0,0.0,0.0,0.0,0.0,0.0,0.0,0.0,0.0,0.0,0.0,0.0,0.0,0.0,0.0,0.0,0.0,0.0,0.0,0.0,0.0,0.0,0.0,0.0,0.0,0.0,0.0,0.0,0.0,0.0,0.0,0.0,0.0,0.0,0.0,0.0,0.0,0.0,0.0,0.0,0.0,0.0,0.0,0.0,0.0,0.0,0.0,0.0,0.0,0.0,0.0,0.0,0.0,0.0,0.0,0.0,0.0,0.0,0.0,0.0,0.0,0.0,0.0,0.0,0.0,0.0,0.0,0.0,0.0,0.0,0.0,0.0,0.0,0.0,0.0,0.0,0.0,0.0,0.0,0.0,0.0,0.0,0.0,0.0,0.0,0.0,0.0,0.0,0.0,0.0,0.0,0.0,0.0,0.0,0.0,0.0,0.0,0.0,0.0,0.0,0.0,0.0,0.0,0.0,0.0,0.0,0.0,0.0,0.0,0.0,0.0,0.0,0.0,0.0,0.0,0.0,0.0,0.0,0.0,0.0,0.0,0.0,0.0,0.0,0.0,0.0,0.0,0.0,0.0,0.0,0.0,0.0,0.0,0.0,0.0,0.0,0.0,0.0,0.0,0.0,0.0,0.0,0.0,0.0,0.0,0.0,0.0,0.0,0.0,0.0,0.0,0.0,0.0,0.0,0.0,0.0,0.0,0.0,0.0,0.0,0.0,0.0,0.0,0.0,0.0,0.0,0.0,0.0,0.0,0.0,0.0,0.0,0.0,0.0,0.0,0.0,0.0,0.0,0.0,0.0,0.0,0.0,0.0,0.0,0.0,0.0,0.0,0.0,0.0,0.0,0.0,0.0,0.0,0.0,0.0,0.0,0.0,0.0,0.0,0.0,0.0,0.0,0.0,0.0,0.0,0.0,0.0,0.0,0.0,0.0,0.0,0.0,0.0,0.0,0.0,0.0,0.0,0.0,0.0,0.0,0.0,0.0,0.0,0.0,0.0,0.0,0.0,0.0,0.0,0.0,0.0,0.0,0.0,0.0,0.0,0.0,0.0,0.0,0.0,0.0,0.0,0.0,0.0,0.0,0.0,0.0,0.0,0.0,0.0,0.0,0.0,0.0,0.0,0.0,0.0,0.0,0.0,0.0,0.0,0.0,0.0,0.0,0.0,0.0,0.0,0.0,0.0,0.0,0.0,0.0,0.0,0.0,0.0,0.0,0.0,0.0,0.0,0.0,0.0,0.0,0.0,0.0,0.0,0.0,0.0,0.0,0.0,0.0,0.0,0.0,0.0,0.0,0.0,0.0,0.0,0.0,0.0,0.0,-1.0205,0.0,0.0,0.0,0.0,0.0,0.0,0.0,0.0,0.0,0.0,0.0,0.0,0.0,0.0,0.0,0.0,0.0,0.0,0.0,0.0,0.0,0.0,0.0,0.0,0.0,0.0,0.0,0.0,0.0,0.0,0.0,0.0,0.0,0.0,0.0,0.0,0.0,0.0,0.0,0.0,0.0,0.0,0.0,0.0,0.0,0.0,0.0,0.0,0.0,0.0,0.0,0.0,0.0,0.0,0.0,0.0,0.0,0.0,0.0,0.0,0.0,0.0,0.0,0.0,0.0,0.0,0.0,0.0,0.0,0.0,0.0,0.0,0.0,0.0,0.0,0.0,0.0,0.0,0.0,0.0,0.0,0.0,0.0,0.0,0.0,0.0,0.0,0.0,0.0,0.0,0.0,0.0,0.0,0.0,0.0,0.0,0.0,0.0,0.0,0.0,0.0,0.0,0.0,0.0,0.0,0.0,0.0,0.0,0.0,0.0,-1.0092,-1.0188,-1.0194,-1.0184,-1.0202,0.0,0.0,0.0,0.0,0.0,0.0,0.0,0.0,0.0,0.0,0.0,0.0,0.0,0.0,0.0,0.0,0.0,0.0,0.0,0.0,0.0,0.0,0.0,0.0,0.0,0.0,0.0,0.0,0.0,0.0,0.0,0.0,0.0,0.0,0.0,0.0,0.0,0.0,0.0,0.0,0.0,0.0,0.0,0.0,0.0,0.0,0.0,0.0,0.0,0.0,0.0,0.0,0.0,0.0,0.0,0.0,0.0,0.0,0.0,0.0,0.0,0.0,0.0,0.0,0.0,0.0,0.0,0.0,0.0,0.0,0.0,0.0,0.0,0.0,0.0,0.0,0.0,0.0,0.0,0.0,0.0,0.0,0.0,0.0,0.0,0.0,0.0,0.0,0.0,0.0,0.0,0.0,0.0,0.0,0.0,0.0,0.0,0.0,0.0,0.0,0.0,0.0,0.0,0.0,0.0,0.0,0.0,0.0,0.0,0.0,0.0,0.0,-1.1021,-1.1056,-1.1055,0.0,0.0,0.0,0.0,0.0,0.0,0.0,0.0,0.0,0.0,0.0,0.0,0.0,0.0,0.0,0.0,0.0,0.0,0.0,0.0,0.0,0.0,0.0,0.0,0.0,0.0,0.0,0.0,0.0,0.0,0.0,0.0,0.0,0.0,0.0,0.0,0.0,0.0,0.0,0.0,0.0,0.0,0.0,0.0,0.0,0.0,0.0,0.0,0.0,0.0,0.0,0.0,0.0,0.0,0.0,0.0,0.0,0.0,0.0,0.0,0.0,0.0,0.0,0.0,0.0,0.0,0.0,0.0,0.0,0.0,0.0,0.0,0.0,0.0,0.0,0.0,0.0,0.0,0.0,0.0,0.0,0.0,0.0,0.0,0.0,0.0,0.0,0.0,0.0,0.0,0.0,0.0,0.0,0.0,0.0,0.0,0.0,0.0,0.0,0.0,0.0,0.0,0.0,0.0,0.0,0.0,0.0,0.0,0.0,0.0,-1.1048,-1.321,-1.3511,0.0,-1.3651,0.0,0.0,0.0,0.0,0.0,0.0,0.0,0.0,0.0,0.0,0.0,0.0,0.0,0.0,0.0,0.0,0.0,0.0,0.0,0.0,0.0,0.0,0.0,0.0,0.0,0.0,0.0,0.0,0.0,0.0,0.0,0.0,0.0,0.0,0.0,0.0,0.0,0.0,0.0,0.0,0.0,0.0,0.0,0.0,0.0,0.0,0.0,0.0,0.0,0.0,0.0,0.0,0.0,0.0,0.0,0.0,0.0,0.0,0.0,0.0,0.0,0.0,0.0,0.0,0.0,0.0,0.0,0.0,0.0,0.0,0.0,0.0,0.0,0.0,0.0,0.0,0.0,0.0,0.0,0.0,0.0,0.0,0.0,0.0,0.0,0.0,0.0,0.0,0.0,0.0,0.0,0.0,0.0,0.0,0.0,0.0,0.0,0.0,0.0,0.0,0.0,0.0,0.0,0.0,0.0,0.0,0.0,0.0,0.0,0.0,-1.256,-1.3694,-1.3865,-1.3953,0.0,0.0,0.0,0.0,0.0,0.0,0.0,0.0,0.0,0.0,0.0,0.0,0.0,0.0,0.0,0.0,0.0,0.0,0.0,0.0,0.0,0.0,0.0,0.0,0.0,0.0,0.0,0.0,0.0,0.0,0.0,0.0,0.0,0.0,0.0,0.0,0.0,0.0,0.0,0.0,0.0,0.0,0.0,0.0,0.0,0.0,0.0,0.0,0.0,0.0,0.0,0.0,0.0,0.0,0.0,0.0,0.0,0.0,0.0,0.0,0.0,0.0,0.0,0.0,0.0,0.0,0.0,0.0,0.0,0.0,0.0,0.0,0.0,0.0,0.0,0.0,0.0,0.0,0.0,0.0,0.0,0.0,0.0,0.0,0.0,0.0,0.0,0.0,0.0,0.0,0.0,0.0,0.0,0.0,0.0,0.0,0.0,0.0,0.0,0.0,0.0,0.0,0.0,0.0,0.0,0.0,0.0,0.0,0.0,0.0,-1.2788,-1.3812,-1.4722,-1.4892,-1.4648,-1.4009,0.0,0.0,0.0,0.0,0.0,0.0,0.0,0.0,0.0,0.0,0.0,0.0,0.0,0.0,0.0,0.0,0.0,0.0,0.0,0.0,0.0,0.0,0.0,0.0,0.0,0.0,0.0,0.0,0.0,0.0,0.0,0.0,0.0,0.0,0.0,0.0,0.0,0.0,0.0,0.0,0.0,0.0,0.0,0.0,0.0,0.0,0.0,0.0,0.0,0.0,0.0,0.0,0.0,0.0,0.0,0.0,0.0,0.0,0.0,0.0,0.0,0.0,0.0,0.0,0.0,0.0,0.0,0.0,0.0,0.0,0.0,0.0,0.0,0.0,0.0,0.0,0.0,0.0,0.0,0.0,0.0,0.0,0.0,0.0,0.0,0.0,0.0,0.0,0.0,0.0,0.0,0.0,0.0,0.0,0.0,0.0,0.0,0.0,0.0,0.0,0.0,0.0,0.0,0.0,0.0,0.0,0.0,0.0,-1.6051,-1.4347,-1.4541,-1.7045,-1.7376,-1.6382,0.0,0.0,0.0,0.0,0.0,0.0,0.0,0.0,0.0,0.0,0.0,0.0,0.0,0.0,0.0,0.0,0.0,0.0,0.0,0.0,0.0,0.0,0.0,0.0,0.0,0.0,0.0,0.0,0.0,0.0,0.0,0.0,0.0,0.0,0.0,0.0,0.0,0.0,0.0,0.0,0.0,0.0,0.0,0.0,0.0,0.0,0.0,0.0,0.0,0.0,0.0,0.0,0.0,0.0,0.0,0.0,0.0,0.0,0.0,0.0,0.0,0.0,0.0,0.0,0.0,0.0,0.0,0.0,0.0,0.0,0.0,0.0,0.0,0.0,0.0,0.0,0.0,0.0,0.0,0.0,0.0,0.0,0.0,0.0,0.0,0.0,0.0,0.0,0.0,0.0,0.0,0.0,0.0,0.0,0.0,0.0,0.0,0.0,0.0,0.0,0.0,0.0,0.0,0.0,0.0,0.0,0.0,0.0,0.0,-1.212,-1.2992,-1.5378,-1.922,-1.6714,-1.5468,0.0,0.0,0.0,0.0,0.0,0.0,0.0,0.0,0.0,0.0,0.0,0.0,0.0,0.0,0.0,0.0,0.0,0.0,0.0,0.0,0.0,0.0,0.0,0.0,0.0,0.0,0.0,0.0,0.0,0.0,0.0,0.0,0.0,0.0,0.0,0.0,0.0,0.0,0.0,0.0,0.0,0.0,0.0,0.0,0.0,0.0,0.0,0.0,0.0,0.0,0.0,0.0,0.0,0.0,0.0,0.0,0.0,0.0,0.0,0.0,0.0,0.0,0.0,0.0,0.0,0.0,0.0,0.0,0.0,0.0,0.0,0.0,0.0,0.0,0.0,0.0,0.0,0.0,0.0,0.0,0.0,0.0,0.0,0.0,0.0,0.0,0.0,0.0,0.0,0.0,0.0,0.0,0.0,0.0,0.0,0.0,0.0,0.0,0.0,0.0,0.0,0.0,0.0,0.0,0.0,0.0,0.0,0.0,0.0,-1.1774,0.0,-1.6872,-1.9512,-1.6491,-1.4942,0.0,0.0,0.0,0.0,0.0,0.0,0.0,0.0,0.0,0.0,0.0,0.0,0.0,0.0,0.0,0.0,0.0,0.0,0.0,0.0,0.0,0.0,0.0,0.0,0.0,0.0,0.0,0.0,0.0,0.0,0.0,0.0,0.0,0.0,0.0,0.0,0.0,0.0,0.0,0.0,0.0,0.0,0.0,0.0,0.0,0.0,0.0,0.0,0.0,0.0,0.0,0.0,0.0,0.0,0.0,0.0,0.0,0.0,0.0,0.0,0.0,0.0,0.0,0.0,0.0,0.0,0.0,0.0,0.0,0.0,0.0,0.0,0.0,0.0,0.0,0.0,0.0,0.0,0.0,0.0,0.0,0.0,0.0,0.0,0.0,0.0,0.0,0.0,0.0,0.0,0.0,0.0,0.0,0.0,0.0,0.0,0.0,0.0,0.0,0.0,0.0,0.0,0.0,0.0,0.0,0.0,0.0,0.0,-1.1588,-1.6012,-1.8218,-1.88,-1.7793,-1.7052,-1.4974,0.0,0.0,0.0,0.0,0.0,0.0,0.0,0.0,0.0,0.0,0.0,0.0,0.0,0.0,0.0,0.0,0.0,0.0,0.0,0.0,0.0,0.0,0.0,0.0,0.0,0.0,0.0,0.0,0.0,0.0,0.0,0.0,0.0,0.0,0.0,0.0,0.0,0.0,0.0,0.0,0.0,0.0,0.0,0.0,0.0,0.0,0.0,0.0,0.0,0.0,0.0,0.0,0.0,0.0,0.0,0.0,0.0,0.0,0.0,0.0,0.0,0.0,0.0,0.0,0.0,0.0,0.0,0.0,0.0,0.0,0.0,0.0,0.0,0.0,0.0,0.0,0.0,0.0,0.0,0.0,0.0,0.0,0.0,0.0,0.0,0.0,0.0,0.0,0.0,0.0,0.0,0.0,0.0,0.0,0.0,0.0,0.0,0.0,0.0,0.0,0.0,0.0,0.0,0.0,0.0,0.0,0.0,0.0,0.0,-1.4429,-1.6149,-1.7926,-1.957,-1.6564,-1.5121,0.0,0.0,0.0,0.0,0.0,0.0,0.0,0.0,0.0,0.0,0.0,0.0,0.0,0.0,0.0,0.0,0.0,0.0,0.0,0.0,0.0,0.0,0.0,0.0,0.0,0.0,0.0,0.0,0.0,0.0,0.0,0.0,0.0,0.0,0.0,0.0,0.0,0.0,0.0,0.0,0.0,0.0,0.0,0.0,0.0,0.0,0.0,0.0,0.0,0.0,0.0,0.0,0.0,0.0,0.0,0.0,0.0,0.0,0.0,0.0,0.0,0.0,0.0,0.0,0.0,0.0,0.0,0.0,0.0,0.0,0.0,0.0,0.0,0.0,0.0,0.0,0.0,0.0,0.0,0.0,0.0,0.0,0.0,0.0,0.0,0.0,0.0,0.0,0.0,0.0,0.0,0.0,0.0,0.0,0.0,0.0,0.0,0.0,0.0,0.0,0.0,0.0,0.0,0.0,0.0,0.0,0.0,0.0,0.0,-1.6035,-1.7661,-1.9321,-2.0941,-1.7446,-1.5814,-1.625,0.0,0.0,0.0,0.0,0.0,0.0,0.0,0.0,0.0,0.0,0.0,0.0,0.0,0.0,0.0,0.0,0.0,0.0,0.0,0.0,0.0,0.0,0.0,0.0,0.0,0.0,0.0,0.0,0.0,0.0,0.0,0.0,0.0,0.0,0.0,0.0,0.0,0.0,0.0,0.0,0.0,0.0,0.0,0.0,0.0,0.0,0.0,0.0,0.0,0.0,0.0,0.0,0.0,0.0,0.0,0.0,0.0,0.0,0.0,0.0,0.0,0.0,0.0,0.0,0.0,0.0,0.0,0.0,0.0,0.0,0.0,0.0,0.0,0.0,0.0,0.0,0.0,0.0,0.0,0.0,0.0,0.0,0.0,0.0,0.0,0.0,0.0,0.0,0.0,0.0,0.0,0.0,0.0,0.0,0.0,0.0,0.0,0.0,0.0,0.0,0.0,0.0,0.0,0.0,0.0,0.0,0.0,0.0,-2.0035,-2.2039,-2.2559,-2.1584,-1.9447,-1.7067,0.0,0.0,0.0,0.0,0.0,0.0,0.0,0.0,0.0,0.0,0.0,0.0,0.0,0.0,0.0,0.0,0.0,0.0,0.0,0.0,0.0,0.0,0.0,0.0,0.0,0.0,0.0,0.0,0.0,0.0,0.0,0.0,0.0,0.0,0.0,0.0,0.0,0.0,0.0,0.0,0.0,0.0,0.0,0.0,0.0,0.0,0.0,0.0,0.0,0.0,0.0,0.0,0.0,0.0,0.0,0.0,0.0,0.0,0.0,0.0,0.0,0.0,0.0,0.0,0.0,0.0,0.0,0.0,0.0,0.0,0.0,0.0,0.0,0.0,0.0,0.0,0.0,0.0,0.0,0.0,0.0,0.0,0.0,0.0,0.0,0.0,0.0,0.0,0.0,0.0,0.0,0.0,0.0,0.0,0.0,0.0,0.0,0.0,0.0,0.0,0.0,0.0,0.0,0.0,0.0,0.0,0.0,0.0,0.0,-2.0816,-2.2993,-2.3968,-2.3636,-2.1118,-1.889,0.0,0.0,0.0,0.0,0.0,0.0,0.0,0.0,0.0,0.0,0.0,0.0,0.0,0.0,0.0,0.0,0.0,0.0,0.0,0.0,0.0,0.0,0.0,0.0,0.0,0.0,0.0,0.0,0.0,0.0,0.0,0.0,0.0,0.0,0.0,0.0,0.0,0.0,0.0,0.0,0.0,0.0,0.0,0.0,0.0,0.0,0.0,0.0,0.0,0.0,0.0,0.0,0.0,0.0,0.0,0.0,0.0,0.0,0.0,0.0,0.0,0.0,0.0,0.0,0.0,0.0,0.0,0.0,0.0,0.0,0.0,0.0,0.0,0.0,0.0,0.0,0.0,0.0,0.0,0.0,0.0,0.0,0.0,0.0,0.0,0.0,0.0,0.0,0.0,0.0,0.0,0.0,0.0,0.0,0.0,0.0,0.0,0.0,0.0,0.0,0.0,0.0,0.0,0.0,0.0,0.0,0.0,0.0,-1.8929,-2.1626,-2.3521,-2.4572,-2.4693,-2.2705,-2.0519,0.0,0.0,0.0,0.0,0.0,0.0,0.0,0.0,0.0,0.0,0.0,0.0,0.0,0.0,0.0,0.0,0.0,0.0,0.0,0.0,0.0,0.0,0.0,0.0,0.0,0.0,0.0,0.0,0.0,0.0,0.0,0.0,0.0,0.0,0.0,0.0,0.0,0.0,0.0,0.0,0.0,0.0,0.0,0.0,0.0,0.0,0.0,0.0,0.0,0.0,0.0,0.0,0.0,0.0,0.0,0.0,0.0,0.0,0.0,0.0,0.0,0.0,0.0,0.0,0.0,0.0,0.0,0.0,0.0,0.0,0.0,0.0,0.0,0.0,0.0,0.0,0.0,0.0,0.0,0.0,0.0,0.0,0.0,0.0,0.0,0.0,0.0,0.0,0.0,0.0,0.0,0.0,0.0,0.0,0.0,0.0,0.0,0.0,0.0,0.0,0.0,0.0,0.0,0.0,0.0,0.0,0.0,0.0,-2.0092,-2.2377,-2.3801,-2.4725,-2.5059,-2.4066,-2.1898,0.0,0.0,0.0,0.0,0.0,0.0,0.0,0.0,0.0,0.0,0.0,0.0,0.0,0.0,0.0,0.0,0.0,0.0,0.0,0.0,0.0,0.0,0.0,0.0,0.0,0.0,0.0,0.0,0.0,0.0,0.0,0.0,0.0,0.0,0.0,0.0,0.0,0.0,0.0,0.0,0.0,0.0,0.0,0.0,0.0,0.0,0.0,0.0,0.0,0.0,0.0,0.0,0.0,0.0,0.0,0.0,0.0,0.0,0.0,0.0,0.0,0.0,0.0,0.0,0.0,0.0,0.0,0.0,0.0,0.0,0.0,0.0,0.0,0.0,0.0,0.0,0.0,0.0,0.0,0.0,0.0,0.0,0.0,0.0,0.0,0.0,0.0,0.0,0.0,0.0,0.0,0.0,0.0,0.0,0.0,0.0,0.0,0.0,0.0,0.0,0.0,0.0,0.0,0.0,0.0,0.0,0.0,0.0,-2.0623,-2.3037,-2.4217,-2.5145,-2.5838,-2.4271,-2.222,0.0,0.0,0.0,0.0,0.0,0.0,0.0,0.0,0.0,0.0,0.0,0.0,0.0,0.0,0.0,0.0,0.0,0.0,0.0,0.0,0.0,0.0,0.0,0.0,0.0,0.0,0.0,0.0,0.0,0.0,0.0,0.0,0.0,0.0,0.0,0.0,0.0,0.0,0.0,0.0,0.0,0.0,0.0,0.0,0.0,0.0,0.0,0.0,-1.1671,0.0,0.0,0.0,0.0,0.0,0.0,0.0,0.0,0.0,0.0,0.0,0.0,0.0,0.0,0.0,0.0,0.0,0.0,0.0,0.0,0.0,0.0,0.0,0.0,0.0,0.0,0.0,0.0,0.0,0.0,0.0,0.0,0.0,0.0,0.0,0.0,0.0,0.0,0.0,0.0,0.0,0.0,0.0,0.0,0.0,0.0,0.0,0.0,0.0,0.0,0.0,0.0,0.0,0.0,0.0,0.0,0.0,0.0,0.0,-2.1465,-2.3257,-2.433,-2.5179,-2.5733,-2.473,-2.3057,0.0,0.0,0.0,0.0,0.0,0.0,0.0,0.0,0.0,0.0,0.0,0.0,0.0,0.0,0.0,0.0,0.0,0.0,0.0,0.0,0.0,0.0,0.0,0.0,0.0,0.0,0.0,0.0,0.0,0.0,0.0,0.0,0.0,0.0,0.0,0.0,0.0,0.0,0.0,0.0,0.0,0.0,0.0,0.0,0.0,0.0,0.0,0.0,0.0,0.0,0.0,0.0,0.0,0.0,0.0,0.0,0.0,0.0,0.0,0.0,0.0,0.0,0.0,0.0,0.0,0.0,0.0,0.0,0.0,0.0,0.0,0.0,0.0,0.0,0.0,0.0,0.0,0.0,0.0,0.0,0.0,0.0,0.0,0.0,0.0,0.0,0.0,0.0,0.0,0.0,0.0,0.0,0.0,0.0,0.0,0.0,0.0,0.0,0.0,0.0,0.0,0.0,0.0,0.0,0.0,0.0,0.0,-1.9907,-2.2004,-2.3418,-2.4342,-2.5024,-2.5468,-2.5127,-2.3847,-2.1609,0.0,0.0,0.0,0.0,0.0,0.0,0.0,0.0,0.0,0.0,0.0,0.0,0.0,0.0,0.0,0.0,0.0,0.0,0.0,0.0,0.0,0.0,0.0,0.0,0.0,0.0,0.0,0.0,0.0,0.0,0.0,0.0,0.0,0.0,0.0,0.0,0.0,0.0,-1.0426,-1.2308,0.0,0.0,0.0,0.0,0.0,0.0,0.0,0.0,-1.2926,0.0,0.0,0.0,0.0,0.0,0.0,0.0,0.0,0.0,0.0,0.0,0.0,0.0,0.0,0.0,0.0,0.0,0.0,0.0,0.0,0.0,0.0,0.0,0.0,0.0,0.0,0.0,0.0,0.0,0.0,0.0,0.0,0.0,0.0,0.0,0.0,0.0,0.0,0.0,0.0,0.0,0.0,0.0,0.0,0.0,0.0,0.0,0.0,0.0,0.0,0.0,0.0,0.0,0.0,0.0,0.0,-2.0223,-1.9922,-2.1142,-2.4056,-2.4302,-2.4759,-2.5449,-2.4841,-2.3753,-2.2124,0.0,0.0,0.0,0.0,0.0,0.0,0.0,0.0,0.0,0.0,0.0,0.0,0.0,0.0,0.0,0.0,0.0,0.0,0.0,0.0,0.0,0.0,0.0,0.0,0.0,0.0,0.0,0.0,0.0,0.0,0.0,0.0,0.0,0.0,0.0,0.0,0.0,0.0,0.0,-1.4283,-1.5354,0.0,0.0,0.0,0.0,0.0,0.0,0.0,0.0,-1.2686,0.0,0.0,0.0,0.0,0.0,0.0,0.0,0.0,0.0,0.0,0.0,0.0,0.0,0.0,0.0,0.0,0.0,0.0,0.0,0.0,0.0,0.0,0.0,0.0,0.0,0.0,0.0,0.0,0.0,0.0,0.0,0.0,0.0,0.0,0.0,0.0,0.0,0.0,0.0,0.0,0.0,0.0,0.0,0.0,0.0,0.0,0.0,0.0,0.0,0.0,0.0,0.0,0.0,0.0,0.0,-1.939,-2.0426,-2.1981,-2.4189,-2.4281,-2.4578,-2.5144,-2.4303,-2.3242,0.0,0.0,0.0,0.0,0.0,0.0,0.0,0.0,0.0,0.0,0.0,0.0,0.0,0.0,0.0,0.0,0.0,0.0,0.0,0.0,0.0,0.0,0.0,0.0,0.0,0.0,0.0,0.0,0.0,0.0,0.0,0.0,0.0,0.0,0.0,0.0,0.0,0.0,0.0,0.0,-1.527,-1.634,-1.6732,0.0,0.0,0.0,0.0,0.0,0.0,-1.482,-1.3763,0.0,0.0,0.0,0.0,0.0,0.0,0.0,0.0,0.0,0.0,0.0,0.0,0.0,0.0,0.0,0.0,0.0,0.0,0.0,0.0,0.0,0.0,0.0,0.0,0.0,0.0,0.0,0.0,0.0,0.0,0.0,0.0,0.0,0.0,0.0,0.0,0.0,0.0,0.0,0.0,0.0,0.0,0.0,0.0,0.0,0.0,0.0,0.0,0.0,0.0,0.0,0.0,0.0,0.0,0.0,-1.8238,-2.0795,-2.2829,-2.4241,-2.4579,-2.4787,-2.4883,-2.4129,-2.3027,0.0,0.0,0.0,0.0,0.0,0.0,0.0,0.0,0.0,0.0,0.0,0.0,0.0,0.0,0.0,0.0,0.0,0.0,0.0,0.0,0.0,0.0,0.0,0.0,0.0,0.0,0.0,0.0,0.0,0.0,0.0,0.0,0.0,0.0,0.0,0.0,0.0,0.0,0.0,0.0,0.0,-1.7553,-1.7931,-1.7449,0.0,0.0,0.0,0.0,-1.716,-1.6445,0.0,0.0,0.0,0.0,0.0,0.0,0.0,0.0,0.0,0.0,0.0,0.0,0.0,0.0,0.0,0.0,0.0,0.0,0.0,0.0,0.0,0.0,0.0,0.0,0.0,0.0,0.0,0.0,0.0,0.0,0.0,0.0,0.0,0.0,0.0,0.0,0.0,0.0,0.0,0.0,0.0,0.0,0.0,0.0,0.0,0.0,0.0,0.0,0.0,0.0,0.0,0.0,0.0,0.0,0.0,0.0,-1.8359,-2.0404,-2.2351,-2.4241,-2.5518,-2.5765,-2.493,-2.5054,-2.3756,0.0,0.0,0.0,0.0,0.0,0.0,0.0,0.0,0.0,0.0,0.0,0.0,0.0,0.0,0.0,0.0,0.0,0.0,0.0,0.0,0.0,0.0,0.0,0.0,0.0,0.0,0.0,0.0,0.0,0.0,0.0,0.0,0.0,0.0,0.0,0.0,0.0,0.0,0.0,0.0,0.0,-1.9507,-1.878,-1.8601,-1.8753,0.0,0.0,-1.8715,-2.0156,-1.9155,0.0,0.0,0.0,0.0,0.0,0.0,0.0,0.0,0.0,0.0,0.0,0.0,0.0,0.0,0.0,0.0,0.0,0.0,0.0,0.0,0.0,0.0,0.0,0.0,0.0,0.0,0.0,0.0,0.0,0.0,0.0,0.0,0.0,0.0,0.0,0.0,0.0,0.0,0.0,0.0,0.0,0.0,0.0,0.0,0.0,0.0,0.0,0.0,0.0,0.0,0.0,0.0,0.0,0.0,0.0,-1.5115,-1.8284,-2.0661,-2.2675,-2.4256,-2.4902,-2.5002,-2.4589,-2.3915,-2.2537,0.0,0.0,0.0,0.0,0.0,0.0,0.0,0.0,0.0,0.0,0.0,0.0,0.0,0.0,0.0,0.0,0.0,0.0,0.0,0.0,0.0,0.0,0.0,0.0,0.0,0.0,0.0,0.0,0.0,0.0,0.0,0.0,0.0,0.0,0.0,0.0,0.0,0.0,0.0,0.0,0.0,0.0,-1.938,-1.9761,0.0,0.0,0.0,-2.0104,-2.0838,0.0,0.0,0.0,0.0,0.0,0.0,0.0,0.0,0.0,0.0,0.0,0.0,0.0,0.0,0.0,0.0,0.0,0.0,0.0,0.0,0.0,0.0,0.0,0.0,0.0,0.0,0.0,0.0,0.0,0.0,0.0,0.0,0.0,0.0,0.0,0.0,0.0,0.0,0.0,0.0,0.0,0.0,0.0,0.0,0.0,0.0,0.0,0.0,0.0,0.0,0.0,0.0,0.0,0.0,0.0,0.0,0.0,-1.8176,-2.1034,-2.3097,-2.423,-2.4578,-2.4572,-2.4281,-2.3246,0.0,0.0,0.0,0.0,0.0,0.0,0.0,0.0,0.0,0.0,0.0,0.0,0.0,0.0,0.0,0.0,0.0,0.0,0.0,0.0,0.0,0.0,0.0,0.0,0.0,0.0,0.0,-0.8334,0.0,0.0,0.0,0.0,0.0,0.0,0.0,0.0,0.0,0.0,0.0,0.0,0.0,0.0,-1.9506,-1.9979,-2.0732,-2.1326,0.0,0.0,-2.1187,-2.1476,-2.1013,-1.9779,0.0,0.0,0.0,0.0,0.0,0.0,0.0,0.0,0.0,0.0,0.0,0.0,0.0,0.0,0.0,0.0,0.0,0.0,0.0,0.0,0.0,0.0,0.0,0.0,0.0,0.0,0.0,0.0,0.0,0.0,0.0,0.0,0.0,0.0,0.0,0.0,0.0,0.0,0.0,0.0,0.0,0.0,0.0,0.0,0.0,0.0,0.0,0.0,0.0,0.0,0.0,0.0,0.0,0.0,0.0,-1.8112,-2.1384,-2.3422,-2.4223,-2.5323,-2.5368,-2.4254,-2.4052,-2.265,0.0,0.0,0.0,0.0,0.0,0.0,0.0,0.0,0.0,0.0,0.0,0.0,0.0,0.0,0.0,0.0,0.0,0.0,0.0,0.0,0.0,0.0,0.0,0.0,0.0,0.0,0.0,0.0,0.0,0.0,0.0,0.0,0.0,0.0,0.0,0.0,0.0,0.0,0.0,0.0,0.0,-2.0622,-2.0708,-2.1422,-2.2166,0.0,0.0,-2.2166,-2.2856,-2.2988,-2.2038,-1.9025,0.0,0.0,0.0,0.0,0.0,0.0,0.0,0.0,0.0,0.0,0.0,0.0,0.0,0.0,0.0,0.0,0.0,0.0,0.0,0.0,0.0,0.0,0.0,0.0,0.0,0.0,0.0,0.0,0.0,0.0,0.0,0.0,0.0,0.0,0.0,0.0,0.0,0.0,0.0,0.0,0.0,0.0,0.0,0.0,0.0,0.0,0.0,0.0,0.0,0.0,0.0,0.0,0.0,-1.5556,-1.816,-2.1002,-2.3035,-2.4172,-2.4585,-2.467,-2.4457,-2.3759,-2.2609,0.0,0.0,0.0,0.0,0.0,0.0,0.0,0.0,0.0,0.0,0.0,0.0,0.0,0.0,0.0,0.0,0.0,0.0,0.0,0.0,0.0,0.0,0.0,0.0,0.0,0.0,0.0,0.0,-0.955,-0.9729,-0.9522,0.0,0.0,0.0,0.0,0.0,0.0,0.0,0.0,0.0,0.0,-2.0674,-2.1219,-2.1991,0.0,0.0,-2.2844,-2.281,-2.3182,-2.247,-2.1356,-1.9816,-1.8208,0.0,0.0,0.0,0.0,0.0,0.0,0.0,0.0,0.0,0.0,0.0,0.0,0.0,0.0,0.0,0.0,0.0,0.0,0.0,0.0,0.0,0.0,0.0,0.0,0.0,0.0,0.0,0.0,0.0,0.0,0.0,0.0,0.0,0.0,0.0,0.0,0.0,0.0,0.0,0.0,0.0,0.0,0.0,0.0,0.0,0.0,0.0,0.0,0.0,0.0,0.0,0.0,-1.5557,-1.8388,-2.0975,-2.2996,-2.435,-2.4393,-2.4526,-2.4813,-2.3951,-2.2939,0.0,0.0,0.0,0.0,0.0,0.0,0.0,0.0,0.0,0.0,0.0,0.0,0.0,0.0,0.0,0.0,0.0,0.0,0.0,0.0,0.0,0.0,0.0,0.0,0.0,0.0,0.0,0.0,-1.0173,-1.0118,-0.9563,0.0,0.0,0.0,0.0,0.0,0.0,0.0,0.0,0.0,0.0,-2.0928,-2.1738,-2.2452,-2.2932,-2.3008,-2.302,-2.3052,-2.3217,-2.2311,-2.1277,-2.0416,0.0,0.0,0.0,0.0,0.0,0.0,0.0,0.0,0.0,0.0,0.0,0.0,0.0,0.0,0.0,0.0,0.0,0.0,0.0,0.0,0.0,0.0,0.0,0.0,0.0,0.0,0.0,-1.1529,0.0,0.0,-1.0532,0.0,0.0,0.0,0.0,0.0,0.0,0.0,0.0,0.0,0.0,0.0,0.0,0.0,0.0,0.0,0.0,0.0,0.0,0.0,0.0,0.0,0.0,-1.565,-1.8874,-2.1465,-2.3435,-2.4761,-2.5107,-2.5278,-2.5381,-2.4853,-2.3856,-2.2378,0.0,0.0,0.0,0.0,0.0,0.0,0.0,0.0,0.0,0.0,0.0,0.0,0.0,0.0,0.0,0.0,0.0,0.0,0.0,0.0,0.0,0.0,0.0,0.0,0.0,0.0,-1.0555,-0.9942,-0.9522,0.0,0.0,0.0,0.0,0.0,0.0,0.0,0.0,0.0,0.0,-2.0374,-2.1639,-2.2361,-2.2842,-2.302,-2.2825,-2.2799,-2.2863,-2.3095,-2.2945,-2.2365,0.0,0.0,0.0,0.0,0.0,0.0,0.0,0.0,0.0,0.0,0.0,0.0,0.0,0.0,0.0,0.0,0.0,0.0,0.0,0.0,0.0,0.0,0.0,0.0,0.0,0.0,0.0,-1.4691,-1.4337,0.0,0.0,0.0,0.0,0.0,0.0,0.0,0.0,0.0,0.0,0.0,-2.0511,-2.1071,0.0,0.0,0.0,0.0,0.0,0.0,0.0,0.0,0.0,0.0,0.0,0.0,-1.6954,-2.0164,-2.235,-2.4264,-2.5852,-2.5527,-2.5601,-2.6158,-2.5134,-2.3519,-2.1396,0.0,0.0,0.0,0.0,0.0,0.0,0.0,0.0,0.0,0.0,0.0,0.0,0.0,0.0,0.0,0.0,0.0,0.0,0.0,0.0,0.0,0.0,0.0,0.0,0.0,-1.0586,0.0,0.0,0.0,0.0,0.0,0.0,0.0,0.0,0.0,0.0,0.0,-2.0372,-1.9542,-2.1147,-2.2343,-2.2262,-2.2508,-2.2725,0.0,0.0,0.0,0.0,0.0,0.0,0.0,0.0,0.0,0.0,0.0,0.0,0.0,0.0,-1.9815,-1.6529,-1.5669,-1.5391,-1.521,0.0,0.0,0.0,0.0,0.0,0.0,0.0,0.0,0.0,0.0,0.0,0.0,0.0,0.0,-1.789,0.0,-1.7008,0.0,0.0,0.0,0.0,0.0,0.0,0.0,0.0,-2.0877,-2.2269,-2.3402,-2.372,-2.3817,0.0,-2.297,-2.0894,0.0,0.0,0.0,0.0,0.0,0.0,0.0,0.0,-1.8135,-2.116,-2.3294,-2.5144,-2.6684,-2.633,-2.6371,-2.6891,-2.5243,-2.3457,-2.1622,-2.0607,-1.9306,0.0,0.0,0.0,0.0,0.0,0.0,0.0,0.0,0.0,0.0,0.0,0.0,0.0,0.0,0.0,0.0,0.0,0.0,0.0,0.0,0.0,0.0,0.0,-1.1256,0.0,0.0,0.0,0.0,0.0,0.0,0.0,0.0,0.0,-1.594,-1.9759,-2.219,-2.1273,-2.2278,-2.2951,-2.245,0.0,0.0,0.0,0.0,0.0,0.0,0.0,-2.2723,-2.3063,-2.226,-2.1282,-2.0411,-2.099,-2.1228,-2.017,0.0,0.0,-1.8823,-1.8078,-1.7878,-1.7642,-1.7536,-1.7426,-1.7352,-1.742,-1.7492,0.0,0.0,0.0,0.0,0.0,0.0,0.0,0.0,-2.0883,-2.1172,0.0,-2.0607,0.0,0.0,0.0,0.0,-1.7916,-2.0636,0.0,0.0,-2.4249,-2.5624,-2.6267,-2.5887,-2.6422,-2.7778,-2.7331,-2.593,-2.3568,-1.8967,0.0,0.0,0.0,0.0,0.0,0.0,-1.9241,-2.1917,-2.4254,-2.6077,-2.7357,-2.7514,-2.7567,-2.7462,-2.523,-2.3685,-2.3034,-2.1918,-2.045,-1.852,-1.7215,0.0,0.0,0.0,0.0,0.0,0.0,0.0,0.0,0.0,0.0,0.0,0.0,0.0,0.0,0.0,0.0,0.0,0.0,0.0,0.0,-1.2778,0.0,0.0,0.0,0.0,0.0,0.0,0.0,0.0,0.0,0.0,-1.8956,-2.0325,-2.19,-2.3718,0.0,0.0,0.0,0.0,-2.3022,-2.3562,-2.3802,-2.4267,-2.5221,-2.4566,-2.4153,-2.4838,0.0,0.0,-2.0509,-2.1299,-2.1837,-2.0386,-2.152,-2.2677,-2.2772,-2.1823,-2.1151,-2.0976,-2.0283,-1.9853,-2.0042,-2.0298,-2.0637,-2.6926,0.0,0.0,0.0,0.0,-2.5378,-2.6024,-2.7417,-2.7066,-2.6161,-2.4811,-2.42,0.0,0.0,0.0,0.0,0.0,0.0,-2.4763,-2.5808,-2.7412,-2.8552,-2.9248,-2.9131,-2.9161,-2.9301,-2.9167,-2.8591,-2.7634,-2.5774,-2.2193,-1.7121,0.0,0.0,0.0,0.0,-2.1875,-2.4311,-2.5964,-2.75,-2.9058,-2.8125,-2.727,-2.6613,-2.4909,-2.3934,-2.3782,-2.2877,-2.1901,-2.0848,-1.9767,0.0,0.0,0.0,0.0,0.0,0.0,0.0,0.0,0.0,0.0,0.0,0.0,0.0,0.0,0.0,0.0,0.0,0.0,0.0,-1.2585,-1.273,-1.3071,0.0,0.0,0.0,0.0,0.0,0.0,0.0,0.0,0.0,-2.2305,-2.3333,-2.3965,0.0,0.0,-2.4429,-2.3768,-2.3801,-2.4007,-2.4345,-2.4566,0.0,-2.507,-2.4781,-2.4572,-2.4688,-2.4047,-2.3073,-2.1784,-2.1981,-2.22,-2.1865,-2.2444,-2.3047,-2.3248,-2.3004,-2.2638,-2.24,-2.2358,-2.2263,-2.1994,-2.2115,-2.2232,-3.1049,-2.9416,-2.8649,-2.885,-2.9549,-2.8575,-2.887,-3.0042,-2.9579,-2.8876,-2.7994,-2.7707,-2.6639,-2.4971,-2.3577,0.0,0.0,0.0,-2.675,-2.8177,-2.9003,-2.9926,-3.0903,-3.0936,-3.1143,-3.1417,-3.1155,-3.0809,-3.0392,-2.9498,-2.6419,-2.1387,0.0,0.0,-1.9929,-2.1389,-2.3076,-2.4924,-2.6168,-2.7608,-2.9302,-2.842,-2.7361,-2.6235,-2.4762,-2.4033,-2.4081,-2.3268,-2.2631,-2.2244,-2.1299,-1.9829,0.0,0.0,0.0,0.0,0.0,0.0,0.0,0.0,0.0,0.0,0.0,-1.1915,-1.0594,0.0,0.0,0.0,-1.2236,-1.3173,-1.4306,-1.4736,0.0,0.0,0.0,0.0,0.0,0.0,0.0,-2.014,-2.1593,-2.2971,-2.4413,-2.5246,-2.5495,-2.4961,-2.5096,-2.5063,-2.4497,0.0,-2.4515,-2.5082,-2.5326,-2.5594,-2.5903,-2.5803,-2.5552,-2.503,-2.4338,-2.3564,-2.2784,-2.2542,-2.2501,-2.2611,-2.2955,-2.3295,-2.3463,-2.3434,-2.3364,-2.3277,-2.3301,-2.3277,-2.3157,-2.3061,-2.3,-3.3852,-3.4917,-3.2899,-3.2067,-3.1896,-3.0522,-2.9963,-2.991,-2.9877,-3.0129,-3.0609,-3.084,-3.0858,-3.057,-2.8582,0.0,-2.8442,-2.7848,-2.831,-2.9579,-2.9678,-3.0456,-3.1747,-3.1846,-3.258,-3.3839,-3.3176,-3.2681,-3.2287,-3.1165,-2.9288,-2.6818,-2.5638,-2.4004,-2.2139,-2.2705,-2.3552,-2.4581,-2.5701,-2.7018,-2.8556,-2.8408,-2.763,-2.6137,-2.4746,-2.4016,-2.3996,-2.3247,-2.2848,-2.29,-2.2125,-2.0934,-1.924,0.0,0.0,0.0,0.0,0.0,0.0,0.0,0.0,0.0,0.0,0.0,0.0,0.0,0.0,0.0,-1.502,0.0,-1.7156,-1.7947,0.0,0.0,0.0,-1.7618,-1.9035,-2.0173,-2.1431,-2.2938,0.0,0.0,-2.5596,-2.6202,-2.652,-2.6273,-2.5848,-2.5497,-2.5227,-2.478,-2.4819,-2.58,-2.6119,-2.6513,-2.7002,-2.6998,-2.6516,-2.5561,-2.4953,-2.426,-2.3407,-2.3008,-2.2752,-2.2638,-2.3121,-2.3504,-2.3504,-2.3504,-2.3542,-2.3678,-2.3388,-2.3206,-2.3495,-2.3365,-2.3242,-3.6495,-3.6552,-3.6269,-3.6026,-3.5727,-3.4833,-3.4435,-3.4386,-3.3839,-3.2762,-3.135,-3.1414,-3.0526,-2.8987,-2.8455,-2.8547,-2.9185,-2.9582,-3.0224,-3.1118,-3.2232,-3.2945,-3.3292,-3.3839,-3.4303,-3.4618,-3.4452,-3.4346,-3.4211,-3.3928,-3.2309,-2.9539,-2.9534,-2.7907,-2.4691,-2.5632,-2.6414,-2.6892,-2.7665,-2.7928,-2.7641,-2.7573,-2.6904,-2.5478,-2.4547,-2.3896,-2.3499,-2.3081,-2.294,-2.3061,-2.3159,-2.2256,-2.0101,-1.8141,0.0,0.0,0.0,0.0,0.0,0.0,0.0,0.0,0.0,-1.4502,-1.1848,0.0,-1.5336,0.0,-1.6904,-1.8235,-1.8975,-1.8708,0.0,0.0,-2.0315,-2.0403,-2.2966,-2.2733,-2.3034,-2.4693,-2.5195,-2.5714,-2.6551,-2.6623,-2.6589,-2.6503,-2.642,-2.6252,-2.5974,-2.5823,-2.5897,-2.6337,-2.6618,-2.68,-2.6791,-2.6708,-2.6354,-2.543,-2.5262,-2.4773,-2.3324,-2.3265,-2.3247,-2.2877,-2.3158,-2.347,-2.3504,-2.3504,-2.3435,-2.3324,-2.3182,-2.3072,-2.2998,-2.3176,-2.3371,-3.7053,-3.7651,-3.7986,-3.8212,-3.8229,-3.6469,-3.5656,-3.5479,-3.5065,-3.4296,-3.3284,-3.3284,-3.2552,-3.1293,-3.0945,-3.1011,-3.1371,-3.1416,-3.1885,-3.263,-3.3477,-3.4047,-3.4396,-3.4811,-3.5018,-3.5065,-3.5018,-3.5018,-3.5065,-3.4811,-3.363,-3.1645,-3.1771,-3.0518,-2.8037,-2.752,-2.7295,-2.7322,-2.7836,-2.774,-2.6993,-2.7226,-2.6695,-2.5296,-2.4529,-2.3859,-2.3306,-2.3049,-2.2795,-2.2593,-2.3045,-2.2564,-2.0934,-1.9303,-1.7646,0.0,0.0,0.0,0.0,0.0,0.0,0.0,0.0,0.0,0.0,0.0,-1.6942,-1.777,-1.9154,-2.0721,-2.2435,-2.1949,-2.2188,-2.382,-2.2909,-2.2971,-2.4856,-2.436,-2.4365,-2.5647,-2.5916,-2.6235,-2.6906,-2.6858,-2.6792,-2.6775,-2.6691,-2.652,-2.6257,-2.6185,-2.6292,-2.6571,-2.6742,-2.6792,-2.6674,-2.6555,-2.6351,-2.5916,-2.5631,-2.5059,-2.3808,-2.3665,-2.3536,-2.2976,-2.3134,-2.3453,-2.3463,-2.3277,-2.3102,-2.296,-2.282,-2.2799,-2.2876,-2.3121,-2.3271,-3.6928,-3.8446,-3.8806,-3.9193,-3.9438,-3.6953,-3.5626,-3.5181,-3.5112,-3.5182,-3.5358,-3.5341,-3.5136,-3.4795,-3.418,-3.3835,-3.3763,-3.3027,-3.3027,-3.368,-3.3977,-3.4495,-3.5088,-3.5088,-3.5175,-3.5291,-3.5075,-3.5025,-3.5134,-3.4728,-3.4095,-3.3328,-3.2959,-3.2311,-3.124,-2.9146,-2.7741,-2.706,-2.7296,-2.715,-2.6519,-2.707,-2.6735,-2.5364,-2.4611,-2.3954,-2.3338,-2.3066,-2.2655,-2.2113,-2.2558,-2.2472,-2.1648,-2.0192,-1.9217,0.0,-1.7447,0.0,0.0,0.0,0.0,0.0,0.0,0.0,0.0,-1.8271,-1.8784,-2.0391,-2.1638,-2.338,-2.5877,-2.562,-2.5317,-2.5261,-2.5048,-2.5117,-2.561,-2.5464,-2.5543,-2.6173,-2.6468,-2.6759,-2.7022,-2.7022,-2.7006,-2.6957,-2.6708,-2.645,-2.6239,-2.6185,-2.6274,-2.652,-2.6571,-2.6589,-2.6674,-2.6623,-2.6503,-2.6488,-2.6084,-2.5344,-2.4392,-2.4142,-2.38,-2.302,-2.3061,-2.3348,-2.34,-2.3015,-2.2712,-2.2659,-2.2487,-2.2487,-2.2833,-2.3047,-2.3182,-3.8598,-3.9052,-3.9506,-3.9067,-3.8156,-3.8455,-3.7846,-3.6663,-3.6348,-3.574,-3.5006,-3.4998,-3.4783,-3.441,-3.4314,-3.4125,-3.3779,-3.305,-3.2785,-3.295,-3.4276,-3.4955,-3.5088,-3.5088,-3.5175,-3.5258,-3.4541,-3.4274,-3.4415,-3.4891,-3.4532,-3.3404,-3.3775,-3.3383,-3.2286,0.0,0.0,0.0,-2.7821,-2.7222,-2.6553,-2.6636,-2.6285,-2.5479,-2.474,0.0,-2.3427,-2.318,-2.3009,-2.2898,-2.3343,0.0,0.0,0.0,0.0,0.0,0.0,0.0,0.0,0.0,0.0,0.0,-1.926,-1.8984,-1.9388,-2.1523,-2.302,-2.3379,-2.423,-2.4949,-2.5489,-2.5441,-2.5624,-2.6226,-2.6063,-2.6132,-2.6649,-2.6455,-2.6386,-2.6503,-2.6759,-2.7022,-2.7231,-2.7135,-2.7006,-2.6957,-2.6572,-2.6274,-2.6203,-2.6185,-2.6203,-2.6274,-2.6329,-2.6469,-2.6724,-2.6657,-2.6555,-2.6503,-2.6487,-2.5799,-2.4544,-2.4601,-2.4292,-2.2882,-2.3007,-2.3289,-2.2952,-2.2747,-2.2636,-2.2436,-2.2338,-2.2338,-2.2446,-2.2807,-2.3121,-3.9513,-3.9839,-4.0267,-4.002,0.0,-3.9907,-3.9412,-3.8192,-3.8184,-3.7631,-3.6674,-3.5801,-3.5496,-3.5639,-3.4941,-3.4762,-3.4866,-3.4485,-3.4518,-3.4923,-3.5861,-3.6267,-3.6284,-3.6355,-3.6451,-3.6528,-3.5679,-3.5159,-3.4897,-3.4919,-3.4549,-3.3844,-3.4214,-3.4068,-3.3401,-3.3379,-3.2015,-2.9307,-2.8217,-2.7311,-2.664,-2.6589,-2.627,-2.5578,-2.5206,0.0,0.0,0.0,0.0,0.0,0.0,0.0,0.0,-2.2059,0.0,-2.1001,-2.0551,-2.0287,-2.023,-2.0188,-2.0844,-2.2406,-2.2886,-2.2586,-2.14,-2.34,-2.4904,-2.532,-2.5729,-2.6139,-2.649,-2.6542,-2.6683,-2.7072,-2.6934,-2.6864,-2.6953,-2.6775,-2.6537,-2.6451,-2.6759,-2.7023,-2.7006,-2.7022,-2.694,-2.6809,-2.6451,-2.6185,-2.6185,-2.6185,-2.6203,-2.624,-2.6346,-2.6434,-2.6606,-2.664,-2.6589,-2.6571,-2.6554,-2.6067,-2.4962,-2.4743,-2.432,-2.3198,-2.2967,-2.2876,-2.2764,-2.2582,-2.2405,-2.2282,-2.2257,-2.2324,-2.2429,-2.2794,-2.3157,-4.0136,-4.0587,-4.0937,-4.1071,-4.0984,-4.0984,-4.048,-3.9613,-3.9661,0.0,0.0,-3.7242,-3.6869,-3.72,-3.5944,-3.5618,-3.5992,-3.6017,-3.6348,-3.697,-3.7494,-3.7734,-3.7718,-3.7706,-3.7769,-3.7848,-3.701,-3.6335,-3.5802,-3.5064,-3.4715,-3.4734,-3.458,-3.4513,-3.4492,-3.3921,-3.2587,-3.0566,-2.907,-2.7857,-2.6928,-2.6759,-2.642,-2.5828,-2.5644,-2.5002,-2.3818,-2.4119,-2.3741,-2.2579,-2.2844,-2.3034,-2.3067,-2.2832,-2.2915,-2.3418,-2.3336,-2.3287,-2.3312,-2.3318,-2.3664,-2.4449,-2.5805,-2.5764,-2.3772,-2.4863,-2.5963,-2.6609,-2.6705,-2.6979,-2.7589,-2.7669,-2.7716,-2.7701,-2.7524,-2.7277,-2.7038,-2.6759,-2.6502,-2.631,-2.6623,-2.6859,-2.6657,-2.6809,-2.6842,-2.6623,-2.638,-2.622,-2.6221,-2.6205,-2.6258,-2.6347,-2.6434,-2.6502,-2.652,-2.6537,-2.6589,-2.6589,-2.6537,-2.6234,-2.5497,-2.4791,-2.4159,-2.3466,-2.2864,-2.2566,-2.2596,-2.2422,-2.2211,-2.224,-2.2268,-2.2363,-2.2668,-2.2973,-2.3224,-4.0618,-4.11,-4.1391,-4.13,-4.0984,-4.0984,-4.0908,-4.0654,-3.9508,-3.9046,-3.9188,-3.9284,-3.8871,-3.803,-3.7537,-3.68,-3.6009,-3.6122,-3.6237,-3.6428,-3.7893,-3.8622,-3.8571,-3.799,-3.7776,-3.7814,-3.701,-3.6629,-3.6535,-3.5825,-3.5769,-3.6157,-3.5148,-3.481,-3.5307,-3.4704,-3.3863,-3.2912,-3.1463,-2.9696,-2.7723,-2.7012,-2.6657,-2.6522,-2.5881,-2.5444,-2.5208,-2.4876,-2.472,-2.4737,-2.4954,-2.5151,-2.5301,-2.458,-2.4173,-2.4118,-2.3513,-2.343,-2.4062,-2.4115,-2.4449,-2.5191,-2.609,-2.6426,-2.6079,-2.6678,-2.7157,-2.7261,-2.7259,-2.7328,-2.7465,-2.7597,-2.7716,-2.7701,-2.7524,-2.7293,-2.7022,-2.6759,-2.6486,-2.6239,-2.6468,-2.6657,-2.6589,-2.664,-2.6657,-2.6571,-2.6345,-2.6221,-2.6259,-2.6278,-2.6365,-2.6503,-2.652,-2.6537,-2.6537,-2.652,-2.652,-2.652,-2.6502,-2.6217,-2.538,-2.4822,-2.4173,-2.3328,-2.279,-2.2521,-2.2405,-2.2282,-2.2268,-2.2377,-2.247,-2.2668,-2.3035,-2.3307,-2.347,-4.0984,-4.1232,-4.1493,-4.1515,-4.1318,-4.1318,-4.134,-4.1271,-4.063,-4.0246,-4.0032,-3.9318,-3.8601,-3.796,-3.7211,-3.6835,-3.6688,-3.6436,-3.6525,-3.6993,-3.822,-3.879,-3.879,-3.894,-3.9031,-3.9039,-3.8263,-3.752,-3.6772,-3.5994,-3.538,-3.4979,-3.4624,-3.4861,-3.5515,-3.5261,-3.4742,-3.3964,-3.1743,-2.9912,-2.8467,-2.73,-2.6708,-2.6708,-2.6303,-2.5899,-2.5529,-2.5364,-2.5259,-2.5212,-2.5295,-2.5473,-2.5758,-2.5295,-2.4971,-2.4875,-2.4559,-2.4506,-2.4888,-2.5314,-2.57,-2.6068,-2.6753,-2.7177,-2.7166,-2.7302,-2.7404,-2.7404,-2.7404,-2.7404,-2.7404,-2.7585,-2.7716,-2.7716,-2.7524,-2.7294,-2.7022,-2.6775,-2.6486,-2.6274,-2.6433,-2.6537,-2.6398,-2.652,-2.6537,-2.6415,-2.6257,-2.6239,-2.6278,-2.6312,-2.6348,-2.6503,-2.6554,-2.652,-2.6452,-2.6468,-2.6468,-2.6399,-2.6382,-2.6081,-2.533,-2.4726,-2.399,-2.3208,-2.2603,-2.2268,-2.2149,-2.2206,-2.2293,-2.2377,-2.2592,-2.285,-2.3175,-2.3463,-2.3653,-4.1209,-4.1232,-4.1475,-4.1604,-4.1604,-4.1604,-4.1542,-4.1453,-4.1475,-4.1241,-4.0643,-3.9312,-3.8493,-3.7956,-3.6933,-3.6711,-3.6953,-3.6616,-3.6762,-3.7349,-3.8169,-3.868,-3.8907,-3.9555,-3.9876,-3.9825,-3.9436,-3.8548,-3.732,-3.6349,-3.5109,-3.3863,-3.4218,-3.4878,-3.56,-3.5616,-3.5334,-3.4624,-3.2188,-3.0328,-2.9247,-2.7588,-2.6708,-2.6674,-2.6623,-2.6286,-2.5748,-2.5844,-2.5838,-2.5689,-2.5697,-2.591,-2.6245,-2.5888,-2.5651,-2.5665,-2.5489,-2.5476,-2.57,-2.6388,-2.6844,-2.6858,-2.7368,-2.7716,-2.7686,-2.7463,-2.731,-2.731,-2.731,-2.731,-2.7324,-2.7552,-2.7716,-2.7686,-2.7463,-2.7231,-2.7006,-2.6725,-2.645,-2.6273,-2.638,-2.6399,-2.6292,-2.638,-2.6415,-2.6273,-2.6185,-2.6222,-2.6294,-2.6312,-2.633,-2.6416,-2.6486,-2.6486,-2.633,-2.6364,-2.6399,-2.6347,-2.6216,-2.5916,-2.5313,-2.4578,-2.3779,-2.3123,-2.2503,-2.2157,-2.2099,-2.2203,-2.2346,-2.2453,-2.2651,-2.2905,-2.3307,-2.358,-2.3753,-4.1209,-4.1232,-4.1493,-4.1604,-4.1604,-4.1604,-4.1408,-4.1117,-4.1186,-4.1059,-4.0739,-4.0504,-3.9722,-3.8688,-3.7793,-3.7043,-3.6428,-3.6501,-3.6619,-3.6777,-3.758,-3.8321,-3.8879,-3.9073,-3.9089,-3.9191,-3.969,-3.952,-3.8616,-3.7286,-3.5898,-3.4556,-3.4455,-3.4844,-3.5515,-3.56,-3.5566,-3.5464,-3.3931,-3.2087,-3.0023,-2.7824,-2.6674,-2.6606,-2.6554,-2.6434,-2.6214,-2.6472,-2.6721,-2.699,-2.7141,-2.7417,-2.7635,-2.6975,-2.6476,-2.6472,-2.584,-2.5717,-2.6441,-2.7174,-2.7575,-2.7613,-2.7646,-2.7716,-2.7686,-2.7291,-2.7038,-2.707,-2.7054,-2.7054,-2.707,-2.7446,-2.7686,-2.7657,-2.7307,-2.7022,-2.694,-2.6555,-2.6221,-2.622,-2.6239,-2.6221,-2.6203,-2.6239,-2.6239,-2.6203,-2.6185,-2.6221,-2.6277,-2.6295,-2.6313,-2.6313,-2.633,-2.6348,-2.6295,-2.6258,-2.6346,-2.647,-2.6084,-2.5793,-2.545,-2.4518,-2.3388,-2.3085,-2.2707,-2.2296,-2.2276,-2.2363,-2.2457,-2.269,-2.2867,-2.3032,-2.3544,-2.3764,-2.3761,-4.169,-4.134,-4.152,-4.1604,-4.1604,-4.1604,-4.1565,-4.1529,-4.1591,-4.1311,-4.0849,-4.0913,-4.0528,-3.9678,-3.8722,-3.7851,-3.7097,-3.6835,-3.6432,-3.6112,-3.685,-3.7438,-3.776,-3.8616,-3.8988,-3.9056,-3.9757,-3.9723,-3.8785,-3.7043,-3.5774,-3.5143,-3.4726,-3.4658,-3.4979,-3.538,-3.5616,-3.5566,-3.415,-3.2747,-3.1326,-2.9213,-2.7807,-2.7332,-2.679,-2.6502,-2.6417,-2.6555,-2.6808,-2.7182,-2.7357,-2.7617,-2.7968,-2.7507,-2.7245,-2.7245,-2.6946,-2.6911,-2.7227,-2.7543,-2.7716,-2.7716,-2.7716,-2.7716,-2.7686,-2.7276,-2.7071,-2.7182,-2.712,-2.7054,-2.723,-2.7507,-2.7639,-2.7524,-2.7197,-2.694,-2.6775,-2.6434,-2.6185,-2.6185,-2.6185,-2.6203,-2.6185,-2.6185,-2.6185,-2.6185,-2.6185,-2.6205,-2.624,-2.6277,-2.6312,-2.6331,-2.6487,-2.6487,-2.6347,-2.6364,-2.6503,-2.664,-2.6636,-2.647,-2.5426,-2.4861,-2.3925,-2.2954,-2.2536,-2.229,-2.22,-2.248,-2.2699,-2.2922,-2.3242,-2.3457,-2.3753,-2.3795,-2.371,-4.1835,-4.1461,-4.1538,-4.1604,-4.1604,-4.1604,-4.1547,-4.1529,-4.164,-4.1373,-4.0825,-4.096,-4.0866,-4.0484,-3.9383,-3.8529,-3.7956,-3.7165,-3.6485,-3.6011,-3.6315,-3.6569,-3.6914,-3.7821,-3.8497,-3.8785,-3.9453,-3.952,-3.8836,-3.7188,-3.6124,-3.5842,-3.4962,-3.4607,-3.481,-3.5194,-3.5397,-3.5498,-3.4506,-3.3643,-3.275,-3.0939,-2.9228,-2.7907,-2.7161,-2.6721,-2.6468,-2.664,-2.6859,-2.7151,-2.7355,-2.76,-2.7896,-2.7774,-2.7716,-2.7716,-2.7716,-2.7716,-2.7716,-2.7716,-2.7716,-2.7716,-2.7716,-2.7716,-2.7642,-2.7355,-2.7246,-2.7432,-2.7261,-2.7215,-2.7388,-2.7585,-2.7597,-2.7419,-2.7151,-2.6891,-2.664,-2.6415,-2.6274,-2.6238,-2.6274,-2.6274,-2.6203,-2.6185,-2.6185,-2.6185,-2.6185,-2.6185,-2.6203,-2.6259,-2.6314,-2.6418,-2.6708,-2.6741,-2.6487,-2.6674,-2.6858,-2.6966,-2.7099,-2.6539,-2.5394,-2.4901,-2.4127,-2.2863,-2.2493,-2.2343,-2.2354,-2.2615,-2.2859,-2.3096,-2.3383,-2.3693,-2.3792,-2.3813,-2.3667,-4.1312,-4.1403,-4.1538,-4.1604,-4.1604,-4.1604,-4.1192,-4.0713,-4.1076,-4.1076,-4.0825,-4.0621,-4.0765,-4.1001,-3.9654,-3.8914,-3.8579,-3.7418,-3.6812,-3.6603,-3.6011,-3.6079,-3.6778,-3.688,-3.728,-3.799,-3.8785,-3.9106,-3.8988,-3.8193,-3.7432,-3.6677,-3.5267,-3.4844,-3.5216,-3.4844,-3.4912,-3.5397,-3.5397,-3.5081,-3.4269,-3.2886,-3.0712,-2.8207,-2.7666,-2.7191,-2.6534,-2.6825,-2.707,-2.7005,-2.7446,-2.7701,-2.773,-2.7751,-2.7768,-2.7701,-2.7719,-2.7733,-2.7716,-2.7716,-2.7716,-2.7716,-2.7716,-2.7716,-2.7701,-2.7494,-2.7448,-2.7657,-2.7478,-2.7373,-2.7434,-2.7582,-2.7597,-2.7371,-2.7151,-2.6875,-2.6606,-2.6537,-2.645,-2.6309,-2.638,-2.6398,-2.6221,-2.6185,-2.6185,-2.6185,-2.6185,-2.6185,-2.6221,-2.6259,-2.6453,-2.6691,-2.6856,-2.6888,-2.6905,-2.7099,-2.7396,-2.7525,-2.7238,-2.6666,-2.564,-2.4655,-2.3721,-2.2911,-2.2702,-2.2599,-2.2586,-2.2717,-2.2925,-2.3182,-2.3486,-2.3725,-2.3803,-2.3813,-2.3667,-4.23,-4.1555,-4.1582,-4.1604,-4.1604,-4.1604,-4.152,-4.1356,-4.1328,-4.1351,-4.1271,-4.0825,-4.0659,-4.0767,-4.0056,-3.942,-3.8863,-3.7915,-3.7246,-3.6761,-3.596,-3.5735,-3.6062,-3.6535,-3.6914,-3.7313,-3.8413,-3.9242,-3.9605,-3.8954,-3.7973,-3.6806,-3.5723,-3.4923,-3.4349,-3.4404,-3.4641,-3.4912,-3.5329,-3.5228,-3.4573,-3.3986,-3.2472,-3.0053,-2.846,-2.7548,-2.7208,-2.7147,-2.7103,-2.707,-2.7459,-2.7716,-2.7768,-2.8193,-2.8228,-2.7806,-2.8175,-2.8245,-2.7804,-2.7716,-2.7716,-2.7716,-2.7716,-2.7716,-2.7672,-2.7539,-2.7496,-2.7612,-2.7524,-2.7432,-2.7585,-2.7657,-2.7552,-2.7197,-2.7054,-2.6842,-2.6451,-2.6345,-2.6292,-2.6221,-2.6292,-2.6292,-2.6239,-2.6185,-2.6185,-2.6185,-2.6185,-2.6203,-2.6258,-2.6453,-2.6724,-2.6921,-2.7315,-2.7675,-2.7672,-2.7619,-2.7728,-2.7848,-2.7704,-2.7428,-2.6678,-2.5883,-2.5021,-2.3936,-2.3442,-2.3039,-2.3096,-2.3119,-2.3272,-2.3393,-2.3703,-2.3736,-2.3795,-2.3803,-2.3646,-4.2706,-4.1692,-4.1604,-4.1604,-4.1604,-4.1604,-4.1653,-4.1723,-4.1596,-4.1618,-4.16,-4.1208,-4.0932,-4.0761,-4.0458,-3.9966,-3.9266,-3.8362,-3.7635,-3.7077,-3.6073,-3.5616,-3.5684,-3.6146,-3.6558,-3.6998,-3.8294,-3.9259,-3.969,-3.9503,-3.8565,-3.7178,-3.6107,-3.5013,-3.4015,-3.4049,-3.4235,-3.4556,-3.5211,-3.5351,-3.4895,-3.4624,-3.3812,-3.2239,-3.0253,-2.878,-2.8105,-2.7452,-2.7255,-2.7426,-2.7616,-2.7716,-2.7768,-2.821,-2.828,-2.7841,-2.8193,-2.828,-2.7821,-2.7716,-2.7716,-2.7716,-2.7716,-2.7716,-2.7683,-2.7585,-2.76,-2.7627,-2.76,-2.7569,-2.7657,-2.7716,-2.7522,-2.7119,-2.7006,-2.6792,-2.6309,-2.6292,-2.6328,-2.6328,-2.6257,-2.6203,-2.6185,-2.6185,-2.6185,-2.6185,-2.6185,-2.6221,-2.6417,-2.6657,-2.705,-2.7253,-2.7718,-2.8047,-2.8129,-2.8124,-2.8101,-2.8188,-2.8025,-2.7856,-2.7396,-2.6745,-2.5974,-2.4975,-2.4287,-2.3819,-2.3602,-2.3606,-2.3673,-2.3757,-2.3725,-2.3736,-2.3761,-2.3782,-2.3624,-4.2372,-4.171,-4.1604,-4.1604,-4.1604,-4.1692,-4.1573,-4.1608,-4.1846,-4.2035,-4.207,-4.1894,-4.1655,-4.1261,-4.0933,-4.0517,-3.9824,-3.8616,-3.7939,-3.7669,-3.6276,-3.5616,-3.5616,-3.5684,-3.6146,-3.6829,-3.8227,-3.8937,-3.9106,-3.9546,-3.9157,-3.7855,-3.6326,-3.5194,-3.4455,-3.3795,-3.3744,-3.4404,-3.5098,-3.5498,-3.5515,-3.4928,-3.4472,-3.415,-3.2797,-3.11,-2.9046,-2.793,-2.7615,-2.8028,-2.7859,-2.7719,-2.7733,-2.7859,-2.7771,-2.7754,-2.7786,-2.7754,-2.7733,-2.7716,-2.7716,-2.7716,-2.7716,-2.7716,-2.7701,-2.7686,-2.7686,-2.7701,-2.7701,-2.7701,-2.7701,-2.7716,-2.7504,-2.7085,-2.7006,-2.6758,-2.6398,-2.645,-2.6605,-2.6587,-2.6462,-2.6236,-2.6219,-2.6202,-2.6202,-2.6185,-2.624,-2.6365,-2.6674,-2.6922,-2.7269,-2.7718,-2.8061,-2.8286,-2.8448,-2.8587,-2.8562,-2.8505,-2.821,-2.7915,-2.7238,-2.658,-2.5875,-2.4962,-2.4439,-2.4013,-2.4334,-2.433,-2.4088,-2.4091,-2.3963,-2.379,-2.3779,-2.3771,-2.3653,-4.3131,-4.2394,-4.1815,-4.1604,-4.1674,-4.2201,-4.2407,-4.2437,-4.2921,-4.3354,-4.3492,-4.2929,-4.2462,-4.2073,-4.1449,-4.0722,-4.0028,-3.9073,-3.8396,-3.7736,-3.6326,-3.5633,-3.5633,-3.5616,-3.6011,-3.6761,-3.7252,-3.8024,-3.887,-3.9242,-3.9039,-3.8362,-3.662,-3.5261,-3.4455,-3.3343,-3.3,-3.3744,-3.4472,-3.5081,-3.5532,-3.538,-3.503,-3.4438,-3.3541,-3.26,-3.1793,-2.9876,-2.8647,-2.8288,-2.7879,-2.7716,-2.7789,-2.8228,-2.8278,-2.7841,-2.8245,-2.8228,-2.7786,-2.7716,-2.7716,-2.7716,-2.7716,-2.7716,-2.7716,-2.7716,-2.7716,-2.7716,-2.7716,-2.7716,-2.7716,-2.7716,-2.7507,-2.7037,-2.7006,-2.6775,-2.6394,-2.6708,-2.7045,-2.7095,-2.7022,-2.6967,-2.6868,-2.6634,-2.6318,-2.6289,-2.6467,-2.6708,-2.6858,-2.7321,-2.7663,-2.7982,-2.8219,-2.8396,-2.8435,-2.8396,-2.8299,-2.8219,-2.8006,-2.7844,-2.7181,-2.6462,-2.5736,-2.5281,-2.4741,-2.464,-2.4954,-2.4969,-2.4736,-2.4381,-2.4168,-2.4006,-2.3854,-2.3728,-2.3638,-4.3289,-4.2342,-4.1815,-4.1604,-4.171,-4.2464,-4.2843,-4.3017,-4.364,-4.4122,-4.4218,-4.3699,-4.2995,-4.2369,-4.1719,-4.0951,-4.0087,-3.9343,-3.8751,-3.8125,-3.6755,-3.6062,-3.6045,-3.6062,-3.6062,-3.6366,-3.666,-3.7422,-3.8565,-3.887,-3.8988,-3.865,-3.728,-3.5774,-3.459,-3.3647,-3.3207,-3.3186,-3.4003,-3.4607,-3.4856,-3.5312,-3.5245,-3.459,-3.4303,-3.3997,-3.3501,-3.1974,-3.0504,-2.9162,-2.8209,-2.7736,-2.7754,-2.8172,-2.821,-2.7929,-2.8087,-2.8193,-2.7771,-2.7716,-2.7716,-2.7716,-2.7716,-2.7716,-2.7716,-2.7716,-2.7716,-2.7716,-2.7716,-2.7716,-2.7716,-2.7716,-2.7522,-2.7198,-2.7054,-2.6758,-2.6427,-2.6851,-2.7251,-2.7334,-2.7514,-2.7647,-2.7564,-2.7398,-2.6882,-2.6773,-2.6959,-2.7332,-2.746,-2.7782,-2.8092,-2.8344,-2.854,-2.8557,-2.8383,-2.8215,-2.8037,-2.7865,-2.7692,-2.7592,-2.7237,-2.6509,-2.5797,-2.5807,-2.5459,-2.5504,-2.5762,-2.5588,-2.5358,-2.4925,-2.4493,-2.4145,-2.3934,-2.3779,-2.3689,-4.3061,-4.178,-4.1639,-4.1604,-4.171,-4.2482,-4.2919,-4.324,-4.4058,-4.4461,-4.4375,-4.4389,-4.3553,-4.2338,-4.2034,-4.1297,-4.0214,-3.9503,-3.9073,-3.8616,-3.7625,-3.6874,-3.6502,-3.6592,-3.6332,-3.591,-3.6349,-3.7077,-3.7855,-3.8497,-3.8954,-3.8853,-3.8075,-3.6874,-3.525,-3.4641,-3.3766,-3.3072,-3.385,-3.4083,-3.3761,-3.4788,-3.5284,-3.4658,-3.5109,-3.5054,-3.4325,-3.3703,-3.2582,-3.0554,-2.9025,-2.8401,-2.8049,-2.7927,-2.8208,-2.8085,-2.7859,-2.7824,-2.7736,-2.7716,-2.7716,-2.7716,-2.7716,-2.7716,-2.7716,-2.7716,-2.7771,-2.7877,-2.7771,-2.7751,-2.7821,-2.7751,-2.76,-2.7371,-2.707,-2.6725,-2.6426,-2.6984,-2.7497,-2.7663,-2.8028,-2.8442,-2.8442,-2.8326,-2.7947,-2.7679,-2.7753,-2.8185,-2.8507,-2.8714,-2.8826,-2.8928,-2.9024,-2.8643,-2.843,-2.8083,-2.7869,-2.7577,-2.738,-2.7274,-2.7126,-2.6442,-2.6208,-2.6207,-2.6239,-2.6336,-2.6444,-2.6292,-2.5977,-2.5519,-2.4992,-2.4402,-2.4156,-2.4138,-2.3938,-4.3658,-4.3202,-4.2078,-4.1604,-4.1727,-4.2442,-4.3022,-4.3565,-4.4777,-4.5205,-4.5348,-4.5536,-4.4708,-4.3578,-4.2561,-4.1723,-4.0857,-4.0121,-3.9486,-3.9005,-3.8667,-3.7381,-3.6366,-3.6518,-3.64,-3.5752,-3.587,-3.6332,-3.71,-3.7889,-3.8497,-3.8954,-3.8345,-3.7686,-3.6891,-3.5368,-3.4387,-3.388,-3.366,-3.3931,-3.4184,-3.4506,-3.4996,-3.5346,-3.5464,-3.5369,-3.4924,-3.4156,-3.2898,-3.1237,-3.1198,-3.0877,-3.028,-3.0192,-2.9895,-2.9334,-2.8842,-2.828,-2.7841,-2.7716,-2.7716,-2.7716,-2.7716,-2.7716,-2.7716,-2.7701,-2.7982,-2.828,-2.8122,-2.7999,-2.8351,-2.8122,-2.7661,-2.7151,-2.7011,-2.6875,-2.706,-2.7663,-2.8276,-2.8771,-2.9003,-2.9118,-2.9003,-2.881,-2.8489,-2.8433,-2.8747,-2.9161,-2.9483,-2.9695,-2.9801,-2.9562,-2.9444,-2.8865,-2.8415,-2.8032,-2.7669,-2.7338,-2.7101,-2.689,-2.6687,-2.6281,-2.6412,-2.6669,-2.6673,-2.6753,-2.7063,-2.7165,-2.6676,-2.6101,-2.5533,-2.4998,-2.4973,-2.4922,-2.4507,-4.3518,-4.2868,-4.1973,-4.1498,-4.1468,-4.2201,-4.2636,-4.2985,-4.406,-4.4782,-4.4991,-4.5104,-4.4665,-4.3818,-4.309,-4.2168,-4.1238,-4.0747,-4.0172,-3.9571,-3.9453,-3.8193,-3.6806,-3.6874,-3.6705,-3.5684,-3.5616,-3.6096,-3.6829,-3.755,-3.8278,-3.8903,-3.8903,-3.8531,-3.7753,-3.6721,-3.5368,-3.4675,-3.4286,-3.4218,-3.3626,-3.4201,-3.4438,-3.4771,-3.4901,-3.5144,-3.5407,-3.4942,-3.3845,-3.2598,-3.2318,-3.2177,-3.1774,-3.1703,-3.1212,-3.0229,-2.965,-2.893,-2.7947,-2.7716,-2.7716,-2.7716,-2.7716,-2.7894,-2.8122,-2.821,-2.8544,-2.9211,-2.8912,-2.9158,-2.9599,-2.9343,-2.8638,-2.7947,-2.7568,-2.7441,-2.7369,-2.7928,-2.8658,-2.9234,-2.9645,-2.9694,-2.9499,-2.9403,-2.9245,-2.9105,-2.9627,-3.0055,-3.0456,-3.0622,-3.065,-3.035,-2.9751,-2.9111,-2.8379,-2.7906,-2.7474,-2.7117,-2.694,-2.6725,-2.6556,-2.6302,-2.6665,-2.697,-2.7058,-2.7166,-2.7395,-2.7514,-2.721,-2.6637,-2.6096,-2.5804,-2.5757,-2.5947,-2.5477,-4.2973,-4.1727,-4.1639,-4.1363,-4.1169,-4.1752,-4.1961,-4.1965,-4.2699,-4.34,-4.3852,-4.3955,-4.4004,-4.3538,-4.3413,-4.2692,-4.1508,-4.1255,-4.0679,-4.0163,-3.974,-3.8708,-3.7178,-3.7466,-3.6941,-3.5819,-3.5616,-3.5994,-3.6637,-3.7415,-3.8193,-3.8819,-3.9537,-3.9368,-3.8514,-3.799,-3.684,-3.552,-3.547,-3.4793,-3.3778,-3.4201,-3.4467,-3.3984,-3.3977,-3.4651,-3.5318,-3.5433,-3.4812,-3.3686,-3.3108,-3.3108,-3.2932,-3.2809,-3.2195,-3.1143,-3.0773,-2.9948,-2.8368,-2.8193,-2.7982,-2.7982,-2.7912,-2.8175,-2.8825,-2.9035,-2.9351,-3.0124,-3.0141,-3.0232,-3.0658,-3.0715,-2.9902,-2.8925,-2.869,-2.826,-2.7909,-2.813,-2.8757,-2.935,-3.0046,-3.0079,-2.9965,-3.0179,-3.0564,-3.0127,-3.0577,-3.0992,-3.1295,-3.1422,-3.1324,-3.1034,-3.0272,-2.9321,-2.8539,-2.7759,-2.7308,-2.6923,-2.6825,-2.6708,-2.6674,-2.664,-2.6951,-2.7168,-2.7118,-2.7223,-2.742,-2.7449,-2.7419,-2.7334,-2.6916,-2.6677,-2.6555,-2.6958,-2.6824,-4.2851,-4.25,-4.1868,-4.1363,-4.1065,-4.1191,-4.135,-4.1528,-4.2088,-4.2714,-4.3462,-4.3931,-4.4141,-4.4276,-4.369,-4.3172,-4.2591,-4.1677,-4.0798,-4.0096,-3.9469,-3.8734,-3.7787,-3.7855,-3.7003,-3.5938,-3.5616,-3.5718,-3.614,-3.7161,-3.7973,-3.8294,-3.9368,-3.9943,-3.9571,-3.892,-3.8311,-3.7263,-3.6789,-3.6011,-3.5076,-3.5025,-3.4964,-3.4223,-3.3661,-3.3681,-3.4168,-3.4244,-3.4246,-3.459,-3.5197,-3.5214,-3.4916,-3.4916,-3.4407,-3.3529,-3.2827,-3.1757,-3.0053,-2.9457,-2.9265,-2.8719,-2.8754,-2.8983,-2.9722,-2.9879,-3.0229,-3.0685,-3.0458,-3.0517,-3.0803,-3.0266,-2.995,-2.9614,-2.9141,-2.8973,-2.9183,-2.921,-2.9254,-2.9569,-3.0046,-3.0327,-2.99,-3.0499,-3.0876,-3.112,-3.1497,-3.1934,-3.2082,-3.2149,-3.189,-3.1549,-3.0858,-2.989,-2.8706,-2.7836,-2.7135,-2.6841,-2.6758,-2.6775,-2.6775,-2.6775,-2.7021,-2.7084,-2.7099,-2.7243,-2.7474,-2.7736,-2.7792,-2.7762,-2.775,-2.7635,-2.7621,-2.7991,-2.7779,-4.2903,-4.2201,-4.178,-4.1255,-4.0754,-4.0724,-4.0681,-4.0663,-4.0899,-4.1716,-4.2749,-4.3208,-4.3759,-4.4496,-4.3775,-4.3267,-4.2608,-4.1373,-4.0476,-4.0079,-3.9656,-3.8937,-3.8058,-3.777,-3.7104,-3.5819,-3.5616,-3.5616,-3.5977,-3.6755,-3.7533,-3.7956,-3.9039,-3.9723,-4.0062,-3.9706,-3.9123,-3.8464,-3.8024,-3.7297,-3.6349,-3.6038,-3.5587,-3.4868,-3.4202,-3.4101,-3.437,-3.3912,-3.4133,-3.4731,-3.546,-3.5934,-3.5969,-3.6127,-3.5794,-3.4793,-3.3933,-3.2669,-3.1107,-3.0282,-2.9895,-2.9546,-2.9755,-3.0404,-3.0949,-3.1177,-3.1545,-3.1914,-3.1704,-3.1253,-3.1271,-3.128,-3.0917,-3.0357,-3.0017,-2.9986,-3.0199,-2.9849,-2.9659,-2.9969,-3.0381,-3.0266,-3.0288,-3.0779,-3.0963,-3.1147,-3.1882,-3.2314,-3.2366,-3.2385,-3.2222,-3.1882,-3.1332,-3.0417,-2.9046,-2.7974,-2.7041,-2.6775,-2.6725,-2.6841,-2.6957,-2.6957,-2.6989,-2.7053,-2.7149,-2.7307,-2.7552,-2.7826,-2.801,-2.7935,-2.7968,-2.8295,-2.8451,-2.8341,-2.7979,-4.2798,-4.1604,-4.1538,-4.1076,-4.0449,-4.0343,-4.0104,-3.9772,-3.9703,-4.0744,-4.1905,-4.2117,-4.2898,-4.3792,-4.3504,-4.2811,-4.1965,-4.1094,-4.0367,-3.9808,-3.952,-3.8684,-3.7821,-3.7313,-3.6924,-3.5819,-3.565,-3.5616,-3.5825,-3.64,-3.7263,-3.7905,-3.865,-3.9453,-3.996,-4.0079,-3.9757,-3.9191,-3.9097,-3.8456,-3.7385,-3.6996,-3.6451,-3.5425,-3.458,-3.4421,-3.4231,-3.3785,-3.3632,-3.4318,-3.4583,-3.5021,-3.5618,-3.6268,-3.648,-3.5074,-3.4653,-3.3529,-3.2142,-3.13,-3.1019,-3.0633,-3.1142,-3.1791,-3.2335,-3.2458,-3.2599,-3.2704,-3.2511,-3.2074,-3.1994,-3.1878,-3.1723,-3.1271,-3.1019,-3.1032,-3.0934,-3.0232,-3.0325,-3.0541,-3.0743,-3.0667,-3.0656,-3.0917,-3.1039,-3.1272,-3.2037,-3.2573,-3.259,-3.2603,-3.2444,-3.2103,-3.1566,-3.0179,-2.874,-2.7795,-2.6893,-2.6825,-2.6741,-2.694,-2.7165,-2.7334,-2.7365,-2.7213,-2.7308,-2.7448,-2.7554,-2.773,-2.7858,-2.7929,-2.816,-2.8416,-2.8533,-2.8592,-2.8201,-4.1832,-4.1582,-4.1249,-4.0802,-4.0392,-4.0104,-3.9884,-3.9729,-3.9703,-4.0346,-4.1313,-4.139,-4.1863,-4.2455,-4.2574,-4.2033,-4.1271,-4.0713,-4.0189,-3.9309,-3.8785,-3.7973,-3.7195,-3.6671,-3.6332,-3.6366,-3.5994,-3.5616,-3.5876,-3.64,-3.7026,-3.7855,-3.8565,-3.93,-3.9825,-4.0096,-4.0045,-3.9825,-3.9766,-3.9226,-3.8604,-3.8219,-3.7576,-3.6145,-3.4961,-3.4165,-3.3724,-3.2894,-3.2384,-3.2845,-3.4003,-3.4618,-3.4969,-3.5565,-3.5987,-3.6197,-3.5901,-3.467,-3.3213,-3.3389,-3.3038,-3.2581,-3.2634,-3.3038,-3.3283,-3.3266,-3.3143,-3.2617,-3.2494,-3.2263,-3.2103,-3.1896,-3.1701,-3.1394,-3.123,-3.1154,-3.1278,-3.1219,-3.0891,-3.0935,-3.1085,-3.1028,-3.0804,-3.0847,-3.1182,-3.1463,-3.2055,-3.2471,-3.2557,-3.264,-3.2647,-3.2227,-3.1743,-3.0038,-2.8271,-2.747,-2.6741,-2.6858,-2.6907,-2.7101,-2.7352,-2.7736,-2.7794,-2.7504,-2.7432,-2.7524,-2.7615,-2.7704,-2.7876,-2.8059,-2.8277,-2.8496,-2.8539,-2.8562,-2.8587,-4.1838,-4.1272,-4.1071,-4.0652,-4.0154,-3.9986,-3.9824,-3.9703,-3.972,-4.0279,-4.0822,-4.0865,-4.1026,-4.1373,-4.0815,-4.0375,-4.0189,-4.0037,-3.9614,-3.8903,-3.8582,-3.7821,-3.6897,-3.6332,-3.618,-3.6113,-3.5752,-3.5842,-3.6146,-3.6129,-3.6671,-3.7313,-3.8058,-3.8785,-3.9462,-3.991,-4.0062,-4.0113,-4.0003,-3.9809,-3.9371,-3.9235,-3.8395,-3.7261,-3.6118,-3.5155,-3.4082,-3.3574,-3.2856,-3.2687,-3.309,-3.3652,-3.4091,-3.4495,-3.5162,-3.5987,-3.5723,-3.4881,-3.3634,-3.3634,-3.3125,-3.3161,-3.367,-3.4073,-3.4126,-3.402,-3.344,-3.2475,-3.1982,-3.1885,-3.1774,-3.1458,-3.1374,-3.1469,-3.136,-3.1421,-3.1618,-3.182,-3.1616,-3.1199,-3.0818,-3.0593,-3.0299,-3.056,-3.1202,-3.169,-3.2143,-3.2351,-3.2507,-3.259,-3.2672,-3.2301,-3.1711,-3.0246,-2.8544,-2.7555,-2.6893,-2.6923,-2.7069,-2.726,-2.7504,-2.7851,-2.784,-2.7612,-2.7582,-2.7689,-2.7659,-2.7716,-2.7965,-2.8191,-2.8331,-2.8473,-2.8515,-2.8549,-2.8574,-4.187,-4.0977,-4.0836,-4.0444,-3.9952,-3.9824,-3.9746,-3.9703,-3.9703,-4.0178,-4.0789,-4.0273,-4.0206,-4.029,-3.9563,-3.8886,-3.8954,-3.9056,-3.8954,-3.8734,-3.8616,-3.7963,-3.6891,-3.6502,-3.6299,-3.6129,-3.5684,-3.5943,-3.6163,-3.596,-3.6129,-3.6874,-3.7567,-3.8278,-3.9022,-3.9774,-3.9994,-4.0062,-3.9961,-3.9901,-3.9772,-3.9573,-3.9189,-3.8456,-3.8027,-3.6835,-3.5411,-3.4481,-3.3643,-3.3002,-3.2827,-3.2967,-3.3406,-3.3512,-3.4091,-3.4897,-3.4248,-3.3828,-3.3424,-3.3389,-3.3406,-3.3406,-3.4196,-3.4477,-3.423,-3.3825,-3.3312,-3.2116,-3.1673,-3.1445,-3.1314,-3.1131,-3.1151,-3.1325,-3.1457,-3.1598,-3.1857,-3.202,-3.2039,-3.1498,-3.0702,-3.0551,-3.0699,-3.0942,-3.1708,-3.1865,-3.2265,-3.2335,-3.2457,-3.249,-3.2503,-3.2252,-3.159,-3.0384,-2.9042,-2.7878,-2.73,-2.7104,-2.726,-2.7459,-2.7698,-2.7968,-2.7858,-2.7818,-2.7861,-2.7918,-2.7832,-2.7774,-2.8021,-2.8219,-2.8358,-2.8463,-2.8523,-2.8562,-2.8587,-4.1134,-4.0954,-4.0296,-3.9961,-3.9849,-3.9537,-3.9511,-3.9703,-3.9703,-3.9875,-4.0282,-3.9462,-3.9174,-3.8937,-3.8379,-3.8379,-3.8785,-3.887,-3.865,-3.8362,-3.8159,-3.7398,-3.6045,-3.5752,-3.6146,-3.6146,-3.5819,-3.5667,-3.5802,-3.5701,-3.5977,-3.6705,-3.7398,-3.8227,-3.8836,-3.9571,-4.0079,-4.007,-3.9961,-3.9772,-3.9563,-3.9448,-3.9286,-3.8959,-3.852,-3.774,-3.6613,-3.5512,-3.4369,-3.3528,-3.3318,-3.3371,-3.3494,-3.3512,-3.3529,-3.3915,-3.4108,-3.4231,-3.3652,-3.3652,-3.3758,-3.367,-3.4179,-3.4196,-3.3772,-3.2926,-3.2237,-3.1716,-3.1466,-3.1215,-3.0878,-3.0858,-3.0975,-3.1173,-3.1387,-3.1617,-3.1912,-3.2179,-3.2195,-3.1916,-3.1183,-3.1498,-3.1777,-3.1986,-3.2231,-3.2283,-3.2318,-3.2371,-3.2457,-3.2525,-3.2473,-3.2225,-3.1661,-3.0521,-2.9419,-2.8254,-2.7688,-2.7349,-2.7446,-2.7654,-2.7915,-2.8124,-2.8183,-2.8142,-2.8174,-2.8077,-2.7936,-2.7936,-2.8109,-2.8259,-2.8419,-2.8497,-2.8574,-2.8587,-2.86,-4.037,-4.0345,-4.0037,-3.9772,-3.9563,-3.9448,-3.9511,-3.9694,-3.9781,-3.9893,-3.9834,-3.8853,-3.7939,-3.7313,-3.6705,-3.728,-3.8159,-3.8413,-3.8497,-3.8362,-3.8041,-3.7313,-3.6434,-3.5859,-3.5893,-3.5943,-3.5842,-3.5633,-3.5616,-3.5616,-3.5819,-3.618,-3.6891,-3.7601,-3.8396,-3.9106,-3.9598,-3.9783,-3.9755,-3.959,-3.9484,-3.9537,-3.9537,-3.9362,-3.9515,-3.8916,-3.7705,-3.6675,-3.5389,-3.4337,-3.3511,-3.288,-3.288,-3.2862,-3.288,-3.2897,-3.3161,-3.3161,-3.2967,-3.3266,-3.3389,-3.3599,-3.3774,-3.372,-3.3172,-3.2359,-3.156,-3.1235,-3.1018,-3.0797,-3.0609,-3.0651,-3.0935,-3.1193,-3.1426,-3.1764,-3.2037,-3.2197,-3.2283,-3.1986,-3.1793,-3.2056,-3.2161,-3.1934,-3.1916,-3.1984,-3.2177,-3.2388,-3.2508,-3.2641,-3.2523,-3.2318,-3.1616,-3.0744,-2.9676,-2.8613,-2.802,-2.7705,-2.7654,-2.7855,-2.8128,-2.8295,-2.8309,-2.8214,-2.8095,-2.8025,-2.7965,-2.8063,-2.8205,-2.8353,-2.851,-2.8549,-2.8587,-2.8587,-2.86,-4.0031,-3.9998,-3.983,-3.959,-3.9325,-3.9422,-3.9537,-3.9703,-3.9781,-3.9935,-3.9724,-3.8751,-3.7381,-3.6197,-3.6146,-3.684,-3.7905,-3.7898,-3.8362,-3.8531,-3.8227,-3.7483,-3.6671,-3.6045,-3.5616,-3.5616,-3.565,-3.5616,-3.5616,-3.5616,-3.5616,-3.565,-3.6518,-3.71,-3.7719,-3.855,-3.9269,-3.9722,-3.9746,-3.9642,-3.959,-3.9841,-3.9816,-3.9995,-4.0224,-4.0221,-3.8717,-3.7652,-3.6512,-3.5409,-3.3968,-3.3248,-3.2932,-3.288,-3.2722,-3.2634,-3.2634,-3.2599,-3.2529,-3.2634,-3.2704,-3.2949,-3.3213,-3.3125,-3.2857,-3.2021,-3.1464,-3.1196,-3.0794,-3.0654,-3.0593,-3.0609,-3.0938,-3.1274,-3.1542,-3.1911,-3.2214,-3.2336,-3.2388,-3.2248,-3.2126,-3.223,-3.2161,-3.169,-3.155,-3.1652,-3.1931,-3.2318,-3.2507,-3.264,-3.2556,-3.2335,-3.1812,-3.0975,-2.9947,-2.905,-2.8464,-2.8022,-2.7982,-2.8051,-2.8304,-2.8362,-2.834,-2.8219,-2.8053,-2.8067,-2.8091,-2.8174,-2.8268,-2.8414,-2.8562,-2.8574,-2.86,-2.86,-2.86,-4.037,-4.0304,-3.9651,-3.9342,-3.9315,-3.9299,-3.9441,-3.9703,-3.9729,-3.985,-3.9868,-3.9199,-3.799,-3.6948,-3.662,-3.7009,-3.7855,-3.7905,-3.8278,-3.8447,-3.8227,-3.7449,-3.6721,-3.6096,-3.5616,-3.5616,-3.5616,-3.5616,-3.5616,-3.5616,-3.5616,-3.5718,-3.6265,-3.6654,-3.73,-3.8207,-3.8992,-3.9495,-3.974,-3.9935,-3.9969,-4.0179,-4.0302,-4.0392,-4.0648,-4.0603,-3.9766,-3.8569,-3.7707,-3.6761,-3.5128,-3.4021,-3.3529,-3.3301,-3.302,-3.2546,-3.2406,-3.2388,-3.2336,-3.2371,-3.2249,-3.2231,-3.2354,-3.2599,-3.2441,-3.1921,-3.1521,-3.1329,-3.0814,-3.0695,-3.0716,-3.0797,-3.1038,-3.143,-3.1728,-3.1929,-3.2196,-3.2354,-3.2406,-3.2406,-3.2406,-3.2406,-3.2406,-3.1986,-3.1882,-3.1967,-3.2002,-3.2388,-3.2387,-3.2489,-3.2489,-3.2318,-3.1985,-3.1237,-3.0254,-2.9502,-2.8963,-2.8473,-2.8233,-2.8318,-2.8492,-2.8471,-2.8406,-2.8259,-2.8136,-2.8178,-2.8205,-2.8214,-2.8282,-2.8497,-2.86,-2.86,-2.86,-2.86,-2.86,-4.0409,-4.0376,-4.0094,-3.9713,-3.9315,-3.9379,-3.952,-3.9703,-3.9781,-3.964,-3.9428,-3.908,-3.8159,-3.7151,-3.6812,-3.6931,-3.7218,-3.7229,-3.7719,-3.7855,-3.7567,-3.7094,-3.6535,-3.6113,-3.5616,-3.5616,-3.5616,-3.5616,-3.5616,-3.5616,-3.5616,-3.5752,-3.5971,-3.6366,-3.703,-3.7864,-3.8698,-3.9228,-3.9708,-4.002,-4.0311,-4.0556,-4.0659,-4.0449,-4.1117,-4.1059,-4.04,-3.8922,-3.8453,-3.776,-3.6004,-3.4986,-3.4266,-3.388,-3.3248,-3.2634,-3.2546,-3.2371,-3.2231,-3.2302,-3.2319,-3.2301,-3.2336,-3.2319,-3.2144,-3.171,-3.1389,-3.1117,-3.0834,-3.0695,-3.0895,-3.0915,-3.1098,-3.1635,-3.1912,-3.2019,-3.2179,-3.2354,-3.2406,-3.2406,-3.2406,-3.2406,-3.2406,-3.2353,-3.2336,-3.2371,-3.2388,-3.2388,-3.2404,-3.2318,-3.2301,-3.2249,-3.1913,-3.1477,-3.054,-2.9979,-2.947,-2.8983,-2.8506,-2.8522,-2.8574,-2.8574,-2.8497,-2.8322,-2.8205,-2.8205,-2.8205,-2.8205,-2.8309,-2.8523,-2.8587,-2.86,-2.86,-2.86,-2.86,-4.0696,-4.0696,-4.068,-4.0293,-3.9663,-3.9727,-3.9711,-3.9642,-3.9703,-3.9606,-3.926,-3.9065,-3.8328,-3.7354,-3.6863,-3.6812,-3.688,-3.6931,-3.7313,-3.7415,-3.7263,-3.688,-3.6541,-3.6113,-3.5616,-3.5616,-3.5616,-3.5616,-3.5616,-3.5616,-3.5616,-3.5616,-3.5605,-3.596,-3.642,-3.7355,-3.822,-3.8923,-3.9427,-4.0093,-4.0501,-4.0819,-4.0907,-4.0659,-4.1117,-4.1209,-4.0728,-3.9739,-3.9336,-3.869,-3.7461,-3.5899,-3.5144,-3.4477,-3.3687,-3.3213,-3.2827,-3.2616,-3.2421,-3.2178,-3.2336,-3.2336,-3.2232,-3.2126,-3.1912,-3.1579,-3.1232,-3.1055,-3.0794,-3.0757,-3.1075,-3.1193,-3.1445,-3.1947,-3.1876,-3.1984,-3.2214,-3.2406,-3.2406,-3.2406,-3.2406,-3.2406,-3.2406,-3.2406,-3.2388,-3.2388,-3.2406,-3.2457,-3.254,-3.2369,-3.2091,-3.2003,-3.1822,-3.1373,-3.089,-3.031,-2.9728,-2.9286,-2.8865,-2.8593,-2.86,-2.8587,-2.851,-2.8282,-2.8205,-2.8205,-2.8205,-2.8219,-2.8349,-2.8549,-2.8587,-2.86,-2.86,-2.86,-2.86,-4.1359,-4.1364,-4.1375,-4.0978,-4.0393,-4.0376,-4.0059,-3.9561,-3.9554,-3.9644,-3.9665,-3.9235,-3.8524,-3.7713,-3.7019,-3.6745,-3.6609,-3.6654,-3.6975,-3.7229,-3.6857,-3.6745,-3.6451,-3.6011,-3.5616,-3.5616,-3.5616,-3.5616,-3.5616,-3.5616,-3.5616,-3.5594,-3.5543,-3.5542,-3.5603,-3.6047,-3.7159,-3.8595,-3.9054,-3.9976,-4.0637,-4.0967,-4.1024,-4.1071,-4.11,-4.1186,-4.0936,-4.0429,-4.0147,-3.9972,-3.8725,-3.7444,-3.6707,-3.5601,-3.4881,-3.453,-3.3967,-3.356,-3.3199,-3.2451,-3.2246,-3.2283,-3.2106,-3.2032,-3.1818,-3.1428,-3.1134,-3.1075,-3.0975,-3.1117,-3.1349,-3.1523,-3.1856,-3.2072,-3.2002,-3.2037,-3.2301,-3.2406,-3.2406,-3.2406,-3.2406,-3.2406,-3.2406,-3.2406,-3.2371,-3.2371,-3.2406,-3.2457,-3.2506,-3.2266,-3.1877,-3.1821,-3.1693,-3.1579,-3.115,-3.0529,-2.9983,-2.9561,-2.9125,-2.8766,-2.8574,-2.8562,-2.8432,-2.8259,-2.8178,-2.815,-2.8191,-2.8232,-2.8419,-2.8574,-2.8587,-2.86,-2.86,-2.86,-2.86,-4.1397,-4.1397,-4.1397,-4.1276,-4.1011,-4.0591,-4.0049,-3.9568,-3.959,-3.9694,-3.9664,-3.9169,-3.8293,-3.7501,-3.6962,-3.6485,-3.6079,-3.6011,-3.6259,-3.6309,-3.6163,-3.6045,-3.5887,-3.5819,-3.5616,-3.5616,-3.5616,-3.5616,-3.5616,-3.5616,-3.5616,-3.5594,-3.5475,-3.5331,-3.5515,-3.6008,-3.7064,-3.7836,-3.8883,-4.0031,-4.0625,-4.1089,-4.1328,-4.1346,-4.134,-4.1318,-4.1283,-4.0819,-4.0779,-4.0902,-3.9656,-3.862,-3.7918,-3.69,-3.6426,-3.5934,-3.5389,-3.5827,-3.5174,-3.427,-3.2649,-3.2259,-3.2018,-3.196,-3.1663,-3.1288,-3.1173,-3.1213,-3.1095,-3.1293,-3.1618,-3.173,-3.1984,-3.2249,-3.2284,-3.2267,-3.2388,-3.2406,-3.2406,-3.2406,-3.2406,-3.2406,-3.2406,-3.2388,-3.2354,-3.2196,-3.2161,-3.2108,-3.2109,-3.184,-3.1524,-3.1596,-3.1579,-3.1626,-3.141,-3.091,-3.0566,-3.0261,-2.9485,-2.8701,-2.8574,-2.8621,-2.8458,-2.8327,-2.8205,-2.8109,-2.8232,-2.8353,-2.8471,-2.8574,-2.8587,-2.86,-2.86,-2.86,-2.86,-4.1061,-4.1028,-4.0779,-4.068,-4.0696,-4.0713,-4.0254,-3.9515,-3.9313,-3.9391,-3.9426,-3.8556,-3.7748,-3.7069,-3.6542,-3.6208,-3.5577,-3.5509,-3.5594,-3.5594,-3.5571,-3.5645,-3.5667,-3.5616,-3.5616,-3.5616,-3.5616,-3.5616,-3.5616,-3.5616,-3.5571,-3.5481,-3.5458,-3.5412,-3.5518,-3.5919,-3.653,-3.7285,-3.8377,-3.9464,-4.0202,-4.0788,-4.1084,-4.1253,-4.134,-4.134,-4.1286,-4.1165,-4.1042,-4.1078,-4.0481,-3.9498,-3.8989,-3.8304,-3.7827,-3.7336,-3.7011,-3.7088,-3.6107,-3.5698,-3.3858,-3.1847,-3.1941,-3.1752,-3.1356,-3.0995,-3.0938,-3.0978,-3.1151,-3.1406,-3.171,-3.182,-3.209,-3.2354,-3.2301,-3.2267,-3.2388,-3.2406,-3.2406,-3.2406,-3.2406,-3.2406,-3.2406,-3.2388,-3.2354,-3.2126,-3.1912,-3.1857,-3.1838,-3.1617,-3.147,-3.1635,-3.1783,-3.1932,-3.1829,-3.1426,-3.1138,-3.0947,-3.0026,-2.8941,-2.884,-2.8936,-2.8665,-2.8406,-2.8313,-2.8273,-2.8353,-2.8471,-2.8549,-2.8587,-2.8587,-2.86,-2.86,-2.86,-2.86,-4.0393,-4.0216,-3.9613,-3.9332,-3.9497,-4.0415,-4.0249,-3.9193,-3.865,-3.8768,-3.9185,-3.7373,-3.676,-3.6721,-3.5967,-3.5605,-3.5543,-3.5389,-3.5458,-3.5543,-3.5543,-3.5549,-3.5594,-3.5616,-3.5616,-3.5616,-3.5616,-3.5616,-3.5616,-3.5594,-3.5481,-3.5429,-3.5571,-3.5487,-3.5475,-3.5735,-3.6281,-3.7002,-3.7776,-3.8824,-3.9697,-4.0171,-4.0558,-4.0866,-4.1127,-4.1192,-4.1243,-4.1308,-4.1437,-4.1341,-4.0902,-4.059,-3.9993,-3.9006,-3.9006,-3.8853,-3.8388,-3.7582,-3.687,-3.6667,-3.4824,-3.2584,-3.1612,-3.1241,-3.0915,-3.0757,-3.0797,-3.1046,-3.1312,-3.1457,-3.1651,-3.1907,-3.2194,-3.2178,-3.209,-3.2179,-3.2371,-3.2406,-3.2406,-3.2406,-3.2406,-3.2406,-3.2406,-3.2388,-3.2354,-3.2197,-3.202,-3.1913,-3.1859,-3.1731,-3.1695,-3.1932,-3.2109,-3.2353,-3.2148,-3.1781,-3.154,-3.1283,-3.0341,-2.9398,-2.937,-2.913,-2.8709,-2.8445,-2.8419,-2.8406,-2.8437,-2.8484,-2.8574,-2.86,-2.86,-2.86,-2.86,-2.86,-2.86,-3.9796,-3.8891,-3.9183,-3.9,-3.8526,-3.8368,-3.8096,-3.7765,-3.8032,-3.8022,-3.7224,-3.6734,-3.6183,-3.5667,-3.5532,-3.5457,-3.5383,-3.536,-3.5406,-3.5452,-3.5492,-3.5543,-3.5571,-3.5616,-3.5616,-3.5616,-3.5616,-3.5616,-3.5594,-3.5571,-3.5452,-3.536,-3.5594,-3.5538,-3.5655,-3.5898,-3.6341,-3.6796,-3.7467,-3.8283,-3.9161,-3.9791,-4.0198,-4.0564,-4.1136,-4.1258,-4.1343,-4.148,-4.1587,-4.1481,-4.1394,-4.1113,-4.0414,-4.0481,-4.0793,-4.0762,-4.0139,-3.9364,-3.8619,-3.7155,-3.5418,-3.3868,-3.2811,-3.1565,-3.1024,-3.0796,-3.0879,-3.1251,-3.1817,-3.2134,-3.2223,-3.2376,-3.2576,-3.2577,-3.2403,-3.2246,-3.2424,-3.2458,-3.2458,-3.2406,-3.2406,-3.2406,-3.2406,-3.2406,-3.2354,-3.2267,-3.2161,-3.2056,-3.2003,-3.1914,-3.195,-3.2196,-3.2385,-3.2605,-3.2392,-3.2062,-3.184,-3.1508,-3.0589,-2.9877,-2.9659,-2.9334,-2.8758,-2.8497,-2.8497,-2.8445,-2.8424,-2.8484,-2.8587,-2.86,-2.86,-2.86,-2.86,-2.86,-2.86,-3.8576,-3.7831,-3.7914,-3.7566,-3.6936,-3.6738,-3.6522,-3.6423,-3.7019,-3.691,-3.6405,-3.6046,-3.559,-3.5256,-3.5268,-3.5314,-3.5291,-3.5182,-3.5245,-3.5469,-3.5446,-3.5503,-3.5554,-3.5616,-3.5616,-3.5616,-3.5616,-3.5616,-3.5594,-3.552,-3.5423,-3.5268,-3.5554,-3.5655,-3.5854,-3.6241,-3.6629,-3.6905,-3.7323,-3.7968,-3.8725,-3.9463,-3.9814,-4.0253,-4.0972,-4.1358,-4.1306,-4.1376,-4.1587,-4.1604,-4.1604,-4.1429,-4.0972,-4.1358,-4.1534,-4.1362,-4.076,-4.0009,-3.9256,-3.8275,-3.6703,-3.5345,-3.4316,-3.3394,-3.237,-3.1878,-3.1734,-3.1807,-3.2474,-3.2948,-3.2934,-3.2913,-3.3043,-3.3171,-3.2802,-3.2432,-3.2457,-3.2529,-3.2493,-3.2423,-3.2406,-3.2406,-3.2406,-3.2406,-3.2405,-3.237,-3.2335,-3.2266,-3.2248,-3.2283,-3.2317,-3.2468,-3.2635,-3.2816,-3.2553,-3.2327,-3.2179,-3.1811,-3.1016,-3.0372,-3.0053,-2.9419,-2.8711,-2.8562,-2.8587,-2.8523,-2.8471,-2.8523,-2.86,-2.86,-2.86,-2.86,-2.86,-2.86,-2.86,-3.7027,-3.6854,-3.6208,-3.5678,-3.5065,-3.5644,-3.5562,-3.4998,-3.5711,-3.6018,-3.6034,-3.5452,-3.516,-3.5074,-3.5148,-3.5198,-3.5152,-3.5041,-3.5152,-3.5469,-3.5377,-3.5429,-3.5554,-3.5616,-3.5616,-3.5616,-3.5616,-3.5594,-3.5571,-3.5475,-3.5308,-3.5152,-3.565,-3.5854,-3.5929,-3.6451,-3.6858,-3.7261,-3.7281,-3.7584,-3.8532,-3.9076,-3.9266,-3.9621,-4.0481,-4.1271,-4.1012,-4.1148,-4.1604,-4.1604,-4.1587,-4.1569,-4.1552,-4.1552,-4.1587,-4.1278,-4.076,-3.9991,-3.9414,-3.8645,-3.7623,-3.6586,-3.5926,-3.4883,-3.3773,-3.2613,-3.2276,-3.2414,-3.3039,-3.3387,-3.3408,-3.3287,-3.3301,-3.3343,-3.3123,-3.2938,-3.2965,-3.2809,-3.2458,-3.2406,-3.2406,-3.2406,-3.2405,-3.2422,-3.2558,-3.2522,-3.2555,-3.2521,-3.257,-3.2653,-3.2635,-3.2732,-3.283,-3.2912,-3.2725,-3.2551,-3.2497,-3.2061,-3.1169,-3.06,-3.0049,-2.9375,-2.8654,-2.86,-2.86,-2.86,-2.8574,-2.86,-2.86,-2.86,-2.86,-2.86,-2.86,-2.86,-2.86,-3.6439,-3.5413,-3.523,-3.5048,-3.4932,-3.5081,-3.5081,-3.4916,-3.5065,-3.5223,-3.5206,-3.516,-3.5051,-3.4989,-3.5067,-3.5105,-3.4994,-3.4994,-3.5088,-3.5268,-3.5308,-3.5406,-3.5554,-3.5616,-3.5616,-3.5616,-3.5616,-3.5571,-3.5498,-3.5337,-3.5198,-3.5152,-3.5515,-3.5683,-3.5929,-3.6468,-3.6905,-3.7441,-3.7288,-3.7183,-3.7672,-3.8286,-3.8638,-3.9305,-4.02,-4.0955,-4.099,-4.1394,-4.1587,-4.1604,-4.1604,-4.1604,-4.1604,-4.1604,-4.1288,-4.0854,-4.0549,-3.979,-3.9067,-3.8625,-3.7811,-3.6821,-3.6025,-3.5446,-3.4568,-3.3392,-3.2895,-3.3166,-3.3444,-3.3745,-3.3864,-3.3724,-3.3615,-3.3568,-3.3479,-3.3464,-3.3457,-3.295,-3.2458,-3.2406,-3.2406,-3.2422,-3.2422,-3.2506,-3.2639,-3.277,-3.2914,-3.2977,-3.3055,-3.3101,-3.2878,-3.2925,-3.2975,-3.2972,-3.2809,-3.2554,-3.24,-3.1704,-3.0749,-3.0324,-2.9989,-2.9295,-2.86,-2.86,-2.86,-2.86,-2.86,-2.86,-2.86,-2.86,-2.86,-2.86,-2.86,-2.86,-2.86,-3.5644,-3.4932,-3.4899,-3.4899,-3.4899,-3.4899,-3.4899,-3.4899,-3.4899,-3.4899,-3.4923,-3.497,-3.497,-3.4899,-3.4994,-3.4994,-3.4899,-3.4923,-3.5105,-3.5245,-3.5354,-3.5412,-3.5526,-3.5616,-3.5616,-3.5616,-3.5549,-3.5498,-3.54,-3.5245,-3.5128,-3.5088,-3.5264,-3.5549,-3.5907,-3.6335,-3.6858,-3.7512,-3.7165,-3.7042,-3.7077,-3.7707,-3.797,-3.8655,-3.9568,-4.034,-4.0691,-4.1095,-4.1587,-4.1604,-4.1604,-4.1604,-4.1604,-4.1604,-4.12,-4.0683,-4.0231,-3.9763,-3.8942,-3.8385,-3.8051,-3.7393,-3.6572,-3.6191,-3.5926,-3.4823,-3.3816,-3.4022,-3.4385,-3.4678,-3.4516,-3.4347,-3.438,-3.4401,-3.3938,-3.3652,-3.3228,-3.2652,-3.2423,-3.2406,-3.244,-3.2506,-3.2557,-3.2673,-3.2786,-3.2914,-3.3088,-3.318,-3.3301,-3.3378,-3.3193,-3.3037,-3.3039,-3.293,-3.2718,-3.2391,-3.2079,-3.1278,-3.0417,-2.983,-2.9404,-2.8979,-2.86,-2.86,-2.86,-2.86,-2.86,-2.86,-2.86,-2.86,-2.86,-2.86,-2.86,-2.86,-2.86,-3.4932,-3.4899,-3.4899,-3.4899,-3.4875,-3.4811,-3.4828,-3.4875,-3.4828,-3.4851,-3.4899,-3.4923,-3.4899,-3.4899,-3.4899,-3.4899,-3.4923,-3.497,-3.5128,-3.5245,-3.5331,-3.5435,-3.5549,-3.5616,-3.5616,-3.5549,-3.5498,-3.5383,-3.5285,-3.5128,-3.5018,-3.4977,-3.5224,-3.5571,-3.5924,-3.6301,-3.6771,-3.7048,-3.7007,-3.7007,-3.7251,-3.7602,-3.7584,-3.8114,-3.8869,-3.9726,-3.9919,-4.034,-4.1183,-4.1516,-4.1481,-4.1446,-4.1341,-4.1271,-4.1047,-4.0513,-3.9864,-3.9525,-3.918,-3.8804,-3.8815,-3.8541,-3.7683,-3.6986,-3.6622,-3.585,-3.4828,-3.467,-3.5036,-3.5144,-3.4952,-3.4825,-3.4908,-3.4874,-3.4288,-3.3616,-3.2983,-3.2441,-3.244,-3.2423,-3.2507,-3.2589,-3.2705,-3.2836,-3.2948,-3.3088,-3.318,-3.3256,-3.3334,-3.3334,-3.3241,-3.307,-3.2977,-3.2834,-3.2655,-3.2221,-3.1838,-3.1217,-3.0393,-2.9543,-2.8887,-2.8701,-2.8587,-2.86,-2.86,-2.86,-2.86,-2.86,-2.86,-2.86,-2.86,-2.86,-2.86,-2.86,-2.86,-3.4899,-3.4899,-3.4899,-3.4899,-3.4851,-3.4448,-3.4497,-3.4804,-3.4472,-3.4472,-3.4828,-3.4899,-3.4899,-3.4899,-3.4899,-3.4899,-3.4923,-3.4994,-3.5152,-3.5268,-3.54,-3.5503,-3.5577,-3.5616,-3.5571,-3.5498,-3.5406,-3.5268,-3.5175,-3.5018,-3.4947,-3.4947,-3.5195,-3.5549,-3.5907,-3.6284,-3.6626,-3.6851,-3.6989,-3.6989,-3.6989,-3.7268,-3.7549,-3.79,-3.8286,-3.8866,-3.9234,-3.955,-4.0095,-4.0639,-4.1148,-4.1078,-4.0955,-4.0748,-4.0485,-4.0083,-3.9456,-3.9129,-3.8839,-3.8732,-3.8698,-3.8306,-3.7384,-3.6788,-3.6265,-3.5545,-3.4878,-3.4678,-3.4958,-3.5054,-3.4919,-3.4749,-3.4711,-3.4636,-3.4264,-3.34,-3.2634,-3.2476,-3.244,-3.249,-3.2573,-3.2705,-3.2868,-3.2963,-3.3073,-3.318,-3.3256,-3.3349,-3.3364,-3.3334,-3.3289,-3.3104,-3.2932,-3.2786,-3.2621,-3.1996,-3.1525,-3.0976,-3.0364,-2.9525,-2.8918,-2.8647,-2.8574,-2.8587,-2.86,-2.86,-2.86,-2.86,-2.86,-2.86,-2.86,-2.86,-2.86,-2.86,-2.86]},{"header":{"parameterUnit":"m.s-1","parameterCategory":1,"la1":31.0,"la2":29.5877,"lo1":-88.7671,"lo2":-86.6584,"dy":0.0162,"dx":0.0185,"nx":115,"ny":88,"refTime":"2023-08-27T12:00:00:Z","depth":0,"parameterNumber":3,"parameterNumberName":"V-component_of_WINDS"},"data":[0.0,0.0,0.0,0.0,0.0,0.0,0.0,0.0,0.0,0.0,0.0,0.0,0.0,0.0,0.0,0.0,0.0,0.0,0.0,0.0,0.0,0.0,0.0,0.0,0.0,0.0,0.0,0.0,0.0,0.0,0.0,0.0,0.0,0.0,0.0,0.0,0.0,0.0,0.0,0.0,0.0,0.0,0.0,0.0,0.0,0.0,0.0,0.0,0.0,0.0,0.0,0.0,0.0,0.0,0.0,0.0,0.0,0.0,0.0,0.0,0.0,0.0,0.0,0.0,0.0,0.0,0.0,0.0,0.0,0.0,0.0,0.0,0.0,0.0,0.0,0.0,0.0,0.0,0.0,0.0,0.0,0.0,0.0,0.0,0.0,0.0,0.0,0.0,0.0,0.0,0.0,0.0,0.0,0.0,0.0,0.0,0.0,0.0,0.0,0.0,0.0,0.0,0.0,0.0,0.0,0.0,0.0,0.0,0.0,0.0,0.0,0.0,0.0,0.0,0.0,0.0,0.0,0.0,0.0,0.0,0.0,0.0,0.0,0.0,0.0,0.0,0.0,0.0,0.0,0.0,0.0,0.0,0.0,0.0,0.0,0.0,0.0,0.0,0.0,0.0,0.0,0.0,0.0,0.0,0.0,0.0,0.0,0.0,0.0,0.0,0.0,0.0,0.0,0.0,0.0,0.0,0.0,0.0,0.0,0.0,0.0,0.0,0.0,0.0,0.0,0.0,0.0,0.0,0.0,0.0,0.0,0.0,0.0,0.0,0.0,0.0,0.0,0.0,0.0,0.0,0.0,0.0,0.0,0.0,0.0,0.0,0.0,0.0,0.0,0.0,0.0,0.0,0.0,0.0,0.0,0.0,0.0,0.0,0.0,0.0,0.0,0.0,0.0,0.0,0.0,0.0,0.0,0.0,0.0,0.0,0.0,0.0,0.0,0.0,0.0,0.0,0.0,0.0,0.0,0.0,0.0,0.0,0.0,0.0,0.0,0.0,0.0,0.0,0.0,0.0,0.0,0.0,0.0,0.0,0.0,0.0,0.0,0.0,0.0,0.0,0.0,0.0,0.0,0.0,0.0,0.0,0.0,0.0,0.0,0.0,0.0,0.0,0.0,0.0,0.0,0.0,0.0,0.0,0.0,0.0,0.0,0.0,0.0,0.0,0.0,0.0,0.0,0.0,0.0,0.0,0.0,0.0,0.0,0.0,0.0,0.0,0.0,0.0,0.0,0.0,0.0,0.0,0.0,0.0,0.0,0.0,0.0,0.0,0.0,0.0,0.0,0.0,0.0,0.0,0.0,0.0,0.0,0.0,0.0,0.0,0.0,0.0,0.0,0.0,0.0,0.0,0.0,0.0,0.0,0.0,0.0,0.0,0.0,0.0,0.0,0.0,0.0,0.0,0.0,0.0,0.0,0.0,0.0,0.0,0.0,0.0,0.0,0.0,0.0,0.0,0.0,0.0,0.0,0.0,0.0,0.0,0.0,0.0,0.0,0.0,0.0,0.0,0.0,0.0,0.0,0.0,0.0,0.0,0.0,0.0,0.0,0.0,0.0,0.0,0.0,0.0,0.0,0.0,0.0,0.0,0.0,0.0,0.0,0.0,0.0,0.0,0.0,0.0,0.0,0.0,0.0,0.0,0.0,0.0,0.0,0.0,0.0,0.0,0.0,0.0,0.0,0.0,0.0,0.0,0.0,0.0,0.0,0.0,0.0,0.0,0.0,0.0,0.0,0.0,0.0,0.0,0.0,0.0,0.0,0.0,0.0,0.0,0.0,0.0,0.0,0.0,0.0,0.0,0.0,0.0,0.0,0.0,0.0,0.0,0.0,0.0,0.0,0.0,0.0,0.0,0.0,0.0,0.0,0.0,0.0,0.0,0.0,0.0,0.0,0.0,0.0,0.0,0.0,0.0,0.0,0.0,0.0,0.0,0.0,0.0,0.0,0.0,0.0,0.0,0.0,0.0,0.0,0.0,0.0,0.0,0.0,0.0,0.0,0.0,0.0,0.0,0.0,0.0,0.0,0.0,0.0,0.0,0.0,0.0,0.0,0.0,0.0,0.0,0.0,0.0,0.0,0.0,0.0,0.0,0.0,0.0,0.0,0.0,0.0,0.0,0.0,0.0,0.0,0.0,0.0,0.0,0.0,0.0,0.0,0.0,0.0,0.0,0.0,0.0,0.0,0.0,0.0,0.0,0.0,0.0,0.0,0.0,0.0,0.0,0.0,0.0,0.0,0.0,0.0,0.0,0.0,0.0,0.0,0.0,0.0,0.0,0.0,0.0,0.0,0.0,0.0,0.0,0.0,0.0,0.0,0.0,0.0,0.0,0.0,0.0,0.0,0.0,0.0,0.0,0.0,0.0,0.0,0.0,0.0,0.0,0.0,0.0,0.0,0.0,0.0,0.0,0.0,0.0,0.0,0.0,0.0,0.0,0.0,0.0,0.0,0.0,0.0,0.0,0.0,0.0,0.0,0.0,0.0,0.0,0.0,0.0,0.0,0.0,0.0,0.0,0.0,0.0,0.0,0.0,0.0,0.0,0.0,0.0,0.0,0.0,0.0,0.0,0.0,0.0,0.0,0.0,0.0,0.0,0.0,0.0,0.0,0.0,0.0,0.0,0.0,0.0,0.0,0.0,0.0,0.0,0.0,0.0,0.0,0.0,0.0,0.0,0.0,0.0,0.0,0.0,0.0,0.0,0.0,0.0,0.0,0.0,0.0,0.0,0.0,0.0,0.0,0.0,0.0,0.0,0.0,0.0,0.0,0.0,0.0,0.0,0.0,0.0,0.0,0.0,0.0,0.0,0.0,0.0,0.0,0.0,0.0,0.0,0.0,0.0,0.0,0.0,0.0,0.0,0.0,0.0,0.0,0.0,0.0,0.0,0.0,0.0,0.0,0.0,0.0,0.0,0.0,0.0,0.0,0.0,0.0,0.0,0.0,0.0,0.0,0.0,0.0,0.0,0.0,0.0,0.0,0.0,0.0,0.0,0.0,0.0,0.0,0.0,0.0,0.0,0.0,0.0,0.0,0.0,0.0,0.0,0.0,0.0,0.0,0.0,0.0,0.0,0.0,0.0,0.0,0.0,0.0,0.0,0.0,0.0,0.0,0.0,0.0,0.0,0.0,0.0,0.0,0.0,0.0,0.0,0.0,0.0,0.0,0.0,0.0,0.0,0.0,0.0,0.0,0.0,0.0,0.0,0.0,0.0,0.0,0.0,0.0,0.0,0.0,0.0,0.0,0.0,0.0,0.0,0.0,0.0,0.0,0.0,0.0,0.0,0.0,0.0,0.0,0.0,0.0,0.0,0.0,0.0,0.0,0.0,0.0,0.0,0.0,0.0,0.0,0.0,0.0,0.0,0.0,0.0,0.0,0.0,0.0,0.0,0.0,0.0,0.0,0.0,0.0,0.0,0.0,0.0,0.0,0.0,0.0,0.0,0.0,0.0,0.0,0.0,0.0,0.0,0.0,0.0,0.0,0.0,0.0,0.0,0.0,0.0,0.0,0.0,0.0,0.0,0.0,0.0,0.0,0.0,0.0,0.0,0.0,0.0,0.0,0.0,0.0,0.0,0.0,0.0,0.0,0.0,0.0,0.0,0.0,0.0,0.0,0.0,0.0,0.0,0.0,0.0,0.0,0.0,0.0,0.0,0.0,0.0,0.0,0.0,0.0,0.0,0.0,0.0,0.0,0.0,0.0,0.0,0.0,0.0,0.0,0.0,0.0,0.0,0.0,0.0,0.0,0.0,0.0,0.0,0.0,0.0,0.0,0.0,0.0,0.0,0.0,0.0,0.0,0.0,0.0,0.0,0.0,0.0,0.0,0.0,0.0,0.0,0.0,0.0,0.0,0.0,0.0,0.0,0.0,0.0,0.0,0.0,0.0,0.0,0.0,0.0,0.0,0.0,0.0,0.0,0.0,0.0,0.0,0.0,0.0,0.0,0.0,0.0,0.0,0.0,0.0,0.0,0.0,0.0,0.0,0.0,0.0,0.0,0.0,0.0,0.0,0.0,0.0,0.0,0.0,0.0,0.0,0.0,0.0,0.0,0.0,0.0,0.0,0.0,0.0,0.0,0.0,0.0,0.0,0.0,0.0,0.0,0.0,0.0,0.0,0.0,0.0,0.0,0.0,0.0,0.0,0.0,0.0,0.0,0.0,0.0,0.0,0.0,0.0,0.0,0.0,0.0,0.0,0.0,0.0,0.0,0.0,0.0,0.0,0.0,0.0,0.0,0.0,0.0,0.0,0.0,0.0,0.0,-0.0446,0.0,0.0,0.0,0.0,0.0,0.0,0.0,0.0,0.0,0.0,0.0,0.0,0.0,0.0,0.0,0.0,0.0,0.0,0.0,0.0,0.0,0.0,0.0,0.0,0.0,0.0,0.0,0.0,0.0,0.0,0.0,0.0,0.0,0.0,0.0,0.0,0.0,0.0,0.0,0.0,0.0,0.0,0.0,0.0,0.0,0.0,0.0,0.0,0.0,0.0,0.0,0.0,0.0,0.0,0.0,0.0,0.0,0.0,0.0,0.0,0.0,0.0,0.0,0.0,0.0,0.0,0.0,0.0,0.0,0.0,0.0,0.0,0.0,0.0,0.0,0.0,0.0,0.0,0.0,0.0,0.0,0.0,0.0,0.0,0.0,0.0,0.0,0.0,0.0,0.0,0.0,0.0,0.0,0.0,0.0,0.0,0.0,0.0,0.0,0.0,0.0,0.0,0.0,0.0,0.0,0.0,0.0,0.0,0.0,0.0,-0.17,-0.1466,-0.1105,-0.079,-0.0512,0.0,0.0,0.0,0.0,0.0,0.0,0.0,0.0,0.0,0.0,0.0,0.0,0.0,0.0,0.0,0.0,0.0,0.0,0.0,0.0,0.0,0.0,0.0,0.0,0.0,0.0,0.0,0.0,0.0,0.0,0.0,0.0,0.0,0.0,0.0,0.0,0.0,0.0,0.0,0.0,0.0,0.0,0.0,0.0,0.0,0.0,0.0,0.0,0.0,0.0,0.0,0.0,0.0,0.0,0.0,0.0,0.0,0.0,0.0,0.0,0.0,0.0,0.0,0.0,0.0,0.0,0.0,0.0,0.0,0.0,0.0,0.0,0.0,0.0,0.0,0.0,0.0,0.0,0.0,0.0,0.0,0.0,0.0,0.0,0.0,0.0,0.0,0.0,0.0,0.0,0.0,0.0,0.0,0.0,0.0,0.0,0.0,0.0,0.0,0.0,0.0,0.0,0.0,0.0,0.0,0.0,0.0,0.0,0.0,0.0,0.0,0.0,-0.1573,-0.1125,-0.0652,0.0,0.0,0.0,0.0,0.0,0.0,0.0,0.0,0.0,0.0,0.0,0.0,0.0,0.0,0.0,0.0,0.0,0.0,0.0,0.0,0.0,0.0,0.0,0.0,0.0,0.0,0.0,0.0,0.0,0.0,0.0,0.0,0.0,0.0,0.0,0.0,0.0,0.0,0.0,0.0,0.0,0.0,0.0,0.0,0.0,0.0,0.0,0.0,0.0,0.0,0.0,0.0,0.0,0.0,0.0,0.0,0.0,0.0,0.0,0.0,0.0,0.0,0.0,0.0,0.0,0.0,0.0,0.0,0.0,0.0,0.0,0.0,0.0,0.0,0.0,0.0,0.0,0.0,0.0,0.0,0.0,0.0,0.0,0.0,0.0,0.0,0.0,0.0,0.0,0.0,0.0,0.0,0.0,0.0,0.0,0.0,0.0,0.0,0.0,0.0,0.0,0.0,0.0,0.0,0.0,0.0,0.0,0.0,0.0,0.0,-0.2755,-0.337,-0.255,0.0,-0.1044,0.0,0.0,0.0,0.0,0.0,0.0,0.0,0.0,0.0,0.0,0.0,0.0,0.0,0.0,0.0,0.0,0.0,0.0,0.0,0.0,0.0,0.0,0.0,0.0,0.0,0.0,0.0,0.0,0.0,0.0,0.0,0.0,0.0,0.0,0.0,0.0,0.0,0.0,0.0,0.0,0.0,0.0,0.0,0.0,0.0,0.0,0.0,0.0,0.0,0.0,0.0,0.0,0.0,0.0,0.0,0.0,0.0,0.0,0.0,0.0,0.0,0.0,0.0,0.0,0.0,0.0,0.0,0.0,0.0,0.0,0.0,0.0,0.0,0.0,0.0,0.0,0.0,0.0,0.0,0.0,0.0,0.0,0.0,0.0,0.0,0.0,0.0,0.0,0.0,0.0,0.0,0.0,0.0,0.0,0.0,0.0,0.0,0.0,0.0,0.0,0.0,0.0,0.0,0.0,0.0,0.0,0.0,0.0,0.0,0.0,-0.3602,-0.3367,-0.257,-0.1899,0.0,0.0,0.0,0.0,0.0,0.0,0.0,0.0,0.0,0.0,0.0,0.0,0.0,0.0,0.0,0.0,0.0,0.0,0.0,0.0,0.0,0.0,0.0,0.0,0.0,0.0,0.0,0.0,0.0,0.0,0.0,0.0,0.0,0.0,0.0,0.0,0.0,0.0,0.0,0.0,0.0,0.0,0.0,0.0,0.0,0.0,0.0,0.0,0.0,0.0,0.0,0.0,0.0,0.0,0.0,0.0,0.0,0.0,0.0,0.0,0.0,0.0,0.0,0.0,0.0,0.0,0.0,0.0,0.0,0.0,0.0,0.0,0.0,0.0,0.0,0.0,0.0,0.0,0.0,0.0,0.0,0.0,0.0,0.0,0.0,0.0,0.0,0.0,0.0,0.0,0.0,0.0,0.0,0.0,0.0,0.0,0.0,0.0,0.0,0.0,0.0,0.0,0.0,0.0,0.0,0.0,0.0,0.0,0.0,0.0,-0.4435,-0.4256,-0.3602,-0.271,-0.201,-0.1612,0.0,0.0,0.0,0.0,0.0,0.0,0.0,0.0,0.0,0.0,0.0,0.0,0.0,0.0,0.0,0.0,0.0,0.0,0.0,0.0,0.0,0.0,0.0,0.0,0.0,0.0,0.0,0.0,0.0,0.0,0.0,0.0,0.0,0.0,0.0,0.0,0.0,0.0,0.0,0.0,0.0,0.0,0.0,0.0,0.0,0.0,0.0,0.0,0.0,0.0,0.0,0.0,0.0,0.0,0.0,0.0,0.0,0.0,0.0,0.0,0.0,0.0,0.0,0.0,0.0,0.0,0.0,0.0,0.0,0.0,0.0,0.0,0.0,0.0,0.0,0.0,0.0,0.0,0.0,0.0,0.0,0.0,0.0,0.0,0.0,0.0,0.0,0.0,0.0,0.0,0.0,0.0,0.0,0.0,0.0,0.0,0.0,0.0,0.0,0.0,0.0,0.0,0.0,0.0,0.0,0.0,0.0,0.0,-0.6201,-0.5239,-0.4672,-0.4607,-0.324,-0.2302,0.0,0.0,0.0,0.0,0.0,0.0,0.0,0.0,0.0,0.0,0.0,0.0,0.0,0.0,0.0,0.0,0.0,0.0,0.0,0.0,0.0,0.0,0.0,0.0,0.0,0.0,0.0,0.0,0.0,0.0,0.0,0.0,0.0,0.0,0.0,0.0,0.0,0.0,0.0,0.0,0.0,0.0,0.0,0.0,0.0,0.0,0.0,0.0,0.0,0.0,0.0,0.0,0.0,0.0,0.0,0.0,0.0,0.0,0.0,0.0,0.0,0.0,0.0,0.0,0.0,0.0,0.0,0.0,0.0,0.0,0.0,0.0,0.0,0.0,0.0,0.0,0.0,0.0,0.0,0.0,0.0,0.0,0.0,0.0,0.0,0.0,0.0,0.0,0.0,0.0,0.0,0.0,0.0,0.0,0.0,0.0,0.0,0.0,0.0,0.0,0.0,0.0,0.0,0.0,0.0,0.0,0.0,0.0,0.0,-0.4668,-0.4442,-0.4812,-0.5739,-0.409,-0.3129,0.0,0.0,0.0,0.0,0.0,0.0,0.0,0.0,0.0,0.0,0.0,0.0,0.0,0.0,0.0,0.0,0.0,0.0,0.0,0.0,0.0,0.0,0.0,0.0,0.0,0.0,0.0,0.0,0.0,0.0,0.0,0.0,0.0,0.0,0.0,0.0,0.0,0.0,0.0,0.0,0.0,0.0,0.0,0.0,0.0,0.0,0.0,0.0,0.0,0.0,0.0,0.0,0.0,0.0,0.0,0.0,0.0,0.0,0.0,0.0,0.0,0.0,0.0,0.0,0.0,0.0,0.0,0.0,0.0,0.0,0.0,0.0,0.0,0.0,0.0,0.0,0.0,0.0,0.0,0.0,0.0,0.0,0.0,0.0,0.0,0.0,0.0,0.0,0.0,0.0,0.0,0.0,0.0,0.0,0.0,0.0,0.0,0.0,0.0,0.0,0.0,0.0,0.0,0.0,0.0,0.0,0.0,0.0,0.0,-0.4952,0.0,-0.6182,-0.6742,-0.518,-0.4004,0.0,0.0,0.0,0.0,0.0,0.0,0.0,0.0,0.0,0.0,0.0,0.0,0.0,0.0,0.0,0.0,0.0,0.0,0.0,0.0,0.0,0.0,0.0,0.0,0.0,0.0,0.0,0.0,0.0,0.0,0.0,0.0,0.0,0.0,0.0,0.0,0.0,0.0,0.0,0.0,0.0,0.0,0.0,0.0,0.0,0.0,0.0,0.0,0.0,0.0,0.0,0.0,0.0,0.0,0.0,0.0,0.0,0.0,0.0,0.0,0.0,0.0,0.0,0.0,0.0,0.0,0.0,0.0,0.0,0.0,0.0,0.0,0.0,0.0,0.0,0.0,0.0,0.0,0.0,0.0,0.0,0.0,0.0,0.0,0.0,0.0,0.0,0.0,0.0,0.0,0.0,0.0,0.0,0.0,0.0,0.0,0.0,0.0,0.0,0.0,0.0,0.0,0.0,0.0,0.0,0.0,0.0,0.0,-0.5419,-0.7488,-0.8714,-0.8717,-0.7668,-0.6482,-0.492,0.0,0.0,0.0,0.0,0.0,0.0,0.0,0.0,0.0,0.0,0.0,0.0,0.0,0.0,0.0,0.0,0.0,0.0,0.0,0.0,0.0,0.0,0.0,0.0,0.0,0.0,0.0,0.0,0.0,0.0,0.0,0.0,0.0,0.0,0.0,0.0,0.0,0.0,0.0,0.0,0.0,0.0,0.0,0.0,0.0,0.0,0.0,0.0,0.0,0.0,0.0,0.0,0.0,0.0,0.0,0.0,0.0,0.0,0.0,0.0,0.0,0.0,0.0,0.0,0.0,0.0,0.0,0.0,0.0,0.0,0.0,0.0,0.0,0.0,0.0,0.0,0.0,0.0,0.0,0.0,0.0,0.0,0.0,0.0,0.0,0.0,0.0,0.0,0.0,0.0,0.0,0.0,0.0,0.0,0.0,0.0,0.0,0.0,0.0,0.0,0.0,0.0,0.0,0.0,0.0,0.0,0.0,0.0,0.0,-0.7431,-0.8229,-0.8913,-0.9282,-0.731,-0.6109,0.0,0.0,0.0,0.0,0.0,0.0,0.0,0.0,0.0,0.0,0.0,0.0,0.0,0.0,0.0,0.0,0.0,0.0,0.0,0.0,0.0,0.0,0.0,0.0,0.0,0.0,0.0,0.0,0.0,0.0,0.0,0.0,0.0,0.0,0.0,0.0,0.0,0.0,0.0,0.0,0.0,0.0,0.0,0.0,0.0,0.0,0.0,0.0,0.0,0.0,0.0,0.0,0.0,0.0,0.0,0.0,0.0,0.0,0.0,0.0,0.0,0.0,0.0,0.0,0.0,0.0,0.0,0.0,0.0,0.0,0.0,0.0,0.0,0.0,0.0,0.0,0.0,0.0,0.0,0.0,0.0,0.0,0.0,0.0,0.0,0.0,0.0,0.0,0.0,0.0,0.0,0.0,0.0,0.0,0.0,0.0,0.0,0.0,0.0,0.0,0.0,0.0,0.0,0.0,0.0,0.0,0.0,0.0,0.0,-0.898,-0.9916,-1.0545,-1.0699,-0.8651,-0.7311,-0.6856,0.0,0.0,0.0,0.0,0.0,0.0,0.0,0.0,0.0,0.0,0.0,0.0,0.0,0.0,0.0,0.0,0.0,0.0,0.0,0.0,0.0,0.0,0.0,0.0,0.0,0.0,0.0,0.0,0.0,0.0,0.0,0.0,0.0,0.0,0.0,0.0,0.0,0.0,0.0,0.0,0.0,0.0,0.0,0.0,0.0,0.0,0.0,0.0,0.0,0.0,0.0,0.0,0.0,0.0,0.0,0.0,0.0,0.0,0.0,0.0,0.0,0.0,0.0,0.0,0.0,0.0,0.0,0.0,0.0,0.0,0.0,0.0,0.0,0.0,0.0,0.0,0.0,0.0,0.0,0.0,0.0,0.0,0.0,0.0,0.0,0.0,0.0,0.0,0.0,0.0,0.0,0.0,0.0,0.0,0.0,0.0,0.0,0.0,0.0,0.0,0.0,0.0,0.0,0.0,0.0,0.0,0.0,0.0,-1.1626,-1.334,-1.3421,-1.178,-1.0395,-0.8579,0.0,0.0,0.0,0.0,0.0,0.0,0.0,0.0,0.0,0.0,0.0,0.0,0.0,0.0,0.0,0.0,0.0,0.0,0.0,0.0,0.0,0.0,0.0,0.0,0.0,0.0,0.0,0.0,0.0,0.0,0.0,0.0,0.0,0.0,0.0,0.0,0.0,0.0,0.0,0.0,0.0,0.0,0.0,0.0,0.0,0.0,0.0,0.0,0.0,0.0,0.0,0.0,0.0,0.0,0.0,0.0,0.0,0.0,0.0,0.0,0.0,0.0,0.0,0.0,0.0,0.0,0.0,0.0,0.0,0.0,0.0,0.0,0.0,0.0,0.0,0.0,0.0,0.0,0.0,0.0,0.0,0.0,0.0,0.0,0.0,0.0,0.0,0.0,0.0,0.0,0.0,0.0,0.0,0.0,0.0,0.0,0.0,0.0,0.0,0.0,0.0,0.0,0.0,0.0,0.0,0.0,0.0,0.0,0.0,-1.2109,-1.4508,-1.5049,-1.3475,-1.1616,-1.007,0.0,0.0,0.0,0.0,0.0,0.0,0.0,0.0,0.0,0.0,0.0,0.0,0.0,0.0,0.0,0.0,0.0,0.0,0.0,0.0,0.0,0.0,0.0,0.0,0.0,0.0,0.0,0.0,0.0,0.0,0.0,0.0,0.0,0.0,0.0,0.0,0.0,0.0,0.0,0.0,0.0,0.0,0.0,0.0,0.0,0.0,0.0,0.0,0.0,0.0,0.0,0.0,0.0,0.0,0.0,0.0,0.0,0.0,0.0,0.0,0.0,0.0,0.0,0.0,0.0,0.0,0.0,0.0,0.0,0.0,0.0,0.0,0.0,0.0,0.0,0.0,0.0,0.0,0.0,0.0,0.0,0.0,0.0,0.0,0.0,0.0,0.0,0.0,0.0,0.0,0.0,0.0,0.0,0.0,0.0,0.0,0.0,0.0,0.0,0.0,0.0,0.0,0.0,0.0,0.0,0.0,0.0,0.0,-1.2767,-1.3415,-1.5348,-1.5881,-1.4801,-1.2977,-1.1286,0.0,0.0,0.0,0.0,0.0,0.0,0.0,0.0,0.0,0.0,0.0,0.0,0.0,0.0,0.0,0.0,0.0,0.0,0.0,0.0,0.0,0.0,0.0,0.0,0.0,0.0,0.0,0.0,0.0,0.0,0.0,0.0,0.0,0.0,0.0,0.0,0.0,0.0,0.0,0.0,0.0,0.0,0.0,0.0,0.0,0.0,0.0,0.0,0.0,0.0,0.0,0.0,0.0,0.0,0.0,0.0,0.0,0.0,0.0,0.0,0.0,0.0,0.0,0.0,0.0,0.0,0.0,0.0,0.0,0.0,0.0,0.0,0.0,0.0,0.0,0.0,0.0,0.0,0.0,0.0,0.0,0.0,0.0,0.0,0.0,0.0,0.0,0.0,0.0,0.0,0.0,0.0,0.0,0.0,0.0,0.0,0.0,0.0,0.0,0.0,0.0,0.0,0.0,0.0,0.0,0.0,0.0,0.0,-1.3938,-1.5165,-1.6092,-1.6326,-1.5735,-1.4212,-1.2263,0.0,0.0,0.0,0.0,0.0,0.0,0.0,0.0,0.0,0.0,0.0,0.0,0.0,0.0,0.0,0.0,0.0,0.0,0.0,0.0,0.0,0.0,0.0,0.0,0.0,0.0,0.0,0.0,0.0,0.0,0.0,0.0,0.0,0.0,0.0,0.0,0.0,0.0,0.0,0.0,0.0,0.0,0.0,0.0,0.0,0.0,0.0,0.0,0.0,0.0,0.0,0.0,0.0,0.0,0.0,0.0,0.0,0.0,0.0,0.0,0.0,0.0,0.0,0.0,0.0,0.0,0.0,0.0,0.0,0.0,0.0,0.0,0.0,0.0,0.0,0.0,0.0,0.0,0.0,0.0,0.0,0.0,0.0,0.0,0.0,0.0,0.0,0.0,0.0,0.0,0.0,0.0,0.0,0.0,0.0,0.0,0.0,0.0,0.0,0.0,0.0,0.0,0.0,0.0,0.0,0.0,0.0,0.0,-1.4778,-1.5722,-1.7036,-1.7241,-1.6184,-1.444,-1.2764,0.0,0.0,0.0,0.0,0.0,0.0,0.0,0.0,0.0,0.0,0.0,0.0,0.0,0.0,0.0,0.0,0.0,0.0,0.0,0.0,0.0,0.0,0.0,0.0,0.0,0.0,0.0,0.0,0.0,0.0,0.0,0.0,0.0,0.0,0.0,0.0,0.0,0.0,0.0,0.0,0.0,0.0,0.0,0.0,0.0,0.0,0.0,0.0,-0.3155,0.0,0.0,0.0,0.0,0.0,0.0,0.0,0.0,0.0,0.0,0.0,0.0,0.0,0.0,0.0,0.0,0.0,0.0,0.0,0.0,0.0,0.0,0.0,0.0,0.0,0.0,0.0,0.0,0.0,0.0,0.0,0.0,0.0,0.0,0.0,0.0,0.0,0.0,0.0,0.0,0.0,0.0,0.0,0.0,0.0,0.0,0.0,0.0,0.0,0.0,0.0,0.0,0.0,0.0,0.0,0.0,0.0,0.0,0.0,-1.5811,-1.6936,-1.7717,-1.7672,-1.6711,-1.5303,-1.3616,0.0,0.0,0.0,0.0,0.0,0.0,0.0,0.0,0.0,0.0,0.0,0.0,0.0,0.0,0.0,0.0,0.0,0.0,0.0,0.0,0.0,0.0,0.0,0.0,0.0,0.0,0.0,0.0,0.0,0.0,0.0,0.0,0.0,0.0,0.0,0.0,0.0,0.0,0.0,0.0,0.0,0.0,0.0,0.0,0.0,0.0,0.0,0.0,0.0,0.0,0.0,0.0,0.0,0.0,0.0,0.0,0.0,0.0,0.0,0.0,0.0,0.0,0.0,0.0,0.0,0.0,0.0,0.0,0.0,0.0,0.0,0.0,0.0,0.0,0.0,0.0,0.0,0.0,0.0,0.0,0.0,0.0,0.0,0.0,0.0,0.0,0.0,0.0,0.0,0.0,0.0,0.0,0.0,0.0,0.0,0.0,0.0,0.0,0.0,0.0,0.0,0.0,0.0,0.0,0.0,0.0,0.0,-1.4798,-1.6657,-1.8214,-1.826,-1.7891,-1.7219,-1.6318,-1.4614,-1.1978,0.0,0.0,0.0,0.0,0.0,0.0,0.0,0.0,0.0,0.0,0.0,0.0,0.0,0.0,0.0,0.0,0.0,0.0,0.0,0.0,0.0,0.0,0.0,0.0,0.0,0.0,0.0,0.0,0.0,0.0,0.0,0.0,0.0,0.0,0.0,0.0,0.0,0.0,-0.2745,-0.3896,0.0,0.0,0.0,0.0,0.0,0.0,0.0,0.0,-0.4689,0.0,0.0,0.0,0.0,0.0,0.0,0.0,0.0,0.0,0.0,0.0,0.0,0.0,0.0,0.0,0.0,0.0,0.0,0.0,0.0,0.0,0.0,0.0,0.0,0.0,0.0,0.0,0.0,0.0,0.0,0.0,0.0,0.0,0.0,0.0,0.0,0.0,0.0,0.0,0.0,0.0,0.0,0.0,0.0,0.0,0.0,0.0,0.0,0.0,0.0,0.0,0.0,0.0,0.0,0.0,0.0,-1.416,-1.4843,-1.637,-1.8794,-1.8859,-1.8321,-1.7246,-1.6716,-1.5278,-1.2773,0.0,0.0,0.0,0.0,0.0,0.0,0.0,0.0,0.0,0.0,0.0,0.0,0.0,0.0,0.0,0.0,0.0,0.0,0.0,0.0,0.0,0.0,0.0,0.0,0.0,0.0,0.0,0.0,0.0,0.0,0.0,0.0,0.0,0.0,0.0,0.0,0.0,0.0,0.0,-0.471,-0.5381,0.0,0.0,0.0,0.0,0.0,0.0,0.0,0.0,-0.5303,0.0,0.0,0.0,0.0,0.0,0.0,0.0,0.0,0.0,0.0,0.0,0.0,0.0,0.0,0.0,0.0,0.0,0.0,0.0,0.0,0.0,0.0,0.0,0.0,0.0,0.0,0.0,0.0,0.0,0.0,0.0,0.0,0.0,0.0,0.0,0.0,0.0,0.0,0.0,0.0,0.0,0.0,0.0,0.0,0.0,0.0,0.0,0.0,0.0,0.0,0.0,0.0,0.0,0.0,0.0,-1.4315,-1.5603,-1.7135,-1.8941,-1.9013,-1.8563,-1.7688,-1.6742,-1.5311,0.0,0.0,0.0,0.0,0.0,0.0,0.0,0.0,0.0,0.0,0.0,0.0,0.0,0.0,0.0,0.0,0.0,0.0,0.0,0.0,0.0,0.0,0.0,0.0,0.0,0.0,0.0,0.0,0.0,0.0,0.0,0.0,0.0,0.0,0.0,0.0,0.0,0.0,0.0,0.0,-0.5558,-0.6211,-0.6444,0.0,0.0,0.0,0.0,0.0,0.0,-0.6618,-0.6254,0.0,0.0,0.0,0.0,0.0,0.0,0.0,0.0,0.0,0.0,0.0,0.0,0.0,0.0,0.0,0.0,0.0,0.0,0.0,0.0,0.0,0.0,0.0,0.0,0.0,0.0,0.0,0.0,0.0,0.0,0.0,0.0,0.0,0.0,0.0,0.0,0.0,0.0,0.0,0.0,0.0,0.0,0.0,0.0,0.0,0.0,0.0,0.0,0.0,0.0,0.0,0.0,0.0,0.0,0.0,-1.4153,-1.6211,-1.7796,-1.8939,-1.9203,-1.8934,-1.812,-1.6856,-1.5423,0.0,0.0,0.0,0.0,0.0,0.0,0.0,0.0,0.0,0.0,0.0,0.0,0.0,0.0,0.0,0.0,0.0,0.0,0.0,0.0,0.0,0.0,0.0,0.0,0.0,0.0,0.0,0.0,0.0,0.0,0.0,0.0,0.0,0.0,0.0,0.0,0.0,0.0,0.0,0.0,0.0,-0.7181,-0.7542,-0.7429,0.0,0.0,0.0,0.0,-0.7843,-0.7712,0.0,0.0,0.0,0.0,0.0,0.0,0.0,0.0,0.0,0.0,0.0,0.0,0.0,0.0,0.0,0.0,0.0,0.0,0.0,0.0,0.0,0.0,0.0,0.0,0.0,0.0,0.0,0.0,0.0,0.0,0.0,0.0,0.0,0.0,0.0,0.0,0.0,0.0,0.0,0.0,0.0,0.0,0.0,0.0,0.0,0.0,0.0,0.0,0.0,0.0,0.0,0.0,0.0,0.0,0.0,0.0,-1.3803,-1.5727,-1.7423,-1.8939,-1.9937,-1.9681,-1.8154,-1.7543,-1.5949,0.0,0.0,0.0,0.0,0.0,0.0,0.0,0.0,0.0,0.0,0.0,0.0,0.0,0.0,0.0,0.0,0.0,0.0,0.0,0.0,0.0,0.0,0.0,0.0,0.0,0.0,0.0,0.0,0.0,0.0,0.0,0.0,0.0,0.0,0.0,0.0,0.0,0.0,0.0,0.0,0.0,-0.823,-0.8288,-0.8257,-0.8349,0.0,0.0,-0.8852,-0.9506,-0.9111,0.0,0.0,0.0,0.0,0.0,0.0,0.0,0.0,0.0,0.0,0.0,0.0,0.0,0.0,0.0,0.0,0.0,0.0,0.0,0.0,0.0,0.0,0.0,0.0,0.0,0.0,0.0,0.0,0.0,0.0,0.0,0.0,0.0,0.0,0.0,0.0,0.0,0.0,0.0,0.0,0.0,0.0,0.0,0.0,0.0,0.0,0.0,0.0,0.0,0.0,0.0,0.0,0.0,0.0,0.0,-1.139,-1.403,-1.6033,-1.7676,-1.8951,-1.9456,-1.9359,-1.8614,-1.7058,-1.5381,0.0,0.0,0.0,0.0,0.0,0.0,0.0,0.0,0.0,0.0,0.0,0.0,0.0,0.0,0.0,0.0,0.0,0.0,0.0,0.0,0.0,0.0,0.0,0.0,0.0,0.0,0.0,0.0,0.0,0.0,0.0,0.0,0.0,0.0,0.0,0.0,0.0,0.0,0.0,0.0,0.0,0.0,-0.8858,-0.9058,0.0,0.0,0.0,-0.9616,-0.98,0.0,0.0,0.0,0.0,0.0,0.0,0.0,0.0,0.0,0.0,0.0,0.0,0.0,0.0,0.0,0.0,0.0,0.0,0.0,0.0,0.0,0.0,0.0,0.0,0.0,0.0,0.0,0.0,0.0,0.0,0.0,0.0,0.0,0.0,0.0,0.0,0.0,0.0,0.0,0.0,0.0,0.0,0.0,0.0,0.0,0.0,0.0,0.0,0.0,0.0,0.0,0.0,0.0,0.0,0.0,0.0,0.0,-1.4329,-1.6508,-1.8086,-1.9016,-1.9332,-1.9371,-1.9013,-1.685,0.0,0.0,0.0,0.0,0.0,0.0,0.0,0.0,0.0,0.0,0.0,0.0,0.0,0.0,0.0,0.0,0.0,0.0,0.0,0.0,0.0,0.0,0.0,0.0,0.0,0.0,0.0,-0.2728,0.0,0.0,0.0,0.0,0.0,0.0,0.0,0.0,0.0,0.0,0.0,0.0,0.0,0.0,-0.8864,-0.9423,-0.975,-1.0001,0.0,0.0,-1.0248,-1.0186,-1.0023,-0.9434,0.0,0.0,0.0,0.0,0.0,0.0,0.0,0.0,0.0,0.0,0.0,0.0,0.0,0.0,0.0,0.0,0.0,0.0,0.0,0.0,0.0,0.0,0.0,0.0,0.0,0.0,0.0,0.0,0.0,0.0,0.0,0.0,0.0,0.0,0.0,0.0,0.0,0.0,0.0,0.0,0.0,0.0,0.0,0.0,0.0,0.0,0.0,0.0,0.0,0.0,0.0,0.0,0.0,0.0,0.0,-1.4472,-1.701,-1.8589,-1.9182,-2.0278,-2.0315,-1.9206,-1.7635,-1.5971,0.0,0.0,0.0,0.0,0.0,0.0,0.0,0.0,0.0,0.0,0.0,0.0,0.0,0.0,0.0,0.0,0.0,0.0,0.0,0.0,0.0,0.0,0.0,0.0,0.0,0.0,0.0,0.0,0.0,0.0,0.0,0.0,0.0,0.0,0.0,0.0,0.0,0.0,0.0,0.0,0.0,-1.0114,-1.0072,-1.039,-1.0781,0.0,0.0,-1.0781,-1.1148,-1.0965,-1.0277,-0.8695,0.0,0.0,0.0,0.0,0.0,0.0,0.0,0.0,0.0,0.0,0.0,0.0,0.0,0.0,0.0,0.0,0.0,0.0,0.0,0.0,0.0,0.0,0.0,0.0,0.0,0.0,0.0,0.0,0.0,0.0,0.0,0.0,0.0,0.0,0.0,0.0,0.0,0.0,0.0,0.0,0.0,0.0,0.0,0.0,0.0,0.0,0.0,0.0,0.0,0.0,0.0,0.0,0.0,-1.2099,-1.4348,-1.6706,-1.8323,-1.9184,-1.9731,-1.9624,-1.8851,-1.7341,-1.5758,0.0,0.0,0.0,0.0,0.0,0.0,0.0,0.0,0.0,0.0,0.0,0.0,0.0,0.0,0.0,0.0,0.0,0.0,0.0,0.0,0.0,0.0,0.0,0.0,0.0,0.0,0.0,0.0,-0.3786,-0.3918,-0.3908,0.0,0.0,0.0,0.0,0.0,0.0,0.0,0.0,0.0,0.0,-1.0791,-1.0841,-1.1175,0.0,0.0,-1.1173,-1.1064,-1.1057,-1.0598,-0.9845,-0.8745,-0.8083,0.0,0.0,0.0,0.0,0.0,0.0,0.0,0.0,0.0,0.0,0.0,0.0,0.0,0.0,0.0,0.0,0.0,0.0,0.0,0.0,0.0,0.0,0.0,0.0,0.0,0.0,0.0,0.0,0.0,0.0,0.0,0.0,0.0,0.0,0.0,0.0,0.0,0.0,0.0,0.0,0.0,0.0,0.0,0.0,0.0,0.0,0.0,0.0,0.0,0.0,0.0,0.0,-1.2319,-1.4627,-1.6834,-1.8497,-1.9587,-1.9533,-1.9335,-1.8868,-1.7242,-1.5692,0.0,0.0,0.0,0.0,0.0,0.0,0.0,0.0,0.0,0.0,0.0,0.0,0.0,0.0,0.0,0.0,0.0,0.0,0.0,0.0,0.0,0.0,0.0,0.0,0.0,0.0,0.0,0.0,-0.4123,-0.4101,-0.3912,0.0,0.0,0.0,0.0,0.0,0.0,0.0,0.0,0.0,0.0,-1.1393,-1.1619,-1.1688,-1.1653,-1.1502,-1.1477,-1.1368,-1.1074,-1.0523,-0.9922,-0.9223,0.0,0.0,0.0,0.0,0.0,0.0,0.0,0.0,0.0,0.0,0.0,0.0,0.0,0.0,0.0,0.0,0.0,0.0,0.0,0.0,0.0,0.0,0.0,0.0,0.0,0.0,0.0,-0.5453,0.0,0.0,-0.4579,0.0,0.0,0.0,0.0,0.0,0.0,0.0,0.0,0.0,0.0,0.0,0.0,0.0,0.0,0.0,0.0,0.0,0.0,0.0,0.0,0.0,0.0,-1.2702,-1.5455,-1.7655,-1.9318,-2.0412,-2.0016,-1.9705,-1.9476,-1.7524,-1.594,-1.4953,0.0,0.0,0.0,0.0,0.0,0.0,0.0,0.0,0.0,0.0,0.0,0.0,0.0,0.0,0.0,0.0,0.0,0.0,0.0,0.0,0.0,0.0,0.0,0.0,0.0,0.0,-0.4576,-0.4169,-0.3908,0.0,0.0,0.0,0.0,0.0,0.0,0.0,0.0,0.0,0.0,-1.1265,-1.1964,-1.2395,-1.1828,-1.1477,-1.1819,-1.1868,-1.1744,-1.1326,-1.1098,-1.0818,0.0,0.0,0.0,0.0,0.0,0.0,0.0,0.0,0.0,0.0,0.0,0.0,0.0,0.0,0.0,0.0,0.0,0.0,0.0,0.0,0.0,0.0,0.0,0.0,0.0,0.0,0.0,-0.8102,-0.7523,0.0,0.0,0.0,0.0,0.0,0.0,0.0,0.0,0.0,0.0,0.0,-1.2507,-1.3198,0.0,0.0,0.0,0.0,0.0,0.0,0.0,0.0,0.0,0.0,0.0,0.0,-1.3729,-1.6438,-1.8424,-1.9693,-2.0334,-1.9989,-1.938,-1.8487,-1.7153,-1.553,-1.3598,0.0,0.0,0.0,0.0,0.0,0.0,0.0,0.0,0.0,0.0,0.0,0.0,0.0,0.0,0.0,0.0,0.0,0.0,0.0,0.0,0.0,0.0,0.0,0.0,0.0,-0.4699,0.0,0.0,0.0,0.0,0.0,0.0,0.0,0.0,0.0,0.0,0.0,-1.1148,-1.1655,-1.2738,-1.3326,-1.2886,-1.2412,-1.2051,0.0,0.0,0.0,0.0,0.0,0.0,0.0,0.0,0.0,0.0,0.0,0.0,0.0,0.0,-0.9584,-0.8559,-0.7748,-0.7383,-0.7834,0.0,0.0,0.0,0.0,0.0,0.0,0.0,0.0,0.0,0.0,0.0,0.0,0.0,0.0,-1.0459,0.0,-0.9115,0.0,0.0,0.0,0.0,0.0,0.0,0.0,0.0,-1.2731,-1.3713,-1.4517,-1.4966,-1.543,0.0,-1.575,-1.4801,0.0,0.0,0.0,0.0,0.0,0.0,0.0,0.0,-1.4817,-1.7288,-1.8905,-2.0001,-2.0568,-1.9841,-1.9028,-1.8181,-1.6747,-1.5124,-1.3348,-1.157,-1.0077,0.0,0.0,0.0,0.0,0.0,0.0,0.0,0.0,0.0,0.0,0.0,0.0,0.0,0.0,0.0,0.0,0.0,0.0,0.0,0.0,0.0,0.0,0.0,-0.5115,0.0,0.0,0.0,0.0,0.0,0.0,0.0,0.0,0.0,-0.9459,-1.0925,-1.23,-1.3132,-1.3585,-1.3756,-1.349,0.0,0.0,0.0,0.0,0.0,0.0,0.0,-1.1547,-1.1436,-1.1465,-1.1435,-1.1198,-1.1845,-1.2256,-1.1704,0.0,0.0,-0.9903,-0.8915,-0.8384,-0.8868,-0.86,-0.8335,-0.8487,-0.8876,-0.9203,0.0,0.0,0.0,0.0,0.0,0.0,0.0,0.0,-1.2797,-1.2848,0.0,-1.1689,0.0,0.0,0.0,0.0,-1.0872,-1.2677,0.0,0.0,-1.5116,-1.6011,-1.6493,-1.7012,-1.7655,-1.8473,-1.9093,-1.8839,-1.7599,-1.4456,0.0,0.0,0.0,0.0,0.0,0.0,-1.5932,-1.8027,-1.9206,-2.0236,-2.1135,-1.958,-1.8682,-1.8523,-1.6267,-1.4764,-1.4184,-1.2623,-1.1046,-0.9513,-0.8142,0.0,0.0,0.0,0.0,0.0,0.0,0.0,0.0,0.0,0.0,0.0,0.0,0.0,0.0,0.0,0.0,0.0,0.0,0.0,0.0,-0.601,0.0,0.0,0.0,0.0,0.0,0.0,0.0,0.0,0.0,0.0,-1.1418,-1.1943,-1.2964,-1.4749,0.0,0.0,0.0,0.0,-1.2241,-1.2927,-1.2689,-1.2431,-1.2403,-1.2788,-1.3148,-1.3276,0.0,0.0,-1.1781,-1.2328,-1.2607,-1.18,-1.1898,-1.2058,-1.1665,-1.0321,-0.9445,-0.9642,-0.9648,-0.9416,-0.9054,-0.9709,-1.0261,-2.0153,0.0,0.0,0.0,0.0,-1.5704,-1.6144,-1.7049,-1.6872,-1.6071,-1.4908,-1.4255,0.0,0.0,0.0,0.0,0.0,0.0,-1.5399,-1.6048,-1.7129,-1.7885,-1.832,-1.8469,-1.8892,-1.9532,-1.9766,-1.9881,-1.9848,-1.8554,-1.6535,-1.3958,0.0,0.0,0.0,0.0,-1.7833,-1.9165,-2.0286,-2.0723,-2.0441,-1.9285,-1.8178,-1.7077,-1.5717,-1.4883,-1.4645,-1.2713,-1.131,-1.0537,-0.8904,0.0,0.0,0.0,0.0,0.0,0.0,0.0,0.0,0.0,0.0,0.0,0.0,0.0,0.0,0.0,0.0,0.0,0.0,0.0,-0.6053,-0.6157,-0.6305,0.0,0.0,0.0,0.0,0.0,0.0,0.0,0.0,0.0,-1.3803,-1.4369,-1.4758,0.0,0.0,-1.4897,-1.4816,-1.416,-1.3652,-1.3529,-1.3165,0.0,-1.2877,-1.3176,-1.3481,-1.3755,-1.3501,-1.3121,-1.2736,-1.2787,-1.272,-1.212,-1.1746,-1.1334,-1.0871,-1.0514,-1.0376,-1.0744,-1.0515,-1.0441,-1.0996,-1.1147,-1.1175,-2.2923,-2.0645,-1.8605,-1.8071,-1.8464,-1.7812,-1.804,-1.8818,-1.8528,-1.7956,-1.7155,-1.6648,-1.5731,-1.4599,-1.3888,0.0,0.0,0.0,-1.6715,-1.7564,-1.8123,-1.8745,-1.9357,-1.9378,-1.9745,-2.0403,-2.0232,-2.044,-2.0986,-2.0799,-1.946,-1.6974,0.0,0.0,-1.6722,-1.7869,-1.877,-1.9429,-1.9989,-2.0151,-1.9811,-1.8811,-1.7684,-1.6433,-1.5511,-1.4945,-1.4793,-1.2732,-1.1469,-1.1151,-0.94,-0.8012,0.0,0.0,0.0,0.0,0.0,0.0,0.0,0.0,0.0,0.0,0.0,-0.4381,-0.4173,0.0,0.0,0.0,-0.5787,-0.6496,-0.7329,-0.7387,0.0,0.0,0.0,0.0,0.0,0.0,0.0,-1.2402,-1.3395,-1.4249,-1.4924,-1.5395,-1.5662,-1.556,-1.5492,-1.5396,-1.5308,0.0,-1.4297,-1.4011,-1.3608,-1.3394,-1.352,-1.3792,-1.4091,-1.4342,-1.4016,-1.3639,-1.3387,-1.2949,-1.2505,-1.2181,-1.1476,-1.077,-1.0446,-1.0464,-1.0525,-1.0669,-1.0711,-1.0854,-1.1108,-1.1217,-1.1342,-2.4482,-2.3607,-2.106,-2.0038,-1.9979,-1.9119,-1.8723,-1.8735,-1.8714,-1.8827,-1.9127,-1.8714,-1.8496,-1.8368,-1.7089,0.0,-1.773,-1.7317,-1.7647,-1.8528,-1.859,-1.9077,-1.9886,-1.9948,-2.0358,-2.1145,-2.0731,-2.082,-2.132,-2.162,-2.1328,-2.0393,-1.9364,-1.867,-1.8372,-1.8883,-1.9114,-1.8947,-1.8888,-1.8962,-1.9171,-1.8185,-1.7223,-1.6332,-1.5463,-1.4898,-1.4669,-1.2688,-1.1516,-1.1324,-0.9706,-0.8458,-0.7749,0.0,0.0,0.0,0.0,0.0,0.0,0.0,0.0,0.0,0.0,0.0,0.0,0.0,0.0,0.0,-0.7387,0.0,-0.917,-0.9218,0.0,0.0,0.0,-1.007,-1.1437,-1.2423,-1.3359,-1.4264,0.0,0.0,-1.504,-1.5396,-1.5856,-1.6298,-1.5608,-1.5207,-1.5687,-1.5111,-1.4511,-1.4449,-1.4071,-1.3912,-1.4282,-1.4621,-1.4849,-1.4944,-1.4552,-1.4113,-1.3753,-1.2918,-1.2289,-1.2132,-1.1183,-1.0403,-1.0403,-1.0403,-1.0267,-0.9899,-1.0566,-1.0914,-1.0277,-1.0617,-1.093,-2.5141,-2.3286,-2.2117,-2.1915,-2.2325,-2.1766,-2.1518,-2.1487,-2.1145,-2.0472,-1.9637,-1.9534,-1.889,-1.7851,-1.7523,-1.7709,-1.8237,-1.8485,-1.8932,-1.9492,-2.0141,-2.0586,-2.0803,-2.1145,-2.1435,-2.1631,-2.1528,-2.1514,-2.169,-2.1771,-2.164,-2.1314,-2.0441,-1.9768,-1.9377,-2.0297,-2.0086,-1.8699,-1.9058,-1.8705,-1.7609,-1.7314,-1.6689,-1.5728,-1.5153,-1.4572,-1.3981,-1.2337,-1.1375,-1.1217,-1.007,-0.8992,-0.8121,-0.7237,0.0,0.0,0.0,0.0,0.0,0.0,0.0,0.0,0.0,-0.6419,-0.5556,0.0,-0.7542,0.0,-0.8336,-0.8993,-0.9435,-0.9226,0.0,0.0,-1.0801,-1.1455,-1.2993,-1.3626,-1.4184,-1.4764,-1.5027,-1.5109,-1.4946,-1.5371,-1.574,-1.5846,-1.5679,-1.5696,-1.6151,-1.6097,-1.5792,-1.5398,-1.4907,-1.4779,-1.5196,-1.5498,-1.5562,-1.5394,-1.5029,-1.4629,-1.4084,-1.3297,-1.2524,-1.1846,-1.1015,-1.048,-1.0403,-1.0403,-1.0557,-1.0753,-1.1057,-1.1284,-1.1435,-1.1023,-1.0651,-2.5051,-2.3299,-2.2712,-2.279,-2.3255,-2.2239,-2.1957,-2.217,-2.1911,-2.1223,-2.0297,-2.0297,-1.9997,-1.9507,-1.929,-1.9331,-1.9603,-1.9679,-1.9924,-2.0389,-2.0766,-2.1069,-2.1285,-2.1542,-2.1617,-2.154,-2.1617,-2.1617,-2.154,-2.1911,-2.1944,-2.1749,-2.1531,-2.0975,-2.0091,-2.0271,-1.965,-1.817,-1.8207,-1.7672,-1.6582,-1.6725,-1.6359,-1.5426,-1.4958,-1.4407,-1.3694,-1.2191,-1.1272,-1.1019,-0.999,-0.9116,-0.8458,-0.775,-0.7107,0.0,0.0,0.0,0.0,0.0,0.0,0.0,0.0,0.0,0.0,0.0,-0.8609,-0.9177,-0.9602,-1.0134,-1.0852,-1.0735,-1.1002,-1.1974,-1.2245,-1.2864,-1.4134,-1.4673,-1.5114,-1.5563,-1.5457,-1.5223,-1.4952,-1.5157,-1.5352,-1.5342,-1.5566,-1.5856,-1.6288,-1.6402,-1.623,-1.5769,-1.5439,-1.5313,-1.5556,-1.5759,-1.5833,-1.561,-1.5249,-1.4835,-1.434,-1.3423,-1.2481,-1.1738,-1.1065,-1.0565,-1.0446,-1.0854,-1.1267,-1.151,-1.1785,-1.1868,-1.1719,-1.1183,-1.0821,-2.45,-2.3272,-2.2745,-2.2857,-2.3173,-2.1658,-2.1406,-2.1983,-2.1834,-2.1349,-2.0672,-2.0662,-2.1008,-2.1532,-2.1151,-2.104,-2.1046,-2.0638,-2.0638,-2.0994,-2.0923,-2.1087,-2.1502,-2.1502,-2.1397,-2.1205,-2.1336,-2.1306,-2.1163,-2.1859,-2.2089,-2.1799,-2.2179,-2.1743,-2.0531,-1.9659,-1.8668,-1.7573,-1.7057,-1.6475,-1.5934,-1.6306,-1.6104,-1.5315,-1.4824,-1.4286,-1.3678,-1.22,-1.1203,-1.0845,-0.9838,-0.9136,-0.8829,-0.8209,-0.796,0.0,-0.7631,0.0,0.0,0.0,0.0,0.0,0.0,0.0,0.0,-0.9184,-0.9597,-1.07,-1.0966,-1.1498,-1.2482,-1.2565,-1.2692,-1.2975,-1.3423,-1.403,-1.4861,-1.5414,-1.5845,-1.6275,-1.5904,-1.541,-1.4863,-1.4863,-1.4893,-1.4981,-1.5459,-1.5972,-1.6316,-1.6402,-1.6259,-1.5817,-1.5769,-1.5662,-1.5478,-1.5643,-1.5846,-1.568,-1.5403,-1.4966,-1.462,-1.3451,-1.2356,-1.1824,-1.1217,-1.0794,-1.0633,-1.1444,-1.2076,-1.2175,-1.2529,-1.2529,-1.176,-1.1334,-1.1057,-2.3885,-2.232,-2.1506,-2.1655,-2.2308,-2.1868,-2.2182,-2.2854,-2.1948,-2.0791,-1.9554,-1.9449,-1.983,-2.0472,-2.0364,-2.0606,-2.1056,-2.0602,-2.0436,-2.054,-2.1107,-2.142,-2.1502,-2.1502,-2.1397,-2.1185,-2.1011,-2.0849,-2.073,-2.1225,-2.1473,-2.1538,-2.0952,-2.0658,-2.0568,0.0,0.0,0.0,-1.6799,-1.6356,-1.5915,-1.5965,-1.5716,-1.5083,-1.4646,0.0,-1.3525,-1.2067,-1.1191,-1.1106,-1.0089,0.0,0.0,0.0,0.0,0.0,0.0,0.0,0.0,0.0,0.0,0.0,-0.9342,-0.9285,-0.9614,-1.0672,-1.1477,-1.172,-1.1982,-1.2202,-1.2432,-1.2443,-1.2601,-1.2969,-1.3423,-1.4005,-1.481,-1.5389,-1.5737,-1.5807,-1.5371,-1.4863,-1.4517,-1.4656,-1.4893,-1.4981,-1.5691,-1.6259,-1.6374,-1.6402,-1.6374,-1.6259,-1.6095,-1.5826,-1.5313,-1.5546,-1.5759,-1.5807,-1.5719,-1.5349,-1.4784,-1.3672,-1.2679,-1.2295,-1.1283,-1.0829,-1.1569,-1.1968,-1.2258,-1.2661,-1.2832,-1.2832,-1.2603,-1.181,-1.1183,-2.3391,-2.2197,-2.141,-2.1335,0.0,-2.1668,-2.1959,-2.2441,-2.2492,-2.1617,-2.0172,-1.9692,-1.9879,-2.0576,-2.0839,-2.125,-2.1787,-2.1549,-2.1569,-2.1769,-2.1922,-2.2007,-2.2017,-2.1899,-2.174,-2.1571,-2.128,-2.0969,-2.0607,-2.0569,-2.0657,-2.0841,-2.0305,-2.0168,-2.0368,-1.976,-1.8765,-1.7436,-1.6746,-1.6168,-1.5692,-1.5662,-1.5397,-1.4916,-1.47,0.0,0.0,0.0,0.0,0.0,0.0,0.0,0.0,-0.9563,0.0,-0.9681,-0.9583,-0.9595,-0.9758,-0.9846,-1.0194,-1.0868,-1.1131,-1.1077,-1.0612,-1.1635,-1.2383,-1.2555,-1.2653,-1.2749,-1.292,-1.2946,-1.3014,-1.3241,-1.365,-1.4209,-1.4825,-1.5381,-1.5788,-1.5933,-1.5371,-1.4902,-1.4931,-1.4863,-1.501,-1.5284,-1.5933,-1.6402,-1.6402,-1.6402,-1.6374,-1.6278,-1.6105,-1.5923,-1.5633,-1.5614,-1.574,-1.5769,-1.5798,-1.5585,-1.5073,-1.4214,-1.3412,-1.2859,-1.2052,-1.1719,-1.1977,-1.2357,-1.2676,-1.2929,-1.3012,-1.2856,-1.2593,-1.1834,-1.1108,-2.2824,-2.2094,-2.1481,-2.1266,-2.1392,-2.1392,-2.1467,-2.1676,-2.2553,0.0,0.0,-2.0273,-2.0384,-2.0993,-2.1597,-2.2095,-2.249,-2.2451,-2.2658,-2.2989,-2.2696,-2.2561,-2.2551,-2.2266,-2.2081,-2.1906,-2.1638,-2.1243,-2.0723,-2.0244,-2.0144,-2.0307,-2.0066,-2.0026,-2.0216,-1.9683,-1.8909,-1.7915,-1.6953,-1.6164,-1.5547,-1.5449,-1.5254,-1.4912,-1.488,-1.4508,-1.3786,-1.2757,-1.1869,-1.1135,-1.0441,-1.0015,-0.994,-1.0136,-1.0473,-1.1014,-1.1006,-1.1107,-1.137,-1.1404,-1.1541,-1.1892,-1.2586,-1.267,-1.1852,-1.2464,-1.3016,-1.3339,-1.3278,-1.3341,-1.3606,-1.3532,-1.348,-1.3511,-1.3911,-1.4389,-1.4834,-1.5371,-1.5885,-1.6202,-1.5604,-1.5196,-1.5585,-1.5323,-1.5186,-1.5643,-1.6087,-1.6384,-1.6345,-1.6335,-1.6249,-1.6066,-1.5961,-1.5885,-1.5856,-1.5788,-1.574,-1.574,-1.5827,-1.5724,-1.5282,-1.4713,-1.4054,-1.3378,-1.2936,-1.2508,-1.2332,-1.2686,-1.3051,-1.3002,-1.2954,-1.2749,-1.2116,-1.1485,-1.0922,-2.1996,-2.1168,-2.0637,-2.0817,-2.1392,-2.1392,-2.1409,-2.1389,-2.0841,-2.0164,-1.9539,-2.0341,-2.0832,-2.1189,-2.1781,-2.2221,-2.2501,-2.2244,-2.2206,-2.2268,-2.26,-2.275,-2.272,-2.2322,-2.203,-2.1887,-2.1638,-2.1361,-2.1094,-2.0684,-2.0703,-2.0928,-2.0293,-2.0098,-2.0487,-2.0087,-1.9551,-1.905,-1.7846,-1.6844,-1.6006,-1.5596,-1.5391,-1.5312,-1.5094,-1.4913,-1.4775,-1.386,-1.3041,-1.2367,-1.1969,-1.1595,-1.1265,-1.1202,-1.1336,-1.1633,-1.1405,-1.1396,-1.1704,-1.1729,-1.1892,-1.2286,-1.276,-1.296,-1.3002,-1.3593,-1.3987,-1.404,-1.4002,-1.4037,-1.407,-1.3722,-1.348,-1.3511,-1.3911,-1.4359,-1.4863,-1.5371,-1.5875,-1.6316,-1.5943,-1.5585,-1.5701,-1.5614,-1.5585,-1.5769,-1.6144,-1.6345,-1.621,-1.6142,-1.6038,-1.5846,-1.5856,-1.5827,-1.5788,-1.5817,-1.5856,-1.5856,-1.5885,-1.5792,-1.5439,-1.4621,-1.3991,-1.381,-1.3026,-1.2548,-1.2676,-1.2929,-1.2954,-1.2725,-1.252,-1.2116,-1.136,-1.0837,-1.048,-2.1392,-2.0952,-2.0518,-2.0473,-2.0826,-2.0826,-2.0781,-2.0746,-2.0368,-2.0175,-2.0123,-2.0741,-2.1287,-2.1751,-2.2028,-2.2352,-2.2703,-2.2219,-2.2109,-2.2392,-2.2739,-2.2849,-2.2849,-2.2709,-2.2591,-2.2539,-2.2203,-2.1771,-2.123,-2.0781,-2.0478,-2.0195,-1.999,-2.0127,-2.0556,-2.041,-2.0059,-1.9609,-1.8143,-1.7096,-1.6436,-1.5762,-1.542,-1.542,-1.5378,-1.5256,-1.5,-1.4387,-1.3608,-1.2639,-1.2474,-1.215,-1.1535,-1.1795,-1.1978,-1.2132,-1.1978,-1.1952,-1.2105,-1.2346,-1.2535,-1.2714,-1.3048,-1.3292,-1.336,-1.3874,-1.4189,-1.4189,-1.4189,-1.4189,-1.4189,-1.3791,-1.348,-1.348,-1.3911,-1.4398,-1.4863,-1.5381,-1.5875,-1.6259,-1.6,-1.5788,-1.6058,-1.5856,-1.5827,-1.6029,-1.6288,-1.6316,-1.6142,-1.6124,-1.6028,-1.5846,-1.5798,-1.5856,-1.5894,-1.5904,-1.5943,-1.598,-1.6009,-1.5827,-1.5484,-1.4784,-1.4379,-1.4048,-1.3348,-1.2954,-1.3079,-1.2983,-1.2871,-1.2725,-1.2298,-1.1769,-1.1116,-1.0446,-1.001,-2.0997,-2.0952,-2.051,-2.0292,-2.0292,-2.0292,-2.0374,-2.0555,-2.051,-2.0674,-2.0988,-2.1289,-2.1723,-2.2302,-2.2302,-2.2442,-2.2645,-2.211,-2.198,-2.2331,-2.2595,-2.2728,-2.2804,-2.2895,-2.2964,-2.2935,-2.2711,-2.2256,-2.1492,-2.0986,-2.0321,-1.9551,-1.9756,-2.0137,-2.0605,-2.0615,-2.04,-1.999,-1.8584,-1.751,-1.6843,-1.5928,-1.542,-1.5478,-1.5643,-1.56,-1.5243,-1.4846,-1.4138,-1.3125,-1.3023,-1.2637,-1.1926,-1.2279,-1.2546,-1.2518,-1.2432,-1.246,-1.2535,-1.2906,-1.3129,-1.31,-1.3348,-1.348,-1.3541,-1.4031,-1.4369,-1.4369,-1.4369,-1.4369,-1.43,-1.3812,-1.348,-1.3541,-1.4031,-1.4517,-1.4893,-1.5469,-1.5972,-1.6298,-1.6087,-1.6019,-1.623,-1.6087,-1.6029,-1.6298,-1.6402,-1.6306,-1.6153,-1.6124,-1.6056,-1.599,-1.5875,-1.5875,-1.6056,-1.6077,-1.6019,-1.6066,-1.583,-1.5533,-1.5172,-1.4841,-1.4501,-1.3963,-1.3554,-1.3182,-1.305,-1.2949,-1.274,-1.251,-1.2107,-1.1576,-1.0744,-1.0131,-0.9718,-2.0997,-2.0952,-2.0518,-2.0292,-2.0292,-2.0292,-2.0645,-2.1177,-2.1042,-2.1204,-2.1604,-2.1878,-2.2246,-2.2676,-2.254,-2.2423,-2.2268,-2.177,-2.157,-2.161,-2.1861,-2.218,-2.2503,-2.2559,-2.2568,-2.2627,-2.2857,-2.276,-2.2295,-2.1473,-2.0674,-1.9951,-1.9893,-2.0117,-2.0556,-2.0605,-2.0586,-2.0527,-1.959,-1.8525,-1.7334,-1.6064,-1.5478,-1.5672,-1.5798,-1.5923,-1.5946,-1.5554,-1.5003,-1.4389,-1.4016,-1.3558,-1.2923,-1.2903,-1.2949,-1.2911,-1.2603,-1.2543,-1.2932,-1.3254,-1.3412,-1.3468,-1.3446,-1.348,-1.3541,-1.4321,-1.4834,-1.4775,-1.4804,-1.4804,-1.4775,-1.4022,-1.3541,-1.3601,-1.4291,-1.4863,-1.501,-1.5759,-1.6345,-1.6384,-1.6316,-1.6345,-1.6374,-1.6316,-1.6316,-1.6374,-1.6402,-1.6345,-1.6181,-1.6114,-1.6085,-1.6085,-1.6056,-1.6028,-1.6114,-1.6249,-1.6105,-1.5787,-1.5212,-1.4817,-1.4472,-1.3978,-1.3435,-1.353,-1.3209,-1.2905,-1.2861,-1.2749,-1.2544,-1.2033,-1.1651,-1.1233,-1.0115,-0.9692,-0.9751,-2.1128,-2.0781,-2.0419,-2.0292,-2.0292,-2.0292,-2.0329,-2.0311,-2.0229,-2.0709,-2.1606,-2.1526,-2.1834,-2.2563,-2.2695,-2.2519,-2.218,-2.1589,-2.1194,-2.1007,-2.1329,-2.1561,-2.1746,-2.2295,-2.251,-2.2549,-2.2896,-2.2877,-2.2393,-2.1387,-2.0654,-2.0341,-2.0049,-2.001,-2.0195,-2.0478,-2.0615,-2.0586,-1.9717,-1.8906,-1.8086,-1.6824,-1.6095,-1.594,-1.5899,-1.5924,-1.5951,-1.572,-1.5245,-1.4567,-1.4279,-1.3769,-1.3042,-1.3194,-1.3288,-1.3288,-1.3143,-1.3125,-1.328,-1.3434,-1.348,-1.348,-1.348,-1.348,-1.3541,-1.435,-1.4813,-1.4567,-1.4725,-1.4804,-1.4478,-1.3902,-1.3593,-1.3911,-1.4499,-1.501,-1.5342,-1.5961,-1.6402,-1.6402,-1.6402,-1.6374,-1.6402,-1.6402,-1.6402,-1.6402,-1.6402,-1.6335,-1.6278,-1.6181,-1.6124,-1.6017,-1.5719,-1.5719,-1.6066,-1.6077,-1.5807,-1.542,-1.4955,-1.4447,-1.3626,-1.3604,-1.3399,-1.3053,-1.288,-1.2837,-1.2914,-1.2461,-1.2101,-1.1585,-1.093,-1.0413,-0.9718,-0.9614,-0.9821,-2.1144,-2.0671,-2.0428,-2.0292,-2.0292,-2.0292,-2.032,-2.0311,-2.0085,-2.0628,-2.165,-2.1436,-2.1615,-2.2038,-2.2566,-2.2639,-2.2302,-2.1565,-2.1064,-2.0791,-2.0967,-2.1113,-2.1259,-2.1836,-2.2227,-2.2393,-2.2721,-2.276,-2.2422,-2.1525,-2.0909,-2.0693,-2.0185,-1.998,-2.0098,-2.037,-2.0488,-2.0546,-1.9922,-1.9424,-1.8861,-1.7818,-1.6875,-1.6234,-1.6039,-1.5976,-1.5943,-1.5614,-1.5196,-1.4627,-1.424,-1.3761,-1.3194,-1.3359,-1.348,-1.348,-1.348,-1.348,-1.348,-1.348,-1.348,-1.348,-1.348,-1.348,-1.3631,-1.424,-1.4449,-1.4091,-1.4419,-1.4547,-1.4219,-1.3791,-1.3722,-1.416,-1.4627,-1.5098,-1.5614,-1.6029,-1.6259,-1.6355,-1.6259,-1.6259,-1.6374,-1.6402,-1.6402,-1.6402,-1.6402,-1.6402,-1.6374,-1.621,-1.6046,-1.5874,-1.5303,-1.5245,-1.5797,-1.5478,-1.5118,-1.468,-1.4182,-1.3522,-1.28,-1.3032,-1.3237,-1.2738,-1.2758,-1.2706,-1.2647,-1.2215,-1.171,-1.1234,-1.0625,-0.9966,-0.9673,-0.9621,-0.9925,-2.088,-2.0699,-2.0428,-2.0292,-2.0292,-2.0292,-2.0988,-2.1819,-2.1212,-2.1212,-2.165,-2.2113,-2.1847,-2.123,-2.2207,-2.2637,-2.2668,-2.1712,-2.12,-2.1133,-2.0791,-2.083,-2.1181,-2.1239,-2.1523,-2.1934,-2.2393,-2.2578,-2.251,-2.2051,-2.1611,-2.1122,-2.0361,-2.0117,-2.0332,-2.0117,-2.0156,-2.0488,-2.0488,-2.0254,-1.9785,-1.8939,-1.7821,-1.6533,-1.6297,-1.6217,-1.6022,-1.5216,-1.4775,-1.4854,-1.4022,-1.3511,-1.345,-1.3498,-1.3506,-1.3511,-1.3519,-1.3489,-1.348,-1.348,-1.348,-1.348,-1.348,-1.348,-1.3511,-1.3971,-1.4061,-1.3601,-1.4001,-1.4249,-1.413,-1.3752,-1.3722,-1.421,-1.4627,-1.5128,-1.5672,-1.5827,-1.5972,-1.6241,-1.6087,-1.6058,-1.6345,-1.6402,-1.6402,-1.6402,-1.6402,-1.6402,-1.6345,-1.621,-1.5816,-1.5371,-1.5002,-1.4904,-1.4914,-1.4599,-1.4034,-1.3648,-1.3212,-1.2506,-1.2299,-1.2225,-1.2381,-1.257,-1.2746,-1.2689,-1.2391,-1.1983,-1.1493,-1.0964,-1.0395,-0.9888,-0.9647,-0.9621,-0.9925,-2.109,-2.0436,-2.0337,-2.0292,-2.0292,-2.0292,-2.0419,-2.0619,-2.0718,-2.0673,-2.0746,-2.165,-2.1961,-2.1676,-2.249,-2.2816,-2.2608,-2.1946,-2.1504,-2.1171,-2.0762,-2.0683,-2.082,-2.1094,-2.1259,-2.1543,-2.2178,-2.2656,-2.2808,-2.249,-2.1924,-2.125,-2.0625,-2.0214,-1.9881,-1.9863,-2.0,-2.0156,-2.0449,-2.039,-1.9961,-1.9572,-1.8795,-1.7439,-1.6681,-1.6267,-1.6227,-1.5242,-1.4715,-1.4775,-1.3953,-1.348,-1.3506,-1.375,-1.3768,-1.3562,-1.3742,-1.3776,-1.3523,-1.348,-1.348,-1.348,-1.348,-1.348,-1.3571,-1.3881,-1.401,-1.3692,-1.3911,-1.4091,-1.3791,-1.3601,-1.3812,-1.4499,-1.4804,-1.5225,-1.5933,-1.6144,-1.623,-1.6345,-1.623,-1.623,-1.6316,-1.6402,-1.6402,-1.6402,-1.6402,-1.6374,-1.6249,-1.5816,-1.5274,-1.4884,-1.4106,-1.3386,-1.3347,-1.3545,-1.3411,-1.3023,-1.2589,-1.2104,-1.1773,-1.238,-1.2715,-1.2727,-1.2861,-1.2903,-1.2638,-1.1844,-1.1319,-1.0507,-0.994,-0.9862,-0.9614,-0.9647,-0.9976,-2.106,-2.0335,-2.0292,-2.0292,-2.0292,-2.0292,-2.0147,-1.9957,-2.0175,-2.013,-2.0121,-2.0827,-2.1364,-2.173,-2.2369,-2.2727,-2.2613,-2.2148,-2.1728,-2.1406,-2.0879,-2.0615,-2.0654,-2.0869,-2.1054,-2.1307,-2.2109,-2.2666,-2.2857,-2.275,-2.2266,-2.1465,-2.0899,-2.0215,-1.9639,-1.9658,-1.9766,-1.9951,-2.038,-2.041,-2.0146,-1.999,-1.9521,-1.8613,-1.7599,-1.6868,-1.6514,-1.5295,-1.4721,-1.4775,-1.4033,-1.348,-1.3506,-1.3759,-1.3793,-1.3579,-1.375,-1.3793,-1.3532,-1.348,-1.348,-1.348,-1.348,-1.348,-1.3502,-1.3791,-1.3761,-1.3662,-1.3761,-1.3821,-1.3601,-1.348,-1.3872,-1.4686,-1.4893,-1.5313,-1.6241,-1.623,-1.6173,-1.6173,-1.6288,-1.6374,-1.6402,-1.6402,-1.6402,-1.6402,-1.6402,-1.6345,-1.5951,-1.5429,-1.4649,-1.4225,-1.3295,-1.2634,-1.2451,-1.2558,-1.2658,-1.2366,-1.2588,-1.2004,-1.1983,-1.2614,-1.295,-1.2932,-1.2982,-1.3067,-1.2648,-1.1834,-1.0976,-1.0115,-0.9888,-0.9862,-0.9751,-0.9699,-1.0028,-2.0723,-2.0343,-2.0292,-2.0292,-2.0292,-2.0335,-2.0445,-2.0462,-2.0016,-1.9937,-1.9954,-1.987,-2.0542,-2.1024,-2.1822,-2.2344,-2.2819,-2.2295,-2.1904,-2.1748,-2.0997,-2.0615,-2.0615,-2.0654,-2.0869,-2.121,-2.207,-2.248,-2.2578,-2.2832,-2.2607,-2.1855,-2.1026,-2.037,-1.9893,-1.9512,-1.9482,-1.9863,-2.0264,-2.0546,-2.0556,-2.0166,-1.9902,-1.9717,-1.8936,-1.8046,-1.711,-1.5482,-1.4877,-1.5139,-1.4157,-1.3519,-1.3489,-1.3588,-1.3545,-1.3536,-1.3515,-1.3536,-1.3489,-1.348,-1.348,-1.348,-1.348,-1.348,-1.3511,-1.3541,-1.3541,-1.3511,-1.3511,-1.3511,-1.3511,-1.348,-1.3863,-1.4706,-1.4893,-1.5332,-1.6058,-1.6011,-1.575,-1.5896,-1.6216,-1.6394,-1.6423,-1.6413,-1.6413,-1.6402,-1.6278,-1.6038,-1.5439,-1.4923,-1.4195,-1.3295,-1.2604,-1.2189,-1.1856,-1.1622,-1.1685,-1.1771,-1.2266,-1.2356,-1.2665,-1.318,-1.3362,-1.3377,-1.3235,-1.3242,-1.2299,-1.1507,-1.0914,-1.0226,-1.0079,-0.9885,-0.9758,-0.9725,-1.001,-2.1037,-2.0677,-2.0394,-2.0292,-2.0326,-2.0583,-2.074,-2.0812,-2.0934,-2.0621,-2.0281,-2.1404,-2.1635,-2.1322,-2.2388,-2.3098,-2.3052,-2.2559,-2.2168,-2.1787,-2.1026,-2.0625,-2.0625,-2.0615,-2.0791,-2.1171,-2.1453,-2.1953,-2.2441,-2.2656,-2.2539,-2.2148,-2.1143,-2.041,-1.9893,-1.9202,-1.9053,-1.9482,-1.9902,-2.0254,-2.0566,-2.0478,-2.0225,-1.9883,-1.9365,-1.8964,-1.8681,-1.6603,-1.5473,-1.5439,-1.4205,-1.348,-1.3554,-1.3768,-1.3754,-1.3579,-1.3776,-1.3768,-1.3515,-1.348,-1.348,-1.348,-1.348,-1.348,-1.348,-1.348,-1.348,-1.348,-1.348,-1.348,-1.348,-1.348,-1.3902,-1.4795,-1.4893,-1.5303,-1.6214,-1.6487,-1.6573,-1.6604,-1.6722,-1.681,-1.6748,-1.6643,-1.6485,-1.6347,-1.5982,-1.5459,-1.5157,-1.4222,-1.3455,-1.2826,-1.2343,-1.1981,-1.1888,-1.1981,-1.2158,-1.2343,-1.2726,-1.2984,-1.333,-1.3629,-1.3792,-1.3691,-1.3538,-1.3067,-1.2104,-1.1478,-1.1045,-1.0443,-1.0196,-0.9974,-0.9729,-0.9829,-1.0095,-2.1114,-2.0651,-2.0394,-2.0292,-2.0343,-2.0711,-2.0781,-2.0691,-2.1108,-2.0868,-2.0619,-2.1609,-2.1966,-2.1646,-2.2711,-2.3169,-2.3028,-2.2715,-2.2373,-2.2012,-2.1221,-2.082,-2.081,-2.082,-2.082,-2.0996,-2.1112,-2.1551,-2.2266,-2.2441,-2.251,-2.2314,-2.1523,-2.0654,-1.9971,-1.9377,-1.9124,-1.916,-1.9582,-1.998,-2.0175,-2.0439,-2.04,-1.9971,-1.9805,-1.9826,-1.9783,-1.7815,-1.6433,-1.571,-1.4373,-1.3528,-1.3536,-1.3703,-1.3759,-1.3622,-1.3699,-1.375,-1.3545,-1.348,-1.348,-1.348,-1.348,-1.348,-1.348,-1.348,-1.348,-1.348,-1.348,-1.348,-1.348,-1.348,-1.3872,-1.4538,-1.4804,-1.5332,-1.6234,-1.6738,-1.6946,-1.6997,-1.7151,-1.7234,-1.7182,-1.7079,-1.6798,-1.6567,-1.592,-1.519,-1.4793,-1.3701,-1.3099,-1.2545,-1.2041,-1.1902,-1.2011,-1.2305,-1.2704,-1.3031,-1.3394,-1.3644,-1.3915,-1.4169,-1.4373,-1.3867,-1.3608,-1.3312,-1.2496,-1.2273,-1.1892,-1.1195,-1.0428,-1.0249,-1.0098,-0.991,-1.0025,-2.1002,-2.0377,-2.0309,-2.0292,-2.0343,-2.072,-2.0759,-2.0451,-2.0545,-2.0791,-2.0928,-2.1172,-2.1596,-2.2216,-2.2704,-2.295,-2.3042,-2.275,-2.2559,-2.2295,-2.1668,-2.1289,-2.1074,-2.1073,-2.0977,-2.0732,-2.0986,-2.1406,-2.1855,-2.2227,-2.249,-2.2432,-2.1982,-2.1289,-2.0352,-2.0,-1.9446,-1.9046,-1.9494,-1.9678,-1.9492,-2.0136,-2.0371,-2.001,-2.0321,-2.0494,-2.027,-1.8923,-1.7599,-1.6503,-1.4709,-1.3814,-1.3643,-1.3583,-1.372,-1.366,-1.3588,-1.3571,-1.3528,-1.348,-1.348,-1.348,-1.348,-1.348,-1.348,-1.348,-1.3545,-1.3596,-1.3545,-1.3498,-1.3532,-1.3498,-1.3761,-1.421,-1.4775,-1.5469,-1.6273,-1.682,-1.7141,-1.7244,-1.7471,-1.773,-1.773,-1.7657,-1.7379,-1.692,-1.6226,-1.5423,-1.4564,-1.3658,-1.2759,-1.2279,-1.1948,-1.2048,-1.2251,-1.265,-1.307,-1.3674,-1.4064,-1.4312,-1.4423,-1.462,-1.464,-1.4155,-1.355,-1.3274,-1.2969,-1.2611,-1.2182,-1.1495,-1.0997,-1.0737,-1.0472,-1.0215,-1.0038,-2.1293,-2.1071,-2.0523,-2.0292,-2.0352,-2.0758,-2.1216,-2.1484,-2.0761,-2.132,-2.224,-2.221,-2.2474,-2.3171,-2.3652,-2.3786,-2.353,-2.3164,-2.274,-2.2519,-2.2324,-2.1582,-2.0996,-2.1084,-2.1016,-2.0693,-2.0762,-2.0977,-2.1366,-2.1875,-2.2227,-2.249,-2.2139,-2.1758,-2.1299,-2.042,-1.9853,-1.9561,-1.9434,-1.959,-1.9736,-1.9922,-2.0205,-2.0458,-2.0527,-2.073,-2.0829,-1.9472,-1.763,-1.5787,-1.5428,-1.5018,-1.4728,-1.4685,-1.4581,-1.4307,-1.4067,-1.3793,-1.3579,-1.348,-1.348,-1.348,-1.348,-1.348,-1.348,-1.3511,-1.3648,-1.3793,-1.3716,-1.3656,-1.3827,-1.3716,-1.3942,-1.4627,-1.5243,-1.587,-1.6623,-1.7244,-1.7626,-1.7978,-1.8123,-1.8195,-1.8123,-1.7915,-1.7543,-1.6958,-1.6181,-1.5423,-1.4579,-1.3729,-1.2919,-1.2434,-1.2158,-1.2327,-1.2577,-1.2997,-1.3532,-1.4231,-1.4677,-1.5021,-1.4984,-1.4907,-1.4754,-1.4367,-1.3517,-1.3048,-1.2764,-1.2451,-1.2017,-1.1724,-1.1368,-1.1032,-1.0697,-1.0419,-1.0245,-2.1225,-2.0908,-2.0472,-2.0464,-2.0788,-2.1156,-2.1724,-2.2198,-2.1848,-2.2327,-2.3421,-2.3417,-2.3624,-2.4164,-2.4504,-2.4346,-2.3809,-2.3525,-2.3193,-2.2789,-2.2721,-2.2051,-2.125,-2.1289,-2.1191,-2.0654,-2.0615,-2.084,-2.121,-2.168,-2.21,-2.2461,-2.2461,-2.2246,-2.1797,-2.1201,-2.042,-2.0019,-1.9795,-1.9756,-1.9414,-1.9746,-1.9883,-2.0126,-2.0252,-2.0495,-2.0391,-1.9669,-1.8138,-1.6297,-1.5762,-1.5694,-1.5497,-1.5463,-1.5223,-1.4744,-1.4461,-1.411,-1.3631,-1.348,-1.348,-1.348,-1.348,-1.3605,-1.3716,-1.3759,-1.3922,-1.4247,-1.4101,-1.4221,-1.4476,-1.451,-1.4948,-1.5691,-1.6077,-1.6447,-1.6978,-1.7409,-1.7864,-1.8268,-1.8569,-1.86,-1.8433,-1.8107,-1.7616,-1.6931,-1.5961,-1.5397,-1.4813,-1.3955,-1.3168,-1.2727,-1.2437,-1.2545,-1.2896,-1.331,-1.3923,-1.4647,-1.4971,-1.5391,-1.5371,-1.5147,-1.4742,-1.4302,-1.349,-1.2957,-1.2884,-1.2721,-1.24,-1.2104,-1.1687,-1.1287,-1.09,-1.0648,-1.0455,-2.096,-2.0352,-2.0309,-2.0736,-2.1374,-2.1735,-2.2135,-2.2667,-2.2703,-2.338,-2.4183,-2.4239,-2.4392,-2.5137,-2.5001,-2.4648,-2.3965,-2.3818,-2.3486,-2.313,-2.2886,-2.2292,-2.1465,-2.1631,-2.1328,-2.0732,-2.0615,-2.0781,-2.1152,-2.1602,-2.2051,-2.2412,-2.2769,-2.2672,-2.2236,-2.1934,-2.1269,-2.0508,-2.0478,-2.0088,-1.9502,-1.9746,-1.995,-1.9769,-2.0014,-1.9905,-1.9678,-1.9389,-1.8607,-1.6521,-1.6192,-1.6148,-1.6062,-1.6002,-1.5703,-1.5231,-1.5009,-1.4607,-1.3836,-1.375,-1.3648,-1.3648,-1.3613,-1.3742,-1.4059,-1.4161,-1.4316,-1.4692,-1.4701,-1.4827,-1.5244,-1.565,-1.6109,-1.6658,-1.6984,-1.698,-1.7144,-1.7492,-1.7926,-1.834,-1.8775,-1.8796,-1.8498,-1.8223,-1.7958,-1.6915,-1.6045,-1.5579,-1.5053,-1.432,-1.3579,-1.3014,-1.2811,-1.2749,-1.3157,-1.3614,-1.433,-1.5001,-1.5177,-1.542,-1.5517,-1.5264,-1.4748,-1.4218,-1.3892,-1.3684,-1.3596,-1.3314,-1.2786,-1.2457,-1.2054,-1.153,-1.1068,-1.0858,-1.0668,-2.09,-2.0728,-2.042,-2.0736,-2.132,-2.15,-2.216,-2.3138,-2.2437,-2.3252,-2.4402,-2.4039,-2.4468,-2.5499,-2.5225,-2.4988,-2.459,-2.4062,-2.3555,-2.3091,-2.273,-2.2363,-2.1816,-2.1855,-2.1417,-2.0801,-2.0615,-2.0674,-2.0918,-2.1455,-2.1924,-2.2109,-2.2672,-2.3003,-2.2789,-2.2471,-2.2119,-2.1514,-2.124,-2.0791,-2.0302,-2.0273,-2.0339,-2.0058,-2.0126,-1.9593,-1.8891,-1.8835,-1.8257,-1.7293,-1.7167,-1.7175,-1.703,-1.703,-1.6781,-1.6353,-1.6055,-1.5532,-1.4658,-1.4367,-1.4313,-1.4007,-1.4024,-1.4136,-1.4536,-1.4614,-1.4744,-1.4966,-1.4897,-1.5132,-1.5822,-1.5713,-1.6389,-1.7184,-1.7294,-1.7195,-1.7492,-1.79,-1.8236,-1.8432,-1.8775,-1.8767,-1.7966,-1.8145,-1.7692,-1.6853,-1.6266,-1.5791,-1.5217,-1.4609,-1.3991,-1.3351,-1.3377,-1.3347,-1.3539,-1.403,-1.4656,-1.5147,-1.5294,-1.5264,-1.5342,-1.5342,-1.4824,-1.4667,-1.4599,-1.4371,-1.3923,-1.3304,-1.2629,-1.2506,-1.2391,-1.1873,-1.1406,-1.1167,-1.0907,-2.0925,-2.0583,-2.0377,-2.0907,-2.1784,-2.1882,-2.2492,-2.3359,-2.3022,-2.3482,-2.4433,-2.4136,-2.4632,-2.5625,-2.5273,-2.498,-2.46,-2.3887,-2.3369,-2.3081,-2.2838,-2.248,-2.1973,-2.1807,-2.1476,-2.0732,-2.0615,-2.0615,-2.0771,-2.1221,-2.167,-2.1914,-2.2539,-2.2877,-2.3071,-2.2867,-2.2588,-2.2207,-2.1953,-2.1533,-2.0986,-2.1017,-2.1014,-2.0847,-2.0703,-2.0188,-1.9051,-1.8749,-1.8053,-1.7316,-1.7295,-1.7526,-1.7543,-1.762,-1.7458,-1.697,-1.655,-1.5934,-1.5172,-1.4769,-1.4581,-1.4451,-1.4512,-1.4829,-1.5095,-1.5206,-1.5386,-1.5566,-1.5506,-1.5582,-1.6278,-1.6763,-1.7182,-1.7615,-1.777,-1.7707,-1.7922,-1.8202,-1.8398,-1.8455,-1.8754,-1.8456,-1.8154,-1.786,-1.734,-1.643,-1.5896,-1.5456,-1.5438,-1.4844,-1.4304,-1.3863,-1.395,-1.3982,-1.4049,-1.4446,-1.495,-1.5264,-1.5352,-1.5147,-1.4981,-1.4981,-1.4922,-1.4765,-1.4588,-1.4291,-1.3812,-1.3161,-1.2765,-1.2694,-1.2525,-1.212,-1.1748,-1.145,-1.1198,-2.0874,-2.0292,-2.0428,-2.1212,-2.2306,-2.2536,-2.3038,-2.3721,-2.3797,-2.388,-2.4255,-2.4316,-2.4643,-2.5283,-2.5117,-2.4717,-2.4228,-2.3666,-2.3247,-2.2925,-2.276,-2.2334,-2.1836,-2.1543,-2.1318,-2.0732,-2.0635,-2.0615,-2.0684,-2.1016,-2.1514,-2.1885,-2.2314,-2.2721,-2.3013,-2.3081,-2.2896,-2.2627,-2.2516,-2.2259,-2.1693,-2.1738,-2.174,-2.1549,-2.0984,-2.0377,-1.922,-1.8535,-1.7789,-1.6831,-1.6821,-1.7081,-1.7372,-1.7689,-1.7743,-1.7107,-1.6855,-1.6353,-1.5677,-1.5266,-1.5129,-1.4941,-1.5189,-1.5506,-1.5771,-1.5831,-1.5899,-1.5951,-1.5945,-1.6123,-1.6833,-1.7218,-1.7902,-1.8374,-1.8454,-1.8279,-1.8176,-1.821,-1.8131,-1.8035,-1.8154,-1.7974,-1.7566,-1.7182,-1.6634,-1.6106,-1.5625,-1.5275,-1.5284,-1.5117,-1.4572,-1.4377,-1.4427,-1.4801,-1.4921,-1.4663,-1.5215,-1.5216,-1.5323,-1.4971,-1.4558,-1.4154,-1.4094,-1.4469,-1.433,-1.4061,-1.3851,-1.345,-1.3139,-1.2986,-1.2574,-1.2135,-1.1855,-1.1661,-1.143,-2.0403,-2.0337,-2.0961,-2.1695,-2.2448,-2.3038,-2.3493,-2.3754,-2.3797,-2.3825,-2.3912,-2.3896,-2.417,-2.4512,-2.458,-2.4268,-2.3828,-2.3506,-2.3203,-2.2695,-2.2393,-2.1924,-2.1475,-2.1172,-2.0977,-2.0996,-2.0781,-2.0615,-2.0713,-2.1016,-2.1377,-2.1855,-2.2266,-2.2633,-2.2935,-2.3091,-2.3062,-2.2935,-2.2959,-2.2761,-2.2626,-2.2625,-2.2522,-2.2095,-2.111,-1.9925,-1.8886,-1.7721,-1.6634,-1.6108,-1.6584,-1.6884,-1.7055,-1.7346,-1.7552,-1.7655,-1.7461,-1.691,-1.6199,-1.6285,-1.6114,-1.5891,-1.5961,-1.6114,-1.6233,-1.627,-1.621,-1.6041,-1.6112,-1.6528,-1.8302,-1.7954,-1.8256,-1.8817,-1.8672,-1.8032,-1.7696,-1.7483,-1.7389,-1.7191,-1.7364,-1.7465,-1.6943,-1.6618,-1.6406,-1.6075,-1.5721,-1.5444,-1.5355,-1.5177,-1.4835,-1.4814,-1.4929,-1.5388,-1.5832,-1.5384,-1.5323,-1.5118,-1.503,-1.4677,-1.4163,-1.3304,-1.3183,-1.3863,-1.4091,-1.3911,-1.3731,-1.3549,-1.3147,-1.275,-1.2406,-1.2096,-1.1894,-1.1685,-1.1622,-2.0746,-2.0916,-2.1266,-2.2015,-2.295,-2.3319,-2.3634,-2.3797,-2.3807,-2.3785,-2.3747,-2.3594,-2.3746,-2.3887,-2.3564,-2.331,-2.3203,-2.3115,-2.2871,-2.2461,-2.2275,-2.1836,-2.1249,-2.0977,-2.0889,-2.085,-2.0693,-2.0693,-2.0869,-2.0859,-2.1172,-2.1543,-2.1973,-2.2393,-2.2783,-2.2984,-2.3071,-2.3101,-2.3212,-2.3274,-2.3249,-2.34,-2.3356,-2.2778,-2.1648,-2.0399,-1.9087,-1.7899,-1.6741,-1.6075,-1.6139,-1.6368,-1.6582,-1.6824,-1.715,-1.7552,-1.7424,-1.7013,-1.6405,-1.6405,-1.6156,-1.6173,-1.6422,-1.6619,-1.6644,-1.6639,-1.6491,-1.6369,-1.656,-1.6998,-1.7931,-1.7934,-1.8159,-1.8306,-1.8105,-1.7642,-1.7123,-1.6786,-1.6546,-1.6458,-1.7039,-1.7002,-1.6195,-1.6036,-1.6113,-1.5973,-1.5764,-1.5604,-1.5505,-1.5284,-1.5062,-1.4934,-1.5041,-1.5453,-1.5904,-1.5749,-1.5254,-1.5001,-1.4736,-1.438,-1.3863,-1.3061,-1.313,-1.3692,-1.3752,-1.358,-1.364,-1.348,-1.3003,-1.2552,-1.2282,-1.205,-1.1848,-1.1716,-1.1654,-2.1162,-2.1445,-2.1713,-2.2476,-2.3416,-2.3634,-2.3764,-2.3797,-2.3797,-2.3726,-2.3609,-2.3252,-2.3213,-2.3262,-2.2842,-2.2451,-2.249,-2.2549,-2.249,-2.2363,-2.2295,-2.1863,-2.1299,-2.1074,-2.0957,-2.0859,-2.0654,-2.0752,-2.0879,-2.0762,-2.0859,-2.1289,-2.1689,-2.21,-2.2529,-2.2906,-2.3033,-2.3188,-2.3363,-2.3503,-2.3721,-2.4013,-2.4192,-2.3855,-2.268,-2.116,-1.9831,-1.8189,-1.7003,-1.623,-1.6011,-1.6079,-1.6248,-1.63,-1.6627,-1.7068,-1.675,-1.6499,-1.6302,-1.6285,-1.6248,-1.6248,-1.6679,-1.6816,-1.6788,-1.6726,-1.6791,-1.6853,-1.7063,-1.752,-1.7988,-1.811,-1.8076,-1.7813,-1.7617,-1.7201,-1.6716,-1.6315,-1.5974,-1.6179,-1.6844,-1.6674,-1.5938,-1.5808,-1.5982,-1.5931,-1.5737,-1.5771,-1.5655,-1.5541,-1.5286,-1.5039,-1.5068,-1.5398,-1.5687,-1.5853,-1.5328,-1.4754,-1.438,-1.3953,-1.3472,-1.2856,-1.3139,-1.3268,-1.3177,-1.3056,-1.3238,-1.3359,-1.2881,-1.249,-1.222,-1.1972,-1.1778,-1.1685,-1.1622,-2.1356,-2.149,-2.274,-2.3363,-2.359,-2.411,-2.4153,-2.3797,-2.3797,-2.3547,-2.3198,-2.2783,-2.2617,-2.248,-2.2158,-2.2158,-2.2393,-2.2441,-2.2314,-2.2148,-2.2031,-2.1592,-2.081,-2.0693,-2.0869,-2.0869,-2.0732,-2.0644,-2.0723,-2.0664,-2.0771,-2.1191,-2.1592,-2.207,-2.2422,-2.2789,-2.3081,-2.3135,-2.3363,-2.3721,-2.4067,-2.4292,-2.437,-2.3932,-2.2577,-2.1189,-2.0242,-1.8536,-1.6902,-1.6444,-1.6295,-1.6321,-1.6336,-1.6345,-1.6398,-1.6587,-1.6636,-1.6696,-1.6368,-1.6368,-1.6419,-1.6376,-1.6624,-1.6679,-1.67,-1.6732,-1.6916,-1.731,-1.7442,-1.7886,-1.8462,-1.8496,-1.8337,-1.7998,-1.7623,-1.7166,-1.6612,-1.6132,-1.5746,-1.5696,-1.6276,-1.6222,-1.58,-1.5817,-1.5851,-1.5789,-1.5762,-1.5788,-1.5699,-1.5513,-1.5576,-1.5371,-1.5101,-1.5342,-1.5519,-1.5702,-1.5151,-1.4504,-1.4022,-1.3563,-1.3017,-1.2558,-1.2474,-1.2566,-1.2544,-1.2758,-1.3064,-1.3064,-1.2736,-1.2398,-1.2027,-1.184,-1.1654,-1.1622,-1.1591,-2.2608,-2.2652,-2.3232,-2.3721,-2.4067,-2.4292,-2.4153,-2.3851,-2.3667,-2.344,-2.2998,-2.2432,-2.1904,-2.1543,-2.1191,-2.1523,-2.2031,-2.2178,-2.2227,-2.2148,-2.1963,-2.1543,-2.1035,-2.0703,-2.0723,-2.0752,-2.0693,-2.0625,-2.0615,-2.0615,-2.0732,-2.0889,-2.1299,-2.1709,-2.2168,-2.2578,-2.2977,-2.3317,-2.3711,-2.4024,-2.4196,-2.411,-2.411,-2.4358,-2.2414,-2.1405,-2.0525,-1.8838,-1.7308,-1.6747,-1.639,-1.6036,-1.6036,-1.6028,-1.6036,-1.6089,-1.6173,-1.6173,-1.6079,-1.6225,-1.6285,-1.6388,-1.6519,-1.6629,-1.6765,-1.698,-1.727,-1.7852,-1.8226,-1.8596,-1.8942,-1.8875,-1.8405,-1.7964,-1.7554,-1.6934,-1.6412,-1.6096,-1.5745,-1.573,-1.5679,-1.5765,-1.5816,-1.5835,-1.5783,-1.56,-1.565,-1.5753,-1.5549,-1.5221,-1.5426,-1.5719,-1.542,-1.5245,-1.5366,-1.5495,-1.4781,-1.4116,-1.3563,-1.31,-1.2597,-1.2266,-1.2236,-1.2451,-1.2767,-1.292,-1.3003,-1.2789,-1.2521,-1.2182,-1.1809,-1.1716,-1.1622,-1.1622,-1.1591,-2.3934,-2.3914,-2.3814,-2.4024,-2.4454,-2.4335,-2.411,-2.3797,-2.3667,-2.3406,-2.2993,-2.2373,-2.1582,-2.0898,-2.0869,-2.1269,-2.1885,-2.1936,-2.2148,-2.2246,-2.207,-2.1641,-2.1172,-2.081,-2.0615,-2.0615,-2.0635,-2.0615,-2.0615,-2.0615,-2.0615,-2.0635,-2.1084,-2.1366,-2.1777,-2.2369,-2.2959,-2.3691,-2.3764,-2.3937,-2.4024,-2.3527,-2.357,-2.3266,-2.2469,-2.133,-2.0912,-1.9288,-1.7857,-1.7222,-1.6567,-1.6216,-1.6062,-1.6081,-1.5959,-1.5917,-1.5917,-1.5899,-1.5865,-1.5917,-1.6039,-1.6249,-1.6244,-1.6335,-1.6696,-1.7116,-1.7486,-1.792,-1.864,-1.8831,-1.8931,-1.8942,-1.8361,-1.7784,-1.7304,-1.6656,-1.6105,-1.5903,-1.5797,-1.5772,-1.5756,-1.5763,-1.5816,-1.5843,-1.573,-1.548,-1.5531,-1.5719,-1.5505,-1.5177,-1.5311,-1.5727,-1.5991,-1.557,-1.5136,-1.5002,-1.4347,-1.3743,-1.3197,-1.2673,-1.2197,-1.2112,-1.2212,-1.249,-1.2858,-1.2828,-1.2728,-1.2544,-1.2328,-1.1988,-1.1685,-1.1654,-1.1591,-1.1591,-1.1591,-2.5104,-2.5063,-2.4596,-2.4464,-2.4507,-2.4497,-2.4229,-2.3797,-2.3754,-2.3474,-2.3018,-2.2574,-2.1934,-2.1278,-2.1143,-2.1367,-2.1855,-2.1885,-2.21,-2.2197,-2.207,-2.1621,-2.1201,-2.084,-2.0615,-2.0615,-2.0615,-2.0615,-2.0615,-2.0615,-2.0615,-2.0674,-2.0937,-2.1162,-2.1644,-2.2338,-2.3083,-2.3614,-2.3584,-2.3406,-2.3309,-2.2906,-2.257,-2.2448,-2.1898,-2.1193,-2.0811,-1.9335,-1.8391,-1.788,-1.7086,-1.6593,-1.6398,-1.6287,-1.615,-1.5874,-1.5805,-1.5841,-1.5903,-1.5876,-1.6079,-1.6246,-1.6219,-1.5988,-1.6307,-1.6972,-1.7382,-1.7725,-1.8607,-1.8764,-1.8731,-1.8596,-1.8192,-1.7467,-1.6959,-1.6621,-1.614,-1.5911,-1.5805,-1.5805,-1.5805,-1.5805,-1.5805,-1.5817,-1.5852,-1.5635,-1.5608,-1.5797,-1.5709,-1.5453,-1.5453,-1.5762,-1.6385,-1.6045,-1.5002,-1.4629,-1.444,-1.3619,-1.2792,-1.2313,-1.1802,-1.1903,-1.2058,-1.2398,-1.2674,-1.2582,-1.2521,-1.2451,-1.2297,-1.184,-1.1591,-1.1591,-1.1591,-1.1591,-1.1591,-2.5189,-2.5168,-2.4993,-2.4755,-2.4507,-2.4368,-2.41,-2.3797,-2.3667,-2.3292,-2.2764,-2.2506,-2.2031,-2.1395,-2.12,-2.1268,-2.1434,-2.1494,-2.1777,-2.1855,-2.1689,-2.1416,-2.1094,-2.085,-2.0615,-2.0615,-2.0615,-2.0615,-2.0615,-2.0615,-2.0615,-2.0693,-2.082,-2.0996,-2.1487,-2.2304,-2.2966,-2.3107,-2.3215,-2.3222,-2.2633,-2.2192,-2.1961,-2.2306,-2.1177,-2.1033,-2.0863,-1.9459,-1.8911,-1.8417,-1.756,-1.7064,-1.6713,-1.657,-1.6261,-1.5917,-1.5874,-1.6008,-1.6158,-1.6017,-1.5938,-1.5973,-1.5947,-1.5938,-1.6202,-1.6994,-1.7579,-1.8056,-1.8573,-1.8764,-1.8472,-1.8438,-1.809,-1.7132,-1.6612,-1.6447,-1.6175,-1.5911,-1.5805,-1.5805,-1.5805,-1.5805,-1.5805,-1.5823,-1.5815,-1.5788,-1.5797,-1.5797,-1.5674,-1.5806,-1.5798,-1.5903,-1.6524,-1.6473,-1.5477,-1.5029,-1.4693,-1.3592,-1.2469,-1.2034,-1.1654,-1.1654,-1.184,-1.2205,-1.2521,-1.2521,-1.2521,-1.2521,-1.2236,-1.1778,-1.1622,-1.1591,-1.1591,-1.1591,-1.1591,-2.543,-2.543,-2.542,-2.5117,-2.4724,-2.4584,-2.4275,-2.3937,-2.3797,-2.3388,-2.2781,-2.2611,-2.2129,-2.1512,-2.1229,-2.12,-2.1239,-2.1268,-2.1543,-2.1602,-2.1514,-2.1239,-2.1044,-2.085,-2.0615,-2.0615,-2.0615,-2.0615,-2.0615,-2.0615,-2.0615,-2.0615,-2.0712,-2.0919,-2.1293,-2.2169,-2.2739,-2.2699,-2.2648,-2.2741,-2.2047,-2.1704,-2.1579,-2.1961,-2.1177,-2.0997,-2.0864,-1.9922,-1.9239,-1.887,-1.8271,-1.7509,-1.7141,-1.6816,-1.643,-1.6199,-1.61,-1.6262,-1.6475,-1.6351,-1.599,-1.5903,-1.607,-1.6237,-1.6612,-1.7235,-1.7896,-1.8202,-1.864,-1.8664,-1.8168,-1.7964,-1.752,-1.6586,-1.6638,-1.6473,-1.6105,-1.5805,-1.5805,-1.5805,-1.5805,-1.5805,-1.5805,-1.5805,-1.5841,-1.5841,-1.5805,-1.5655,-1.539,-1.5657,-1.6175,-1.635,-1.6698,-1.6419,-1.5952,-1.5153,-1.4299,-1.3308,-1.2327,-1.1917,-1.1591,-1.1622,-1.1809,-1.2297,-1.2521,-1.2521,-1.2521,-1.249,-1.2143,-1.1716,-1.1622,-1.1591,-1.1591,-1.1591,-1.1591,-2.5844,-2.591,-2.5854,-2.5606,-2.5179,-2.5168,-2.479,-2.4184,-2.412,-2.382,-2.3365,-2.2824,-2.2298,-2.1828,-2.1427,-2.1161,-2.1083,-2.1162,-2.1348,-2.1494,-2.1279,-2.1161,-2.1045,-2.0791,-2.0615,-2.0615,-2.0615,-2.0615,-2.0615,-2.0615,-2.0615,-2.0654,-2.078,-2.0936,-2.1024,-2.1767,-2.2382,-2.2564,-2.2039,-2.1705,-2.138,-2.1212,-2.1356,-2.1266,-2.1168,-2.1042,-2.0802,-2.0157,-1.9581,-1.9495,-1.8888,-1.8263,-1.7903,-1.7364,-1.7013,-1.6841,-1.6613,-1.6732,-1.7099,-1.6803,-1.6519,-1.6228,-1.6491,-1.6719,-1.6874,-1.751,-1.8066,-1.8168,-1.8337,-1.8056,-1.7691,-1.7339,-1.676,-1.6386,-1.6438,-1.6368,-1.5973,-1.5805,-1.5805,-1.5805,-1.5805,-1.5805,-1.5805,-1.5805,-1.5832,-1.5832,-1.5805,-1.5655,-1.5461,-1.5868,-1.6594,-1.6742,-1.6985,-1.6615,-1.6086,-1.4931,-1.3942,-1.293,-1.2213,-1.1805,-1.1654,-1.1685,-1.1996,-1.2398,-1.2582,-1.2644,-1.2552,-1.2459,-1.2027,-1.1654,-1.1622,-1.1591,-1.1591,-1.1591,-1.1591,-2.593,-2.593,-2.593,-2.5792,-2.5627,-2.5303,-2.4844,-2.4247,-2.4024,-2.3851,-2.3597,-2.3015,-2.25,-2.2035,-2.1448,-2.1064,-2.083,-2.0791,-2.0987,-2.1016,-2.0879,-2.081,-2.0772,-2.0732,-2.0615,-2.0615,-2.0615,-2.0615,-2.0615,-2.0615,-2.0615,-2.0654,-2.0896,-2.1177,-2.1287,-2.1529,-2.1507,-2.1297,-2.1057,-2.0894,-2.0421,-2.0542,-2.0718,-2.0727,-2.0781,-2.0826,-2.0808,-2.0074,-1.9889,-1.9949,-1.9341,-1.8836,-1.8494,-1.7997,-1.7766,-1.7526,-1.7308,-1.7523,-1.7826,-1.7792,-1.7681,-1.7333,-1.7204,-1.7353,-1.7326,-1.7837,-1.7998,-1.793,-1.8134,-1.775,-1.7123,-1.6915,-1.6473,-1.6079,-1.6008,-1.6,-1.5797,-1.5805,-1.5805,-1.5805,-1.5805,-1.5805,-1.5805,-1.5841,-1.5867,-1.614,-1.6211,-1.6316,-1.6228,-1.6707,-1.7295,-1.7245,-1.7235,-1.686,-1.6221,-1.4951,-1.4172,-1.3473,-1.2516,-1.1705,-1.1654,-1.1746,-1.1934,-1.2243,-1.2521,-1.2736,-1.2459,-1.2182,-1.1903,-1.1654,-1.1622,-1.1591,-1.1591,-1.1591,-1.1591,-2.5658,-2.5637,-2.5482,-2.542,-2.543,-2.544,-2.5032,-2.4333,-2.3915,-2.3786,-2.369,-2.2938,-2.2347,-2.1999,-2.1471,-2.0957,-2.0644,-2.076,-2.0654,-2.0654,-2.0693,-2.0683,-2.0644,-2.0615,-2.0615,-2.0615,-2.0615,-2.0615,-2.0615,-2.0615,-2.0693,-2.0848,-2.0886,-2.0964,-2.1131,-2.1105,-2.0985,-2.0721,-2.0513,-2.0162,-2.0044,-2.0225,-2.0596,-2.0737,-2.0781,-2.0781,-2.0584,-2.03,-2.0018,-2.0035,-1.9744,-1.9264,-1.9016,-1.8682,-1.8501,-1.826,-1.8302,-1.8542,-1.8746,-1.9433,-1.9205,-1.8433,-1.8348,-1.801,-1.7876,-1.8303,-1.8361,-1.8293,-1.8076,-1.7588,-1.6994,-1.6786,-1.6395,-1.5999,-1.5973,-1.6,-1.5797,-1.5805,-1.5805,-1.5805,-1.5805,-1.5805,-1.5805,-1.5841,-1.5867,-1.6237,-1.6612,-1.6716,-1.6795,-1.7166,-1.7354,-1.7132,-1.6899,-1.6402,-1.5739,-1.4822,-1.419,-1.39,-1.2939,-1.184,-1.1725,-1.1801,-1.1947,-1.2058,-1.2274,-1.2367,-1.2182,-1.1903,-1.1716,-1.1622,-1.1622,-1.1591,-1.1591,-1.1591,-1.1591,-2.5179,-2.513,-2.4693,-2.4518,-2.4621,-2.5254,-2.515,-2.4372,-2.3801,-2.3757,-2.4012,-2.229,-2.187,-2.201,-2.1292,-2.0868,-2.078,-2.1002,-2.0886,-2.078,-2.078,-2.0731,-2.0654,-2.0615,-2.0615,-2.0615,-2.0615,-2.0615,-2.0615,-2.0654,-2.0848,-2.0974,-2.0693,-2.0799,-2.0896,-2.0683,-2.0475,-2.0143,-1.977,-1.9569,-1.9523,-2.0193,-2.0554,-2.0766,-2.0899,-2.0988,-2.0844,-2.0539,-2.0322,-2.0163,-1.9949,-1.9742,-1.9452,-1.9025,-1.9025,-1.916,-1.9349,-1.972,-1.9811,-2.0587,-2.0462,-1.953,-1.8947,-1.854,-1.8438,-1.8664,-1.8596,-1.8333,-1.8032,-1.7617,-1.7185,-1.6831,-1.6448,-1.6351,-1.6307,-1.6132,-1.5876,-1.5805,-1.5805,-1.5805,-1.5805,-1.5805,-1.5805,-1.5841,-1.5867,-1.6096,-1.6403,-1.6524,-1.6629,-1.6872,-1.6897,-1.6402,-1.614,-1.5736,-1.5076,-1.4567,-1.4249,-1.401,-1.2997,-1.2064,-1.1978,-1.1843,-1.1892,-1.1965,-1.2027,-1.2058,-1.2034,-1.1872,-1.1654,-1.1591,-1.1591,-1.1591,-1.1591,-1.1591,-1.1591,-2.4807,-2.4302,-2.4425,-2.4311,-2.4074,-2.4033,-2.3805,-2.3598,-2.365,-2.3701,-2.343,-2.2291,-2.1957,-2.2125,-2.1297,-2.1042,-2.1051,-2.1089,-2.1012,-2.0935,-2.0906,-2.078,-2.0693,-2.0615,-2.0615,-2.0615,-2.0615,-2.0615,-2.0654,-2.0693,-2.0935,-2.1089,-2.0654,-2.0673,-2.043,-2.0001,-1.968,-1.941,-1.9091,-1.9035,-1.9153,-1.9731,-2.0097,-2.028,-2.0622,-2.0683,-2.0557,-2.0456,-2.0283,-2.0232,-2.0189,-2.0052,-1.9657,-1.9744,-1.9951,-2.0102,-2.0729,-2.1317,-2.0805,-2.1505,-2.1598,-2.0501,-1.991,-1.9438,-1.9199,-1.9011,-1.8876,-1.8408,-1.8093,-1.7767,-1.7359,-1.6989,-1.6688,-1.6599,-1.6555,-1.6475,-1.6166,-1.5831,-1.5831,-1.5805,-1.5805,-1.5805,-1.5805,-1.5805,-1.5867,-1.6,-1.6123,-1.6245,-1.6306,-1.6481,-1.6367,-1.5877,-1.5534,-1.5161,-1.5062,-1.4611,-1.4343,-1.3987,-1.3063,-1.2337,-1.2096,-1.1963,-1.1875,-1.184,-1.184,-1.1965,-1.2065,-1.1872,-1.1622,-1.1591,-1.1591,-1.1591,-1.1591,-1.1591,-1.1591,-2.4105,-2.3639,-2.3691,-2.3474,-2.308,-2.2956,-2.2822,-2.276,-2.3132,-2.3232,-2.3081,-2.2143,-2.1916,-2.2084,-2.1507,-2.1167,-2.1205,-2.1349,-2.1282,-2.0945,-2.0984,-2.0809,-2.0683,-2.0615,-2.0615,-2.0615,-2.0615,-2.0615,-2.0654,-2.0819,-2.1022,-2.1244,-2.0683,-2.043,-2.0079,-1.9371,-1.8714,-1.8602,-1.8507,-1.8569,-1.8888,-1.9247,-1.9418,-1.9632,-1.9984,-2.0172,-2.0146,-2.018,-2.0283,-2.0292,-2.0292,-2.0206,-1.9984,-2.0172,-2.0257,-2.0342,-2.0544,-2.1105,-2.1148,-2.171,-2.162,-2.1343,-2.108,-2.0715,-2.0178,-1.9823,-1.9162,-1.8503,-1.828,-1.8029,-1.7604,-1.7225,-1.7018,-1.681,-1.6804,-1.6838,-1.6404,-1.5953,-1.5848,-1.5814,-1.5805,-1.5805,-1.5805,-1.5805,-1.5761,-1.5744,-1.5771,-1.5868,-1.5816,-1.5745,-1.5631,-1.5313,-1.5002,-1.4697,-1.4664,-1.469,-1.4495,-1.4122,-1.3406,-1.2775,-1.2372,-1.1961,-1.1783,-1.1685,-1.1622,-1.1778,-1.1903,-1.1778,-1.1591,-1.1591,-1.1591,-1.1591,-1.1591,-1.1591,-1.1591,-2.3193,-2.3029,-2.2625,-2.2294,-2.1911,-2.2273,-2.2221,-2.1869,-2.2315,-2.2671,-2.2791,-2.1992,-2.1758,-2.197,-2.1591,-2.1359,-2.1436,-2.1578,-2.1436,-2.0945,-2.1099,-2.0974,-2.0683,-2.0615,-2.0615,-2.0615,-2.0615,-2.0654,-2.0693,-2.0896,-2.1215,-2.1436,-2.0479,-2.0079,-1.9864,-1.8975,-1.8477,-1.8325,-1.8284,-1.8331,-1.8793,-1.9059,-1.9204,-1.9324,-1.9744,-2.0129,-1.9947,-2.0069,-2.0292,-2.0292,-2.0283,-2.0275,-2.0266,-2.0266,-2.0283,-2.0468,-2.0544,-2.0929,-2.1512,-2.2087,-2.2328,-2.231,-2.2449,-2.1797,-2.1104,-2.0379,-1.9586,-1.8856,-1.855,-1.8081,-1.767,-1.7979,-1.8034,-1.7542,-1.7289,-1.7009,-1.6481,-1.6047,-1.5831,-1.5805,-1.5805,-1.5805,-1.5761,-1.5726,-1.5399,-1.5382,-1.5267,-1.5338,-1.5188,-1.501,-1.5002,-1.4788,-1.4617,-1.4482,-1.4613,-1.462,-1.4596,-1.4233,-1.3593,-1.2989,-1.2485,-1.2018,-1.1613,-1.1591,-1.1591,-1.1591,-1.1654,-1.1591,-1.1591,-1.1591,-1.1591,-1.1591,-1.1591,-1.1591,-1.1591,-2.277,-2.2128,-2.2014,-2.1901,-2.1828,-2.1921,-2.1921,-2.1818,-2.1911,-2.2063,-2.2053,-2.1758,-2.1637,-2.1811,-2.1647,-2.1512,-2.1655,-2.1655,-2.1502,-2.1244,-2.1215,-2.1012,-2.0683,-2.0615,-2.0615,-2.0615,-2.0615,-2.0693,-2.0858,-2.1128,-2.1359,-2.1436,-2.0712,-2.0343,-1.9864,-1.8984,-1.8602,-1.8312,-1.8136,-1.8085,-1.8374,-1.8674,-1.8845,-1.917,-1.9607,-1.9975,-1.9992,-2.0189,-2.0283,-2.0292,-2.0292,-2.0292,-2.0292,-2.0292,-2.0138,-2.0092,-2.0828,-2.1268,-2.1655,-2.2357,-2.2888,-2.2674,-2.2511,-2.2149,-2.16,-2.0866,-2.0109,-1.939,-1.8826,-1.8322,-1.8101,-1.8645,-1.8922,-1.8321,-1.7661,-1.7097,-1.6499,-1.616,-1.5831,-1.5805,-1.5805,-1.5726,-1.5682,-1.5461,-1.5133,-1.4848,-1.4525,-1.4382,-1.4201,-1.4093,-1.451,-1.4402,-1.4338,-1.4294,-1.4522,-1.4707,-1.4765,-1.4407,-1.3771,-1.3185,-1.2576,-1.2059,-1.1591,-1.1591,-1.1591,-1.1591,-1.1591,-1.1591,-1.1591,-1.1591,-1.1591,-1.1591,-1.1591,-1.1591,-1.1591,-2.2273,-2.1828,-2.1807,-2.1807,-2.1807,-2.1807,-2.1807,-2.1807,-2.1807,-2.1807,-2.1769,-2.1693,-2.1693,-2.1807,-2.1655,-2.1655,-2.1807,-2.1769,-2.1512,-2.1282,-2.1138,-2.0964,-2.077,-2.0615,-2.0615,-2.0615,-2.0731,-2.0858,-2.1061,-2.1282,-2.1474,-2.1502,-2.1136,-2.0576,-1.9904,-1.932,-1.878,-1.8346,-1.8076,-1.8017,-1.8034,-1.8391,-1.8519,-1.8853,-1.9299,-1.9675,-1.9847,-2.0043,-2.0283,-2.0292,-2.0292,-2.0292,-2.0292,-2.0292,-2.0095,-2.0173,-2.0721,-2.1646,-2.192,-2.2498,-2.3432,-2.3196,-2.2853,-2.2615,-2.2449,-2.1707,-2.0774,-2.0091,-2.0053,-1.962,-1.9231,-1.9531,-1.9353,-1.8873,-1.8045,-1.7286,-1.6567,-1.5969,-1.5814,-1.5805,-1.5691,-1.5461,-1.5355,-1.5106,-1.4812,-1.4525,-1.4173,-1.3956,-1.3666,-1.3528,-1.3876,-1.4194,-1.4238,-1.4489,-1.4867,-1.5018,-1.5087,-1.4585,-1.3982,-1.3242,-1.2557,-1.2004,-1.1591,-1.1591,-1.1591,-1.1591,-1.1591,-1.1591,-1.1591,-1.1591,-1.1591,-1.1591,-1.1591,-1.1591,-1.1591,-2.1828,-2.1807,-2.1807,-2.1807,-2.1845,-2.1911,-2.1921,-2.1845,-2.1921,-2.1883,-2.1807,-2.1769,-2.1807,-2.1807,-2.1807,-2.1807,-2.1769,-2.1693,-2.1474,-2.1282,-2.1177,-2.0925,-2.0731,-2.0615,-2.0615,-2.0731,-2.0858,-2.1051,-2.1254,-2.1474,-2.1617,-2.1645,-2.1165,-2.0537,-1.9913,-1.9301,-1.8736,-1.827,-1.8,-1.8,-1.8168,-1.834,-1.8331,-1.8538,-1.8905,-1.9376,-1.947,-1.9675,-2.0086,-2.0249,-2.0232,-2.0215,-2.0163,-2.0129,-1.9964,-2.0034,-2.0367,-2.1182,-2.1774,-2.2516,-2.338,-2.3792,-2.3433,-2.3111,-2.2884,-2.2239,-2.1291,-2.0987,-2.0948,-2.065,-2.0281,-1.9954,-1.965,-1.8985,-1.8136,-1.7313,-1.6489,-1.5822,-1.5778,-1.577,-1.5505,-1.524,-1.4991,-1.4748,-1.4497,-1.4173,-1.3956,-1.3775,-1.3637,-1.3637,-1.3811,-1.4165,-1.4382,-1.4705,-1.5098,-1.5196,-1.5229,-1.4806,-1.4173,-1.3308,-1.2523,-1.1962,-1.1622,-1.1591,-1.1591,-1.1591,-1.1591,-1.1591,-1.1591,-1.1591,-1.1591,-1.1591,-1.1591,-1.1591,-1.1591,-2.1807,-2.1807,-2.1807,-2.1807,-2.1883,-2.2478,-2.2402,-2.1959,-2.244,-2.244,-2.1921,-2.1807,-2.1807,-2.1807,-2.1807,-2.1807,-2.1769,-2.1655,-2.1436,-2.1244,-2.1061,-2.0809,-2.0644,-2.0615,-2.0693,-2.0858,-2.1012,-2.1244,-2.1397,-2.1617,-2.1731,-2.1731,-2.1252,-2.0576,-1.9904,-1.9292,-1.8763,-1.8273,-1.7991,-1.7991,-1.7991,-1.8177,-1.8314,-1.8485,-1.8674,-1.8956,-1.9136,-1.929,-1.9555,-1.9821,-2.0069,-2.0035,-1.9975,-1.9819,-1.9691,-1.9712,-2.005,-2.0805,-2.1584,-2.2249,-2.308,-2.3762,-2.336,-2.2876,-2.2606,-2.2211,-2.1583,-2.146,-2.1265,-2.0803,-2.0415,-2.0164,-1.9839,-1.8562,-1.7505,-1.6789,-1.6049,-1.5796,-1.5735,-1.5541,-1.5275,-1.4991,-1.4677,-1.4461,-1.4209,-1.3956,-1.3775,-1.3601,-1.3564,-1.3637,-1.3746,-1.4137,-1.4533,-1.4812,-1.5125,-1.5261,-1.5248,-1.4858,-1.428,-1.33,-1.2499,-1.1939,-1.1654,-1.1622,-1.1591,-1.1591,-1.1591,-1.1591,-1.1591,-1.1591,-1.1591,-1.1591,-1.1591,-1.1591,-1.1591]}]]